     2.11           OBSERVATION DATA    G (GPS)             RINEX VERSION / TYPE
teqc 2010Oct21 OPUS Account 20111026 14:55:12UTC            PGM / RUN BY / DATE
C 1522                                                      MARKER NAME
1158                                                        MARKER NUMBER
CSMIDDLETON NGS                                             OBSERVER / AGENCY
4624K01647 TRIMBLE NETR5 4.41                               REC # / TYPE / VERS
12694052 TRM41249.00 NONE                                   ANT # / TYPE
  -739194.3587 -5490156.4815  3150741.9352                  APPROX POSITION XYZ
        2.0040        0.0000        0.0000                  ANTENNA: DELTA H/E/N
     1     1                                                WAVELENGTH FACT L1/2
     5    L1    L2    C1    P1    P2                        # / TYPES OF OBSERV
    15                                                      LEAP SECONDS
  2011     7    30     0     0    0.0000000     GPS         TIME OF FIRST OBS
                                                            END OF HEADER
 11  7 30  0  0  0.0000000  0  9G12G04G20G27G28G09G17G02G10
 130580862.099 6 101751360.13842  24848714.234                    24848722.164
 104480762.144 8  81413784.01146  19882010.195                    19882017.398
 127934631.657 6  99689269.08542  24345128.672                    24345135.836
 117715582.603 7  91726477.19245  22400528.211                    22400535.938
 115382320.991 7  89908394.35045  21956512.938                    21956519.813
 116253109.637 7  90586924.38945  22122236.641                    22122245.273
 112884705.069 8  87962232.19346  21481218.906                    21481225.773
 116148582.150 8  90505430.80945  22102301.727                    22102307.820
 122219810.678 6  95236290.06444  23257642.172                    23257651.207
 11  7 30  0  0 30.0000000  0  9G12G04G20G27G28G09G17G02G10
 130484350.079 6 101676156.01043  24830348.758                    24830356.664
 104475527.041 8  81409704.71546  19881013.945                    19881021.473
 127977345.837 6  99722552.85442  24353255.906                    24353264.223
 117712101.276 7  91723764.43845  22399865.344                    22399873.703
 115437992.592 7  89951774.78145  21967107.070                    21967113.648
 116234670.912 7  90572556.53845  22118728.141                    22118736.621
 112916872.409 8  87987297.62346  21487340.016                    21487346.688
 116073755.962 8  90447124.73745  22088062.563                    22088068.574
 122127361.923 6  95164252.15944  23240049.594                    23240058.449
 11  7 30  0  1  0.0000000  0  9G12G04G20G27G28G09G17G02G10
 130387798.845 6 101600921.34443  24811975.750                    24811984.234
 104470856.875 8  81406065.63446  19880125.195                    19880132.602
 128020540.252 5  99756210.77942  24361476.164                    24361483.617
 117709108.362 7  91721432.27345  22399296.055                    22399303.938
 115494036.707 7  89995445.48745  21977771.969                    21977778.664
 116216871.941 7  90558687.20045  22115341.055                    22115349.074
 112949126.862 7  88012430.93646  21493477.984                    21493485.070
 115999240.955 8  90389061.13745  22073883.258                    22073888.809
 122035009.070 6  95092288.97444  23222474.875                    23222484.332
 11  7 30  0  1 30.0000000  0  9G12G04G20G27G28G09G17G02G10
 130291209.862 6 101525657.24943  24793595.039                    24793602.641
 104466751.553 8  81402866.68246  19879344.156                    19879351.207
 128064214.340 6  99790242.53342  24369786.984                    24369795.125
 117706604.045 7  91719480.83645  22398819.703                    22398827.895
 115550453.404 7  90039406.50145  21988507.680                    21988514.559
 116199713.289 7  90545316.80745  22112076.078                    22112084.016
 112981468.719 8  88037632.36346  21499632.234                    21499639.117
 115925038.734 8  90331241.27445  22059762.695                    22059768.848
 121942755.472 6  95020403.13344  23204919.375                    23204929.086
 11  7 30  0  2  0.0000000  0  9G12G04G20G27G28G09G17G02G10
 130194584.652 6 101450364.89043  24775208.242                    24775216.078
 104463209.860 8  81400106.93046  19878670.211                    19878677.285
 128108366.679 6  99824646.95942  24378188.531                    24378197.715
 117704587.635 7  91717909.58645  22398436.188                    22398444.172
 115607242.426 7  90083657.65845  21999314.688                    21999321.273
 116183194.756 7  90532445.22445  22108932.602                    22108940.594
 113013897.519 7  88062901.53546  21505803.398                    21505809.867
 115851150.123 8  90273665.77545  22045702.430                    22045708.039
 121850604.203 6  94948597.05544  23187383.531                    23187393.301
 11  7 30  0  2 30.0000000  0  9G12G04G20G27G28G09G17G02G10
 130097924.966 6 101375045.74543  24756813.656                    24756822.875
 104460231.075 8  81397785.81246  19878103.188                    19878110.676
 128152996.439 6  99859423.34842  24386679.930                    24386690.098
 117703058.619 7  91716718.12445  22398145.336                    22398152.871
 115664403.512 7  90128198.71245  22010191.836                    22010198.871
 116167316.683 7  90520072.68045  22105911.086                    22105919.035
 113046413.199 7  88088238.40646  21511990.703                    21511998.066
 115777576.289 8  90216335.56345  22031701.375                    22031707.859
 121758558.587 6  94876873.28244  23169867.281                    23169878.246
 11  7 30  0  3  0.0000000  0  9G12G04G20G27G28G09G17G02G10
 130001232.080 6 101299700.68243  24738414.797                    24738422.723
 104457814.968 8  81395903.12946  19877643.883                    19877650.695
 128198102.449 6  99894570.86942  24395264.891                    24395273.258
 117702016.846 7  91715906.33045  22397946.430                    22397955.344
 115721936.602 7  90173029.66645  22021140.117                    22021146.605
 116152079.088 7  90508199.22745  22103011.695                    22103019.395
 113079015.557 7  88113642.81646  21518194.430                    21518202.188
 115704318.801 8  90159251.84545  22017760.938                    22017767.172
 121666622.373 7  94805234.73644  23152372.727                    23152382.633
 11  7 30  0  3 30.0000000  0  9G12G04G20G27G28G09G17G02G10
 129904507.747 6 101224331.11543  24720007.969                    24720015.684
 104455960.476 8  81394458.07246  19877290.609                    19877298.184
 128243683.813 6  99930088.80042  24403938.438                    24403946.836
 117701461.737 7  91715473.75445  22397840.813                    22397849.066
 115779841.385 7  90218150.22545  22032158.578                    22032165.766
 116137482.132 7  90496824.95345  22100233.914                    22100241.652
 113111704.358 7  88139114.59446  21524415.297                    21524422.652
 115631378.581 8  90102415.35045  22003881.422                    22003887.074
 121574798.344 6  94733683.64143  23134898.891                    23134908.379
 11  7 30  0  4  0.0000000  0  9G12G04G20G27G28G09G17G02G10
 129807753.575 6 101148938.30843  24701596.344                    24701604.426
 104454666.788 8  81393450.01046  19877044.594                    19877052.336
 128289739.314 6  99965976.14943  24412702.766                    24412711.410
 117701393.045 7  91715420.18745  22397828.156                    22397836.746
 115838117.721 7  90263560.32445  22043248.391                    22043255.625
 116123525.662 7  90485949.75645  22097577.672                    22097585.504
 113144479.370 7  88164653.54846  21530651.883                    21530659.234
 115558756.763 8  90045826.96145  21990061.414                    21990067.387
 121483089.705 6  94662222.41944  23117448.070                    23117457.258
 11  7 30  0  4 30.0000000  0  9G12G04G20G27G28G09G17G02G10
 129710970.665 6 101073523.10543  24683179.023                    24683187.496
 104453932.858 8  81392878.11446  19876904.875                    19876912.461
 128336267.944 6 100002232.20143  24421556.422                    24421565.738
 117701809.882 7  91715744.97845  22397907.258                    22397915.500
 115896764.947 7  90309259.41745  22054408.750                    22054416.254
 116110209.742 7  90475573.70245  22095044.406                    22095051.906
 113177340.337 7  88190259.47346  21536905.195                    21536912.660
 115486454.203 8  89989487.34745  21976302.563                    21976308.523
 121391499.825 6  94590853.76344  23100018.563                    23100027.938
 11  7 30  0  5  0.0000000  0  9G12G04G20G27G28G09G17G02G10
 129614161.013 6 100998087.09543  24664755.828                    24664764.879
 104453758.357 8  81392742.14046  19876871.563                    19876878.789
 128383268.773 6 100038856.19043  24430500.516                    24430510.082
 117702711.885 7  91716447.80845  22398079.352                    22398087.766
 115955783.242 7  90355247.65045  22065640.133                    22065647.273
 116097534.629 7  90465696.98545  22092632.125                    22092639.789
 113210287.059 7  88215932.22246  21543175.125                    21543182.172
 115414472.226 8  89933397.52845  21962605.219                    21962611.234
 121300032.127 7  94519580.27944  23082612.805                    23082622.609
 11  7 30  0  5 30.0000000  0  9G12G04G20G27G28G09G17G02G10
 129517326.060 6 100922631.37243  24646329.055                    24646337.633
 104454142.017 8  81393041.09646  19876945.102                    19876952.098
 128430740.614 6 100075847.18542  24439535.219                    24439543.121
 117704098.295 7  91717528.11545  22398342.484                    22398350.930
 116015172.177 7  90401524.70045  22076941.055                    22076948.773
 116085500.095 7  90456319.40845  22090342.125                    22090350.344
 113243319.441 7  88241671.71546  21549461.242                    21549467.707
 115342811.963 8  89877558.39545  21948968.727                    21948974.492
 121208689.691 6  94448404.42344  23065231.516                    23065240.602
 11  7 30  0  6  0.0000000  0  9G12G04G20G27G28G09G17G02G10
 129420467.497 6 100847157.21043  24627897.656                    24627906.211
 104455082.524 8  81393773.96046  19877123.313                    19877130.945
 128478681.897 6 100113204.03843  24448656.914                    24448666.328
 117705968.454 7  91718985.36745  22398698.813                    22398707.125
 116074931.125 7  90448090.05745  22088312.828                    22088320.141
 116074105.647 7  90447440.60345  22088173.789                    22088181.953
 113276436.976 7  88267477.56646  21555762.688                    21555769.984
 115271474.093 8  89821970.48045  21935393.352                    21935399.461
 121117475.631 6  94377328.59744  23047873.398                    23047882.723
 11  7 30  0  6 30.0000000  0  9G12G04G20G27G28G09G17G02G10
 129323587.039 6 100771665.98643  24609462.516                    24609470.723
 104456579.494 8  81394940.43146  19877408.445                    19877415.297
 128527091.753 6 100150925.98643  24457869.383                    24457878.625
 117708322.026 7  91720819.27845  22399147.070                    22399154.816
 116135059.880 7  90494943.60045  22099755.117                    22099761.914
 116063351.641 7  90439060.83245  22086127.516                    22086135.445
 113309639.659 7  88293349.77146  21562081.227                    21562088.621
 115200459.914 8  89766634.79445  21921879.430                    21921885.703
 121026393.285 6  94306355.41344  23030540.703                    23030550.625
 11  7 30  0  7  0.0000000  0  9G12G04G20G27G28G09G17G02G10
 129226686.237 6 100696158.93543  24591022.313                    24591031.715
 104458632.038 8  81396539.81646  19877798.844                    19877806.297
 128575969.010 6 100189012.08643  24467170.758                    24467179.125
 117711158.614 7  91723029.58645  22399686.586                    22399694.520
 116195558.350 7  90542085.21845  22111267.984                    22111275.195
 116053237.762 7  90431179.87345  22084202.797                    22084210.914
 113342927.552 8  88319288.37346  21568415.977                    21568422.797
 115129770.455 8  89711552.13845  21908427.992                    21908433.777
 120935446.070 6  94235487.52344  23013234.820                    23013244.078
 11  7 30  0  7 30.0000000  0  9G12G04G20G27G28G09G17G02G10
 129129766.743 6 100620637.31544  24572578.891                    24572587.488
 104461239.244 8  81398571.40646  19878295.219                    19878302.508
 128625312.545 6 100227461.54642  24476561.523                    24476569.027
 117714477.712 7  91725615.87045  22400317.914                    22400325.809
 116256426.238 7  90589514.69745  22122850.375                    22122857.582
 116043763.815 7  90423797.55545  22082400.242                    22082408.086
 113376300.708 7  88345293.41146  21574766.078                    21574773.508
 115059407.122 8  89656723.60345  21895038.203                    21895044.160
 120844637.302 7  94164727.50944  22995954.047                    22995963.633
 11  7 30  0  8  0.0000000  0  9G12G04G20G27G28G09G17G02G10
 129032830.493 6 100545102.63243  24554133.258                    24554141.496
 104464400.557 8  81401034.76846  19878896.430                    19878903.754
 128675121.130 6 100266273.44843  24486039.586                    24486047.254
 117718278.788 7  91728577.72845  22401041.844                    22401049.824
 116317663.194 7  90637231.75445  22134503.563                    22134510.563
 116034930.190 7  90416914.20045  22080719.117                    22080726.688
 113409759.589 7  88371365.24546  21581133.563                    21581140.387
 114989370.991 8  89602150.02045  21881710.844                    21881716.535
 120753970.652 6  94094078.24444  22978700.688                    22978709.914
 11  7 30  0  8 30.0000000  0  9G12G04G20G27G28G09G17G02G10
 128935878.605 6 100469555.74043  24535683.141                    24535691.563
 104468114.095 8  81403928.43346  19879603.164                    19879610.941
 128725393.573 6 100305446.82243  24495605.734                    24495614.004
 117722560.622 7  91731914.20045  22401856.328                    22401864.988
 116379268.310 7  90685235.70445  22146226.367                    22146233.488
 116026736.032 7  90410529.13445  22079158.938                    22079167.883
 113443302.640 7  88397502.66346  21587516.078                    21587523.223
 114919662.535 8  89547831.78445  21868445.672                    21868451.352
 120663448.748 6  94023541.76644  22961474.031                    22961484.711
 11  7 30  0  9  0.0000000  0  9G12G04G20G27G28G09G17G02G10
 128838913.182 7 100393998.30843  24517231.656                    24517239.566
 104472379.273 8  81407251.95246  19880414.883                    19880422.789
 128776128.419 6 100344980.38743  24505259.695                    24505268.617
 117727322.657 7  91735624.86145  22402762.391                    22402770.438
 116441241.829 7  90733526.72145  22158019.414                    22158026.965
 116019181.095 7  90404642.15645  22077721.781                    22077729.918
 113476930.035 7  88423705.81046  21593915.313                    21593922.176
 114850282.939 8  89493769.80045  21855243.242                    21855249.047
 120573075.024 7  93953120.74944  22944276.836                    22944286.438
 11  7 30  0  9 30.0000000  0  9G12G04G20G27G28G09G17G02G10
 128741935.794 6 100318431.55243  24498777.211                    24498785.754
 104477195.076 8  81411004.52646  19881331.375                    19881338.797
 128827324.515 6 100384873.40543  24515002.406                    24515010.980
 117732564.156 7  91739709.11045  22403759.938                    22403768.000
 116503582.930 7  90782104.17545  22169883.289                    22169889.906
 116012265.106 7  90399253.06045  22076405.688                    22076413.711
 113510642.339 7  88449975.11546  21600331.125                    21600337.797
 114781233.410 8  89439964.98946  21842103.422                    21842109.375
 120482852.881 7  93882817.83744  22927109.070                    22927118.055
 11  7 30  0 10  0.0000000  0  9G12G04G20G27G28G09G17G02G10
 128644948.219 6 100242856.86443  24480321.297                    24480330.359
 104482560.334 8  81415185.24846  19882352.453                    19882360.008
 128878980.486 6 100425124.77442  24524832.219                    24524841.000
 117738284.583 7  91744166.55845  22404848.703                    22404856.570
 116566291.376 7  90830967.86045  22181815.641                    22181823.000
 116005987.786 7  90394361.62745  22075211.328                    22075219.785
 113544439.013 7  88476310.18346  21606762.008                    21606769.574
 114712514.828 8  89386418.07145  21829026.523                    21829032.332
 120392785.652 7  93812635.63944  22909969.133                    22909978.609
 11  7 30  0 10 30.0000000  0  9G12G04G20G27G28G09G17G02G10
 128547952.192 6 100167275.56543  24461863.516                    24461871.828
 104488474.390 8  81419793.60646  19883477.727                    19883484.852
 128931095.147 6 100465733.60542  24534748.844                    24534757.703
 117744483.483 7  91748996.84845  22406028.250                    22406036.379
 116629366.610 7  90880117.34645  22193818.406                    22193825.605
 116000348.818 7  90389967.60445  22074138.234                    22074146.313
 113578320.074 7  88502710.97846  21613209.336                    21613216.867
 114644128.169 8  89333129.79646  21816013.031                    21816018.863
 120302876.881 7  93742576.94644  22892860.133                    22892869.207
 11  7 30  0 11  0.0000000  0  9G12G04G20G27G28G09G17G02G10
 128450949.204 6 100091688.91143  24443403.742                    24443412.746
 104494935.375 8  81424828.14446  19884707.375                    19884715.016
 128983666.927 6 100506698.57142  24544754.313                    24544761.922
 117751159.511 7  91754198.91545  22407298.414                    22407306.867
 116692808.169 7  90929552.28745  22205891.328                    22205898.445
 115995347.687 7  90386070.60945  22073186.531                    22073194.664
 113612285.331 7  88529177.37846  21619672.992                    21619680.063
 114576074.247 8  89280100.78746  21803062.805                    21803068.777
 120213129.153 7  93672643.71344  22875781.547                    22875791.430
 11  7 30  0 11 30.0000000  0  9G12G04G20G27G28G09G17G02G10
 128353941.109 6 100016098.24343  24424944.047                    24424952.762
 104501942.562 8  81430288.28746  19886040.766                    19886048.363
 129036694.610 5 100548018.81842  24554842.875                    24554852.691
 117758312.094 7  91759772.34245  22408659.078                    22408667.855
 116756615.735 7  90979272.42145  22218033.430                    22218040.488
 115990984.079 7  90382670.37845  22072356.445                    22072364.777
 113646334.761 7  88555709.38745  21626151.852                    21626159.293
 114508354.028 8  89227331.81745  21790176.125                    21790182.379
 120123546.410 7  93602839.03144  22858735.188                    22858744.270
 11  7 30  0 12  0.0000000  0  9G12G04G20G27G28G09G17G02G10
 128256929.776 6  99940505.06443  24406483.484                    24406491.992
 104509495.435 8  81436173.64446  19887477.938                    19887485.332
 129090177.279 5 100589693.57842  24565021.328                    24565030.934
 117765940.828 7  91765716.77745  22410112.000                    22410120.094
 116820788.709 7  91029277.29245  22230244.836                    22230252.426
 115987257.769 7  90379766.74845  22071647.188                    22071655.074
 113680468.687 7  88582307.23546  21632647.703                    21632655.160
 114440969.120 8  89174824.11846  21777352.930                    21777359.082
 120034132.222 7  93533165.70944  22841720.016                    22841729.156
 11  7 30  0 12 30.0000000  0  9G12G04G20G27G28G09G17G02G10
 128159917.299 6  99864910.99143  24388022.266                    24388030.672
 104517592.460 8  81442483.01847  19889018.445                    19889026.211
 129144113.473 5                  24575285.227
 117774044.712 7  91772031.47645  22411653.914                    22411662.082
 116885326.867 7  91079566.70745  22242526.789                    22242533.879
 115984168.175 7  90377359.25345  22071059.508                    22071067.359
 113714686.986 7  88608970.81246  21639159.281                    21639166.840
 114373920.218 8  89122578.25346  21764594.031                    21764599.801
 119944889.653 7  93463626.12644  22824736.984                    22824745.996
 11  7 30  0 13  0.0000000  0 10G12G05G04G20G27G28G09G17G02G10
 128062905.279 6  99789317.23843  24369561.875                    24369570.004
 135025947.47515                  25694584.961
 104526232.324 8  81449215.37446  19890662.781                    19890670.262
 129198501.63315                  24585633.844
 117782622.776 7  91778715.66145  22413286.023                    22413294.227
 116950229.446 7  91130140.11345  22254876.727                    22254884.531
 115981714.666 7  90375447.41645  22070592.273                    22070600.555
 113748989.519 8  88635700.03446  21645686.836                    21645694.031
 114307208.258 8  89070594.93646  21751899.055                    21751905.281
 119855821.809 7  93394222.67444  22807787.578                    22807797.043
 11  7 30  0 13 30.0000000  0 10G12G05G04G20G27G28G09G17G02G10
 127965895.741 6  99713725.45843  24351101.734                    24351109.930
 134929324.953 4                  25676198.336
 104535414.283 8  81456370.14846  19892410.000                    19892417.703
 129253340.650 5                  24596070.055
 117791674.660 7  91785769.05245  22415008.500                    22415016.453
 117015496.487 7  91180997.49545  22267297.063                    22267304.383
 115979897.221 7  90374031.21645  22070246.656                    22070254.813
 113783376.777 7  88662495.27546  21652230.555                    21652237.727
 114240834.377 8  89018875.07246  21739268.891                    21739274.379
 119766932.495 6  93324958.34544  22790872.945                    22790882.242
 11  7 30  0 14  0.0000000  0 10G12G05G04G20G27G28G09G17G02G10
 127868889.038 6  99638135.87443  24332642.008                    24332650.332
 134832493.55916                  25657772.734
 104545135.946 8  81463945.45946  19894260.125                    19894267.313
 129308628.058 5                  24606591.023
 117801198.263 7  91793190.00945  22416820.656                    22416828.938
 117081126.319 7  91232137.57245  22279786.320                    22279793.207
 115978714.229 7  90373109.40345  22070021.375                    22070029.215
 113817847.362 7  88689355.44446  21658790.125                    21658797.641
 114174798.102 8  88967418.27346  21726702.406                    21726708.301
 119678223.955 7  93255834.84944  22773992.273                    22774001.426
 11  7 30  0 14 30.0000000  0 10G12G05G04G20G27G28G09G17G02G10
 127771887.627 6  99562550.40243  24314182.594                    24314191.398
 134735454.676 5                  25639305.633
 104555396.297 8  81471940.54046  19896212.445                    19896219.977
 129364362.568 5                  24617196.969
 117811193.049 7  91800978.13845  22418722.984                    22418730.711
 117147118.432 7  91283559.95145  22292343.688                    22292351.418
 115978165.200 7  90372681.59345  22069917.242                    22069924.750
 113852401.249 8  88716280.53346  21665365.672                    21665373.105
 114109100.719 8  88916225.54546  21714200.320                    21714206.301
 119589699.889 7  93186855.12844  22757146.695                    22757155.559
 11  7 30  0 15  0.0000000  0 10G12G05G04G20G27G28G09G17G02G10
 127674893.678 6  99486970.77743  24295725.867                    24295734.031
 134638211.259 6 104912948.13952  25620800.906                    25620814.324
 104566195.031 8  81480355.12746  19898267.289                    19898274.688
 129420543.309 5                  24627887.289
 117821658.643 7  91809133.11345  22420714.023                    22420722.383
 117213473.087 7  91335264.82945  22304970.531                    22304978.230
 115978250.229 7  90372747.84145  22069933.344                    22069941.160
 113887039.465 7  88743271.32346  21671957.070                    21671964.539
 114043743.775 8  88865298.08946  21701763.547                    21701769.629
 119501364.507 7  93118022.41344  22740337.273                    22740345.484
 11  7 30  0 15 30.0000000  0 10G12G05G04G20G27G28G09G17G02G10
 127577908.660 6  99411398.07343  24277269.711                    24277278.336
 134540764.236 6 104837015.60642  25602257.766                    25602271.410
 104577530.043 8  81489187.60346  19900424.422                    19900432.043
 129477168.349 6 100891238.87752  24638664.023                    24638671.293
 117832593.463 7  91817653.73145  22422794.539                    22422803.172
 117280189.025 7  91387251.22144  22317666.344                    22317673.727
 115978968.107 7  90373307.21445  22070070.039                    22070077.813
 113921761.311 7  88770327.29146  21678564.641                    21678571.758
 113978727.580 8  88814636.15146  21689391.531                    21689396.910
 119413220.292 7  93049338.67844  22723563.789                    22723572.699
 11  7 30  0 16  0.0000000  0 10G12G05G04G20G27G28G09G17G02G10
 127480934.586 7  99335833.91244  24258815.875                    24258824.691
 134443116.217 6 104760926.35442  25583675.641                    25583689.066
 104589400.276 8  81498437.13146  19902683.367                    19902690.945
 129534236.288 6 100935707.39242  24649522.938                    24649531.648
 117843996.743 7  91826539.38145  22424965.672                    22424973.680
 117347265.688 7  91439518.69144  22330430.727                    22330438.160
 115980318.299 7  90374359.30145  22070326.695                    22070334.742
 113956566.729 7  88797448.36446  21685187.930                    21685194.969
 113914053.275 8  88764240.62546  21677084.422                    21677089.957
 119325270.775 7  92980806.64344  22706827.563                    22706835.914
 11  7 30  0 16 30.0000000  0 10G12G05G04G20G27G28G09G17G02G10
 127383973.294 6  99260279.70844  24240364.953                    24240372.988
 134345269.357 6 104684682.28142  25565055.352                    25565070.484
 104601804.289 8  81508102.59746  19905043.719                    19905051.172
 129591745.715 5 100980519.91442  24660466.781                    24660475.969
 117855867.703 7  91835789.44545  22427224.414                    22427232.207
 117414702.501 7  91492066.80645  22343263.852                    22343271.074
 115982300.077 7  90375903.53345  22070703.422                    22070711.824
 113991456.015 7  88824634.81546  21691827.305                    21691833.895
 113849721.651 8  88714112.11446  21664842.414                    21664848.191
 119237519.158 7  92912428.81144  22690128.820                    22690137.246
 11  7 30  0 17  0.0000000  0 10G12G05G04G20G27G28G09G17G02G10
 127287026.735 6  99184736.98744  24221917.172                    24221924.727
 134247226.037 6 104608285.07543  25546398.758                    25546411.852
 104614741.163 8  81518183.28046  19907505.570                    19907513.148
 129649695.371 6 101025675.49942  24671494.125                    24671502.949
 117868205.541 7  91845403.31945  22429572.234                    22429580.074
 117482499.079 7  91544895.25745  22356165.133                    22356172.344
 115984912.832 7  90377939.42345  22071201.273                    22071209.211
 114026429.450 7  88851886.82046  21698482.398                    21698489.781
 113785733.764 8  88664251.44746  21652665.727                    21652671.680
 119149968.828 7  92844207.83844  22673468.273                    22673477.086
 11  7 30  0 17 30.0000000  0 10G12G05G04G20G27G28G09G17G02G10
 127190096.673 7  99109207.10744  24203471.969                    24203479.676
 134148988.316 7 104531736.39743  25527704.688                    25527718.090
 104628209.309 8  81528677.93346  19910068.578                    19910076.027
 129708083.513 6 101071172.74043  24682605.945                    24682614.188
 117881009.030 7  91855380.03345  22432008.453                    22432016.387
 117550654.736 7  91598003.51344  22369134.430                    22369142.340
 115988155.622 7  90380466.26345  22071818.297                    22071826.316
 114061487.005 7  88879204.37846  21705153.711                    21705160.449
 113722090.251 8  88614659.11746  21640554.719                    21640560.641
 119062623.158 7  92776146.33444  22656847.430                    22656855.867
 11  7 30  0 18  0.0000000  0 10G12G05G04G20G27G28G09G17G02G10
 127093184.766 7  99033691.38044  24185030.242                    24185038.625
 134050557.801 6 104455037.49543  25508973.727                    25508987.109
 104642207.262 8  81539585.42146  19912732.219                    19912739.348
 129766908.604 6 101117010.43443  24693799.422                    24693807.605
 117894277.076 7  91865718.73945  22434533.172                    22434541.531
 117619168.774 7  91651390.99945  22382172.547                    22382179.703
 115992027.654 7  90383483.41745  22072554.664                    22072562.836
 114096628.217 7  88906587.12746  21711840.445                    21711847.473
 113658791.716 8  88565335.60846  21628509.578                    21628515.258
 118975485.541 7  92708246.94944  22640265.352                    22640274.293
 11  7 30  0 18 30.0000000  0 10G12G05G04G20G27G28G09G17G02G10
 126996293.166 6  98958191.51344  24166592.055                    24166600.105
 133951936.859 6 104378190.11543  25490207.148                    25490219.883
 104656734.031 8  81550904.97046  19915496.563                    19915503.684
 129826169.118 6 101163187.45943  24705076.867                    24705084.930
 117908008.921 7  91876418.84745  22437146.313                    22437154.684
 117688040.642 7  91705057.34744  22395277.898                    22395285.953
 115996528.354 7  90386990.44945  22073411.430                    22073419.309
 114131853.931 7  88934035.72346  21718543.359                    21718551.047
 113595839.232 8  88516281.74446  21616530.227                    21616535.727
 118888559.378 7  92640512.32544  22623723.703                    22623733.281
 11  7 30  0 19  0.0000000  0 10G12G05G04G20G27G28G09G17G02G10
 126899423.923 7  98882709.04844  24148158.594                    24148166.141
 133853127.610 6 104301196.18043  25471403.672                    25471417.082
 104671788.112 8  81562635.42446  19918361.406                    19918368.617
 129885863.418 5 101209702.47142  24716436.250                    24716444.078
 117922203.143 7  91887479.24745  22439847.695                    22439856.141
 117757269.581 7  91759001.91744  22408451.797                    22408459.652
 116001656.658 7  90390986.50045  22074387.602                    22074395.848
 114167163.491 8  88961549.64446  21725262.922                    21725270.301
 113533233.642 8  88467498.19146  21604616.453                    21604622.242
 118801848.060 7  92572945.10744  22607223.078                    22607231.898
 11  7 30  0 19 30.0000000  0 10G12G05G04G20G27G28G09G17G02G10
 126802578.814 7  98807245.37843  24129729.398                    24129737.488
 133754132.715 6 104224057.43143  25452565.469                    25452578.621
 104687367.882 8  81574775.48946  19921325.930                    19921333.660
 129945989.944 5 101256554.25942  24727878.211                    24727886.121
 117936858.574 7  91898899.04945  22442636.188                    22442644.957
 117826854.628 7  91813223.97544  22421693.297                    22421701.520
 116007411.423 7  90395470.71845  22075482.039                    22075490.391
 114202557.063 8  88989129.03546  21731998.195                    21732005.594
 113470975.851 8  88418985.64846  21592769.188                    21592774.723
 118715354.692 7  92505547.74144  22590764.188                    22590773.246
 11  7 30  0 20  0.0000000  0 10G12G05G04G20G27G28G09G17G02G10
 126705759.761 6  98731802.00543  24111305.164                    24111313.949
 133654953.474 5 104146775.12542  25433692.641                    25433705.234
 104703471.707 8  81587323.92346  19924390.617                    19924398.094
 130006546.901 5 101303741.44042  24739401.711                    24739410.410
 117951974.123 7  91910677.35445  22445512.781                    22445521.152
 117896795.302 7  91867723.13244  22435003.352                    22435010.719
 116013791.828 7  90400442.43645  22076696.797                    22076704.516
 114238034.659 8  89016773.89346  21738749.266                    21738756.031
 113409066.092 8  88370744.29446  21580988.086                    21580993.910
 118629082.448 7  92438322.65945  22574346.906                    22574355.902
 11  7 30  0 20 30.0000000  0 10G12G05G04G20G27G28G09G17G02G10
 126608968.839 6  98656380.59144  24092886.070                    24092895.102
 133555593.000 5 104069351.57743  25414784.688                    25414797.746
 104720099.052 8  81600280.28846  19927554.672                    19927562.035
 130067533.268 5 101351263.27042  24751006.945                    24751015.348
 117967549.344 7  91922813.85945  22448476.719                    22448484.992
 117967091.378 7  91922499.25344  22448379.805                    22448387.445
 116020797.955 7  90405901.74545  22078030.094                    22078037.578
 114273597.285 8  89044485.01846  21745516.797                    21745524.047
 113347505.768 8  88322775.23446  21569273.703                    21569279.309
 118543035.707 7  92371273.30145  22557972.438                    22557982.023
 11  7 30  0 21  0.0000000  0 10G12G05G04G20G27G28G09G17G02G10
 126512208.072 7  98580982.62344  24074473.398                    24074481.641
 133456052.737 5 103991787.96342  25395841.430                    25395855.055
 104737247.930 8  81613643.04446  19930817.742                    19930825.172
 130128947.056 5 101399118.19942  24762693.031                    24762702.066
 117983582.521 7  91935307.20545  22451527.258                    22451535.988
 118037741.626 7  91977551.31745  22461824.203                    22461832.129
 116028427.863 7  90411847.11745  22079482.039                    22079489.898
 114309244.214 7  89072261.82546  21752300.258                    21752307.457
 113286295.390 8  88275078.85546  21557625.516                    21557631.344
 118457217.348 7  92304401.90844  22541642.320                    22541650.980
 11  7 30  0 21 30.0000000  0 10G12G05G04G20G27G28G09G17G02G10
 126415478.812 7  98505609.23243  24056066.859                    24056074.320
 133356334.942 4 103914086.10842  25376864.508                    25376879.832
 104754916.522 8  81627410.77146  19934179.609                    19934187.742
 130190786.146 5 101447304.37342  24774461.133                    24774469.941
 118000072.336 7  91948156.38445  22454665.500                    22454673.668
 118108745.156 7  92032878.67645  22475335.992                    22475344.164
 116036680.455 7  90418277.67045  22081051.633                    22081060.566
 114344975.513 8  89100104.37746  21759099.648                    21759107.008
 113225435.445 8  88227655.55246  21546044.609                    21546050.504
 118371630.367 7  92237710.78644  22525355.289                    22525363.848
 11  7 30  0 22  0.0000000  0 10G12G05G04G20G27G28G09G17G02G10
 126318783.065 6  98430261.96843  24037665.695                    24037673.641
 133256441.967 4 103836247.68752  25357856.375                    25357870.766
 104773103.614 8  81641582.52646  19937640.742                    19937648.461
 130253049.196 5 101495821.04952  24786308.914                    24786318.152
 118017017.566 7  91961360.43545  22457890.141                    22457898.141
 118180101.281 7  92088480.79744  22488914.117                    22488922.430
 116045554.926 7  90425192.82145  22082741.508                    22082749.625
 114380791.067 8  89128012.58646  21765915.438                    21765922.582
 113164926.512 8  88180505.76146  21534530.219                    21534535.836
 118286278.095 7  92171202.58745  22509112.914                    22509122.184
 11  7 30  0 22 30.0000000  0 10G12G05G04G20G27G28G09G17G02G10
 126222122.777 7  98354942.32343  24019271.477                    24019279.266
 133156376.00915 103758274.52952  25338812.789                    25338828.234
 104791807.380 8  81656156.88046  19941200.086                    19941207.527
 130315734.213 5 101544666.44842  24798236.805                    24798247.438
 118034417.046 7  91974918.45045  22461201.078                    22461209.492
 118251808.977 7  92144356.86245  22502560.031                    22502568.289
 116055049.828 7  90432591.41945  22084547.297                    22084555.832
 114416690.842 7  89155986.42246  21772746.367                    21772753.898
 113104769.330 8  88133630.05846  21523082.180                    21523088.219
 118201163.979 7  92104879.95244  22492916.508                    22492925.285
 11  7 30  0 23  0.0000000  0 10G12G05G04G20G27G28G09G17G02G10
 126125500.085 7  98279651.93343  24000884.680                    24000892.949
 133056138.68315 103680167.76353  25319739.469                    25319753.254
 104811026.325 8  81671132.67746  19944857.344                    19944864.969
 130378839.734 5 101593839.52742  24810246.273                    24810255.898
 118052269.497 7  91988829.41245  22464598.281                    22464607.215
 118323867.412 7  92200506.22244  22516272.453                    22516280.164
 116065164.333 7  90440472.82945  22086472.602                    22086480.801
 114452675.323 8  89184026.25646  21779594.297                    21779601.250
 113044964.688 8  88087029.07246  21511702.188                    21511707.711
 118116291.311 7  92038745.44044  22476766.352                    22476774.230
 11  7 30  0 23 30.0000000  0 10G12G05G04G20G27G28G09G17G02G10
 126028916.806 7  98204392.27743  23982505.594                    23982513.598
 132955732.37715 103601929.32052  25300632.891                    25300646.289
 104830758.627 8  81686508.48646  19948612.758                    19948620.031
 130442363.490 5 101643338.59442  24822335.352                    24822344.230
 118070573.252 7  92003092.04345  22468081.969                    22468090.145
 118396275.548 7  92256928.10444  22530051.297                    22530059.031
 116075896.816 7  90448835.75845  22088515.367                    22088523.121
 114488744.085 8  89212131.77146  21786457.930                    21786465.059
 112985512.875 8  88040703.00346  21500388.578                    21500394.176
 118031662.854 7  91972801.24945  22460661.469                    22460670.285
 11  7 30  0 24  0.0000000  0 10G12G05G04G20G27G28G09G17G02G10
 125932374.509 6  98129164.56944  23964134.469                    23964142.492
 132855159.195 6 103523560.90642  25281494.211                    25281507.453
 104851002.547 8  81702282.95746  19952464.305                    19952472.160
 130506303.757 5                  24834502.242
 118089327.090 7  92017705.39445  22471649.977                    22471658.617
 118469032.627 7  92313621.85444  22543896.453                    22543904.742
 116087246.067 7  90457679.30345  22090674.070                    22090682.867
 114524897.356 8  89240303.12046  21793337.453                    21793345.246
 112926414.315 8  87994652.20346  21489142.297                    21489148.641
 117947282.119 7  91907050.06544  22444604.461                    22444613.305
 11  7 30  0 24 30.0000000  0 10G12G05G04G20G27G28G09G17G02G10
 125835875.602 6  98053970.62843  23945771.414                    23945778.879
 132754422.026 6 103445064.54943  25262324.930                    25262337.902
 104871757.017 8  81718455.25946  19956413.961                    19956421.523
 130570659.569 5                  24846748.734
 118108530.150 7  92032668.77645  22475304.961                    22475312.840
 118542137.998 7  92370587.00544  22557807.430                    22557816.125
 116099211.389 7  90467002.91545  22092951.633                    22092959.801
 114561135.753 8  89268540.81146  21800233.523                    21800240.484
 112867670.157 8  87948877.55946  21477963.750                    21477969.789
 117863152.836 7  91841494.83344  22428595.109                    22428603.953
 11  7 30  0 25  0.0000000  0 10G12G05G04G20G27G28G09G17G02G10
 125739422.534 7  97978812.42844  23927416.602                    23927424.785
 132653523.249 6 103366442.30943  25243123.742                    25243137.441
 104893020.571 8  81735024.25946  19960460.141                    19960467.488
 130635428.84215                  24859073.563
 118128181.463 7  92047981.46145  22479043.727                    22479052.816
 118615591.143 7  92427823.15144  22571785.719                    22571793.801
 116111791.722 7  90476805.73645  22095345.906                    22095354.063
 114597459.183 8  89296844.76546  21807145.766                    21807152.859
 112809281.489 8  87903379.92646  21466852.484                    21466858.824
 117779278.620 7  91776138.34244  22412634.156                    22412642.547
 11  7 30  0 25 30.0000000  0 10G12G05G04G20G27G28G09G17G02G10
 125643017.424 7  97903691.60944  23909071.352                    23909079.480
 132552465.210 6 103287695.90243  25223894.281                    25223906.336
 104914791.775 8  81751988.82546  19964603.211                    19964610.461
 130700610.37415                  24871478.148
 118148279.572 7  92063642.29545  22482868.039                    22482876.738
 118689391.172 7  92485329.59944  22585829.477                    22585837.598
 116124986.036 7  90487086.99745  22097856.719                    22097864.648
 114633868.221 8  89325215.42246  21814073.828                    21814081.703
 112751248.801 8  87858159.67146  21455809.578                    21455815.141
 117695662.849 7  91710983.23345  22396722.539                    22396731.160
 11  7 30  0 26  0.0000000  0 10G12G05G04G20G27G28G09G17G02G10
 125546661.564 7  97828609.14944  23890735.234                    23890743.234
 132451249.331 6 103208826.49243  25204632.297                    25204645.613
 104937068.379 8  81769347.21246  19968842.633                    19968850.082
 130766201.26615                  24883959.602
 118168822.663 7  92079649.86345  22486778.070                    22486786.313
 118763536.439 7  92543105.09244  22599939.102                    22599946.789
 116138792.119 7  90497844.96045  22100483.492                    22100491.629
 114670362.103 7  89353652.18946  21821018.680                    21821025.938
 112693572.217 8  87813216.90246  21444834.188                    21444839.863
 117612308.103 7  91646031.53545  22380860.531                    22380869.211
 11  7 30  0 26 30.0000000  0 10G12G05G04G20G27G28G09G17G02G10
 125450357.049 7  97753566.72744  23872409.406                    23872417.301
 132349878.249 6 103129836.09643  25185342.352                    25185355.500
 104959848.704 8  81787098.09946  19973177.180                    19973184.809
 130832199.832 5                  24896518.258
 118189809.365 7  92096003.10345  22490771.563                    22490780.047
 118838026.683 7  92601149.38144  22614114.164                    22614122.051
 116153208.838 7  90509078.74245  22103227.055                    22103235.785
 114706941.359 8  89382155.47646  21827979.430                    21827986.762
 112636252.318 8  87768552.06446  21433926.039                    21433931.813
 117529217.941 7  91581285.99744  22365049.156                    22365057.695
 11  7 30  0 27  0.0000000  0 10G12G05G04G20G27G28G09G17G02G10
 125354105.906 7  97678565.86344  23854093.313                    23854101.582
 132248354.898 6 103050727.07543  25166023.008                    25166035.348
 104983131.415 8  81805240.46946  19977607.680                    19977615.449
 130898604.79015                  24909155.469
 118211238.621 7  92112701.19645  22494849.922                    22494857.863
 118912860.678 7  92659461.52744  22628354.617                    22628362.340
 116168235.260 7  90520787.61445  22106086.297                    22106094.711
 114743606.200 7  89410725.46646  21834956.984                    21834964.109
 112579289.929 8  87724165.82046  21423086.680                    21423092.379
 117446396.077 7  91516749.52845  22349288.906                    22349297.391
 11  7 30  0 27 30.0000000  0 10G12G05G04G20G27G28G09G17G02G10
 125257910.367 7  97603608.33844  23835788.203                    23835795.859
 132146680.952 6 102971500.64543  25146675.133                    25146687.449
 105006914.381 8  81823772.64446  19982133.445                    19982141.434
 130965413.90815                  24921867.695
 118233108.743 7  92129742.80845  22499011.391                    22499019.695
 118988037.311 7  92718040.67944  22642659.750                    22642667.895
 116183869.828 7  90532970.36945  22109061.828                    22109069.832
 114780356.552 7  89439362.09545  21841950.461                    21841957.270
 112522685.179 8  87680058.24546  21412315.258                    21412321.109
 117363845.246 7  91452424.24245  22333579.938                    22333588.715
 11  7 30  0 28  0.0000000  0 10G12G05G04G20G27G28G09G17G02G10
 125161772.670 7  97528695.87244  23817493.977                    23817501.934
 132044858.882 6 102892158.92543  25127299.188                    25127311.660
 105031196.290 8  81842693.60846  19986754.813                    19986761.926
 131032625.40015                  24934659.141
 118255418.406 7  92147126.92145  22503256.828                    22503265.090
 119063555.877 7  92776886.22244  22657030.828                    22657038.906
 116200111.579 7  90545626.26045  22112152.141                    22112160.793
 114817192.862 7  89468065.68246  21848959.828                    21848967.199
 112466438.965 8  87636230.05446  21401612.070                    21401617.820
 117281569.085 7  91388312.99145  22317923.523                    22317931.395
 11  7 30  0 28 30.0000000  0 10G12G05G04G20G27G28G09G17G02G10
 125065694.583 7  97453829.86844  23799210.258                    23799219.027
 131942891.017 6 102812703.50143  25107894.555                    25107907.625
 105055975.275 8  81862001.90846  19991469.750                    19991477.117
 131100237.501 5                  24947523.266
 118278165.940 7  92164852.23445  22507585.156                    22507593.773
 119139415.547 7  92835997.60244  22671467.445                    22671474.348
 116216958.645 7  90558753.81245  22115358.258                    22115366.637
 114854115.030 7  89496836.18245  21855985.953                    21855993.191
 112410551.620 7  87592681.49446  21390976.758                    21390982.457
 117199570.863 7  91324418.32845  22302319.555                    22302328.184
 11  7 30  0 29  0.0000000  0 10G12G05G04G20G27G28G09G17G02G10
 124969678.264 6  97379011.99144  23780939.102                    23780946.820
 131840779.603 6 102733136.27743  25088463.984                    25088476.574
 105081249.368 8  81881696.00646  19996279.273                    19996286.688
 131168248.11515                  24960465.125
 118301349.949 7  92182917.66645  22511997.469                    22512005.324
 119215615.046 7  92895373.75644  22685967.211                    22685974.535
 116234409.467 8  90572351.82445  22118679.531                    22118687.324
 114891123.424 7  89525673.88445  21863028.531                    21863035.691
 112355023.703 8  87549413.01146  21380410.039                    21380416.164
 117117853.599 7  91260742.57945  22286769.211                    22286778.070
 11  7 30  0 29 30.0000000  0 10G12G05G04G20G27G28G09G17G02G10
 124873726.024 7  97304244.04744  23762680.258                    23762687.922
 131738527.277 6 102653459.34443  25069006.023                    25069018.410
 105107017.156 8  81901774.80146  20001182.438                    20001190.047
 131236655.55315                  24973484.492
 118324969.234 7  92201322.26345  22516491.219                    22516499.957
 119292153.246 7  92955013.83944  22700531.430                    22700539.629
 116252462.793 7  90586419.33745  22122114.734                    22122123.086
 114928218.250 7  89554578.91945  21870087.406                    21870094.703
 112299856.129 8  87506425.31146  21369912.055                    21369917.199
 117036421.162 7  91197288.76945  22271272.734                    22271281.699
 11  7 30  0 30  0.0000000  0 10G12G05G04G20G27G28G09G17G02G10
 124777839.594 6  97229527.41544  23744433.539                    23744441.316
 131636136.714 6 102573674.70743  25049520.797                    25049534.027
 105133276.695 8  81922236.77646  20006178.984                    20006186.695
 131305458.03815                  24986576.680
 118349022.094 7  92220064.71845  22521068.828                    22521077.348
 119369029.572 7  93014917.40944  22715160.641                    22715168.898
 116271117.171 7  90600955.19045  22125664.938                    22125672.648
 114965399.694 7  89583551.45946  21877162.781                    21877169.723
 112245049.207 8  87463718.64346  21359482.750                    21359488.520
 116955276.803 7  91134059.44245  22255831.516                    22255840.523
 11  7 30  0 30 30.0000000  0 10G12G05G04G20G27G28G09G17G02G10
 124682021.099 7  97154863.69544  23726199.758                    23726207.254
 131533609.364 6 102493783.55543  25030010.398                    25030023.598
 105160026.114 8  81943080.47546  20011269.984                    20011277.242
 131374653.209 5                  24999744.477
 118373506.832 7  92239143.70545  22525727.813                    22525736.559
 119446242.617 7  93075083.33844  22729853.836                    22729861.906
 116290370.780 7  90615957.98045  22129328.414                    22129336.449
 115002667.974 7  89612591.66046  21884254.586                    21884261.785
 112190603.055 8  87421293.08846  21349121.625                    21349127.699
 116874423.395 7  91071056.82845  22240445.359                    22240454.426
 11  7 30  0 31  0.0000000  0 10G12G05G04G20G27G28G09G17G02G10
 124586272.803 6  97080254.65144  23707979.305                    23707986.652
 131430948.174 6 102413788.00643  25010475.797                    25010487.609
 105187263.791 8  81964304.63346  20016452.695                    20016460.176
 131444239.423 5                  25012986.039
 118398422.045 7  92258558.11045  22530469.602                    22530477.859
 119523791.194 7  93135510.73044  22744610.531                    22744619.117
 116310222.401 7  90631426.75445  22133105.375                    22133114.352
 115040023.015 7  89641699.46446  21891362.859                    21891370.414
 112136518.158 8  87379149.03446  21338829.742                    21338836.289
 116793864.548 7  91008283.75045  22225115.461                    22225123.941
 11  7 30  0 31 30.0000000  0 10G12G05G04G20G27G28G09G17G02G10
 124490596.802 7  97005701.97944  23689772.328                    23689780.504
 131328155.340 6 102333689.93743  24990913.914                    24990925.852
 105214987.764 8  81985907.72146  20021728.664                    20021735.910
 131514214.667 5                  25026302.523
 118423766.256 7  92278306.82345  22535292.203                    22535300.863
 119601674.656 7  93196199.08344  22759432.297                    22759439.875
 116330670.073 7  90647359.98845  22136997.109                    22137005.246
 115077465.023 7  89670875.03245  21898488.148                    21898495.176
 112082795.268 8  87337287.05446  21328606.641                    21328613.047
 116713603.480 7  90945742.68845  22209842.625                    22209851.176
 11  7 30  0 32  0.0000000  0 10G12G05G04G20G27G28G09G17G02G10
 124394994.891 7  96931207.03244  23671580.094                    23671587.934
 131225233.130 6 102253491.09043  24971328.289                    24971340.617
 105243196.126 8  82007888.25246  20027096.852                    20027104.074
 131584576.711 6                  25039691.047
 118449537.597 7  92298388.34445  22540196.984                    22540205.113
 119679891.679 7  93257147.32844  22774316.055                    22774323.949
 116351712.141 7  90663756.37545  22141001.094                    22141009.566
 115114994.059 7  89700118.41245  21905629.805                    21905636.785
 112029434.453 8  87295707.21546  21318452.398                    21318458.387
 116633643.071 7  90883435.92745  22194626.367                    22194635.008
 11  7 30  0 32 30.0000000  0 10G12G05G04G20G27G28G09G17G02G10
 124299469.557 7  96856771.75844  23653402.539                    23653410.258
 131122184.250 6 102173193.50043  24951718.930                    24951730.922
 105271887.036 8  82030244.80146  20032556.023                    20032563.605
 131655323.971 5                  25053153.680
 118475734.713 7  92318801.65045  22545182.430                    22545190.066
 119758441.189 7  93318354.68644  22789263.641                    22789271.477
 116373347.123 7  90680614.77245  22145118.086                    22145126.434
 115152610.568 7  89729429.95245  21912788.102                    21912794.965
 111976436.344 8  87254410.00346  21308367.664                    21308373.016
 116553987.053 7  90821366.32545  22179468.930                    22179477.098
 11  7 30  0 33  0.0000000  0 10G12G05G04G20G27G28G09G17G02G10
 124204023.198 7  96782398.00744  23635239.695                    23635247.332
 131019011.172 6 102092799.17043  24932084.828                    24932097.359
 105301059.331 8  82052976.45246  20038107.984                    20038115.152
 131726454.987 5                  25066689.945
 118502356.405 7  92339545.78645  22550247.789                    22550256.094
 119837322.496 7  93379820.57844  22804274.258                    22804282.418
 116395573.648 7  90697934.12245  22149347.758                    22149356.195
 115190315.302 7  89758810.23446  21919962.891                    21919970.109
 111923801.960 8  87213396.21646  21298351.258                    21298356.867
 116474638.763 7  90759536.52045  22164369.203                    22164377.391
 11  7 30  0 33 30.0000000  0 10G12G05G04G20G27G28G09G17G02G10
 124108657.590 7  96708087.19644  23617092.141                    23617100.219
 130915716.247 6 102012309.83743  24912429.000                    24912440.859
 105330710.519 8  82076081.26646  20043750.039                    20043757.453
 131797967.042 5                  25080297.531
 118529400.645 7  92360619.18445  22555394.578                    22555403.031
 119916534.269 7  93441543.96344  22819347.844                    22819355.844
 116418389.755 7  90715712.88545  22153689.625                    22153697.996
 115228108.200 8  89788259.21746  21927154.242                    21927162.008
 111871531.323 8  87172665.87046  21288404.453                    21288410.164
 116395601.414 7  90697949.01145  22149328.313                    22149336.918
 11  7 30  0 34  0.0000000  0 10G12G05G04G20G27G28G09G17G02G10
 124013375.251 7  96633841.27644  23598960.852                    23598967.984
 130812302.108 6 101931727.61843  24892749.133                    24892760.887
 105360838.865 8  82099557.88746  20049483.156                    20049490.848
 131869858.66015                  25093978.250
 118556865.886 6  92382020.64245  22560620.492                    22560629.031
 119996075.481 7  93503524.06144  22834484.117                    22834492.184
 116441793.944 7  90733949.89045  22158143.313                    22158151.285
 115265989.434 7  89817777.02445  21934362.984                    21934370.629
 111819624.764 8  87132219.22146  21278527.227                    21278533.066
 116316878.483 7  90636606.49145  22134347.891                    22134356.801
 11  7 30  0 34 30.0000000  0 10G12G05G04G20G27G28G09G17G02G10
 123918178.060 7  96559661.69744  23580845.023                    23580852.883
 130708771.012 7 101851054.26343  24873048.016                    24873059.820
 105391442.866 8  82123405.15346  20055306.969                    20055314.637
 131942127.34814                  25107731.523
 118584750.724 7  92403749.05845  22565926.820                    22565935.406
 120075944.977 7  93565759.95844  22849683.336                    22849690.707
 116465784.386 7  90752643.70145  22162708.766                    22162716.508
 115303959.520 7  89847364.09545  21941588.922                    21941595.605
 111768082.836 8  87092056.69046  21268718.844                    21268724.633
 116238473.367 7  90575511.62545  22119427.641                    22119436.102
 11  7 30  0 35  0.0000000  0  9G12G05G04G27G28G09G17G02G10
 123823068.499 7  96485550.41544  23562745.914                    23562753.746
 130605125.621 6 101770291.82143  24853324.117                    24853336.703
 105422520.317 8  82147621.34546  20061221.000                    20061228.207
 118613053.481 6  92425803.13245  22571313.039                    22571321.434
 120156141.869 7  93628250.98644  22864943.648                    22864952.172
 116490359.411 7  90771793.05745  22167384.797                    22167393.297
 115342018.864 7  89877020.70345  21948831.313                    21948838.566
 111716905.936 8  87052178.60946  21258980.414                    21258986.156
 116160389.391 7  90514667.00045  22104569.258                    22104577.750
 11  7 30  0 35 30.0000000  0  9G12G05G04G27G28G09G17G02G10
 123728048.667 7  96411509.03944  23544664.195                    23544672.129
 130501368.289 6 101689442.14943  24833580.031                    24833591.559
 105454069.388 8  82172205.02646  20067224.547                    20067231.922
 118641772.284 7  92448181.37145  22576777.898                    22576786.301
 120236664.685 7  93690995.98244  22880266.539                    22880275.082
 116515517.379 7  90791396.62545  22172172.461                    22172180.770
 115380166.914 7  89906746.42545  21956090.313                    21956097.855
 111666094.188 8  87012585.05546  21249311.484                    21249317.281
 116082629.474 7  90454074.89145  22089771.977                    22089780.563
 11  7 30  0 36  0.0000000  0 10G12G05G04G20G27G28G09G17G02G10
 123633120.033 7  96337538.70444  23526600.039                    23526608.387
 130397500.694 6 101608506.57643  24813814.438                    24813826.520
 105486087.033 8  82197153.83346  20073317.320                    20073324.816
 132161171.52415                  25149414.453
 118670904.596 7  92470881.84345  22582321.563                    22582329.586
 120317511.168 7  93753993.16844  22895651.781                    22895659.809
 116541255.515 7  90811452.28045  22177070.352                    22177078.723
 115418403.607 7  89936541.23045  21963366.531                    21963374.402
 111615647.178 8  86973275.72346  21239711.445                    21239716.957
 116005195.828 7  90393737.01645  22075036.555                    22075045.098
 11  7 30  0 36 30.0000000  0 10G12G05G04G20G27G28G09G17G02G10
 123538284.792 7  96263641.18044  23508553.469                    23508561.023
 130293525.456 6 101527487.13143  24794028.195                    24794040.180
 105518571.771 8  82222466.61646  20079498.938                    20079506.391
 132234927.60614                  25163448.594
 118700448.921 7  92493903.35545  22587943.750                    22587952.129
 120398680.669 7  93817242.06844  22911097.633                    22911106.020
 116567572.083 7  90831958.69345  22182078.133                    22182086.441
 115456729.394 7  89966405.45545  21970659.547                    21970667.387
 111565565.568 8  86934251.09946  21230181.344                    21230186.871
 115928091.965 7  90333656.10945  22060364.648                    22060372.957
 11  7 30  0 37  0.0000000  0 10G12G05G04G20G27G28G09G17G02G10
 123443545.943 7  96189818.72144  23490525.250                    23490532.906
 130189445.468 6 101446386.10743  24774222.750                    24774234.574
 105551522.047 8  82248142.14346  20085769.375                    20085777.012
 132309050.51815                  25177554.266
 118730403.710 7  92517244.71845  22593643.930                    22593652.398
 120480172.506 7  93880742.12944  22926605.664                    22926613.340
 116594465.515 7  90852914.60345  22187195.891                    22187204.051
 115495144.851 7  89996339.56145  21977969.750                    21977978.020
 111515849.792 8  86895511.55646  21220720.625                    21220726.406
 115851321.757 7  90273835.20245  22045755.469                    22045763.906
 11  7 30  0 37 30.0000000  0 10G12G05G04G20G27G28G09G17G02G10
 123348905.389 7  96116072.90144  23472515.703                    23472523.801
 130085263.374 6 101365205.40642  24754397.328                    24754408.523
 105584936.154 8  82274179.10846  20092127.836                    20092135.031
 132383538.52715                  25191731.914
 118760767.503 7  92540904.77145  22599421.438                    22599430.867
 120561985.507 7  93944492.44344  22942173.469                    22942181.961
 116621934.240 7  90874318.76845  22192423.109                    22192431.367
 115533650.513 7  90026343.95545  21985297.820                    21985305.164
 111466500.612 8  86857057.65846  21211329.273                    21211335.309
 115774888.804 7  90214277.09045  22031210.711                    22031219.367
 11  7 30  0 38  0.0000000  0 10G12G05G04G20G27G28G09G17G02G10
 123254365.248 7  96042405.30044  23454525.219                    23454533.117
 129980981.683 6 101283947.17042  24734552.883                    24734564.137
 105618811.609 8  82300575.56346  20098574.039                    20098581.469
 132458389.09114                  25205971.555
 118791538.445 7  92564882.08745  22605277.047                    22605286.586
 120644118.150 7  94008491.83144  22957803.297                    22957811.141
 116649975.882 7  90896169.35745  22197759.172                    22197767.895
 115572246.675 7  90056418.86646  21992642.383                    21992650.383
 111417518.119 8  86818889.50346  21202008.523                    21202013.973
 115698796.134 7  90154984.13445  22016731.055                    22016739.008
 11  7 30  0 38 30.0000000  0 10G12G05G04G20G27G28G09G17G02G10
 123159927.950 7  95968817.83944  23436554.625                    23436562.199
 129876603.016 6 101202613.36043  24714690.867                    24714701.262
 105653146.979 8  82327330.38846  20105107.508                    20105114.930
 132533600.45415                  25220286.422
 118822715.031 7  92589175.49045  22611210.094                    22611218.723
 120726569.578 7  94072739.64344  22973492.797                    22973501.133
 116678589.190 7  90918465.41945  22203204.320                    22203212.488
 115610933.624 7  90086564.51745  22000004.227                    22000011.496
 111368902.977 8  86781007.58246  21192757.813                    21192763.082
 115623047.004 7  90095958.87145  22002316.492                    22002324.996
 11  7 30  0 39  0.0000000  0 10G12G05G04G20G27G28G09G17G02G10
 123065595.613 7  95895312.16444  23418604.000                    23418611.512
 129772129.358 6 101121205.51243  24694808.703                    24694820.352
 105687939.687 8  82354441.58146  20111728.563                    20111735.867
 132609170.08715                  25234666.672
 118854295.063 6  92613783.26845  22617219.633                    22617228.457
 120809338.251 7  94137234.64044  22989243.516                    22989252.125
 116707771.401 7  90941204.77045  22208757.188                    22208765.688
 115649711.400 7  90116780.95745  22007382.859                    22007390.301
 111320654.746 8  86743411.57146  21183576.320                    21183581.648
 115547644.247 7  90037203.52545  21987967.492                    21987975.891
 11  7 30  0 39 30.0000000  0 10G12G05G04G20G27G28G09G17G02G10
 122971370.693 7  95821890.18844  23400673.328                    23400680.793
 129667563.708 6 101039725.99143  24674910.539                    24674922.371
 105723188.019 8  82381907.80846  20118436.125                    20118444.082
 132685096.04815                  25249114.852
 118886276.663 7  92638703.97345  22623305.492                    22623313.965
 120892422.683 7  94201975.68244  23005053.898                    23005062.102
 116737520.747 7  90964386.05145  22214418.969                    22214426.742
 115688580.359 7  90147068.45345  22014779.273                    22014786.254
 111272773.858 8  86706101.80946  21174464.867                    21174470.477
 115472591.313 7  89978720.75745  21973685.453                    21973693.617
 11  7 30  0 40  0.0000000  0  9G12G05G04G27G28G09G17G02G10
 122877255.894 7  95748554.03044  23382763.484                    23382771.219
 129562908.753 6 100958176.87043  24654995.297                    24655006.793
 105758890.236 8  82409727.71346  20125230.109                    20125238.016
 118918658.566 7  92663936.58445  22629467.680                    22629476.340
 120975822.089 7  94266962.15744  23020924.344                    23020932.770
 116767835.587 7  90988007.97245  22220187.344                    22220195.324
 115727541.033 7  90177427.41145  22022193.336                    22022200.508
 111225261.100 8  86669078.88846  21165423.328                    21165428.688
 115397891.761 7  89920513.34845  21959470.266                    21959478.938
 11  7 30  0 40 30.0000000  0 10G12G05G04G20G27G28G09G17G02G10
 122783253.151 7  95675305.18144  23364875.484                    23364882.734
 129458166.804 6 100876559.96443  24635063.906                    24635075.152
 105795043.946 8  82437899.42746  20132109.961                    20132117.637
 132838009.89815                  25278214.031
 118951438.343 7  92689479.23145  22635705.586                    22635713.742
 121059535.218 7  94332193.10144  23036854.719                    23036862.867
 116798713.643 7  91012068.77145  22226062.680                    22226071.387
 115766593.648 7  90207858.01445  22029624.844                    22029632.363
 111178116.367 8  86632342.74246  21156451.883                    21156457.508
 115323548.523 7  89862583.59545  21945323.523                    21945331.602
 11  7 30  0 41  0.0000000  0  9G12G05G04G27G28G09G17G02G10
 122689363.502 7  95602144.44644  23347008.836                    23347016.387
 129353339.854 6 100794876.81243  24615115.727                    24615126.594
 105831646.415 8  82466420.82246  20139075.055                    20139082.699
 118984613.515 6  92715329.97644  22642018.727                    22642027.129
 121143559.886 7  94397666.78344  23052844.453                    23052851.973
 116830152.338 7  91036566.42545  22232045.477                    22232054.191
 115805737.856 7  90238359.97245  22037073.773                    22037081.813
 111131339.026 8  86595892.87746  21147550.578                    21147556.148
 115249564.136 7  89804933.45445  21931244.172                    21931252.391
 11  7 30  0 41 30.0000000  0  9G12G05G04G27G28G09G17G02G10
 122595590.929 7  95529074.95344  23329164.641                    23329172.379
 129248431.710 6 100713130.37443  24595152.461                    24595162.777
 105868697.001 8  82495291.39846  20146125.492                    20146133.438
 119018183.650 7  92741488.48845  22648407.039                    22648415.305
 121227895.934 7  94463383.12244  23068892.906                    23068900.570
 116862150.862 7  91061500.29345  22238135.320                    22238143.324
 115844975.372 7  90268934.64145  22044540.633                    22044547.746
 111084930.790 8  86559730.63346  21138719.531                    21138724.859
 115175942.814 7  89747566.22345  21917234.961                    21917243.270
 11  7 30  0 42  0.0000000  0  9G12G05G04G27G28G09G17G02G10
 122501936.844 7  95456097.76544  23311342.406                    23311349.797
 129143444.087 6 100631322.02143  24575173.242                    24575184.605
 105906192.841 8  82524508.92746  20153260.555                    20153268.531
 119052146.148 7  92767952.72444  22654869.523                    22654878.254
 121312541.237 7  94529340.41244  23084999.844                    23085008.473
 116894706.219 7  91086868.06645  22244330.133                    22244338.516
 115884305.613 8  90299581.56745  22052025.125                    22052032.277
 111038891.178 8  86523855.62546  21129957.969                    21129963.996
 115102687.219 7  89690483.97645  21903294.836                    21903303.309
 11  7 30  0 42 30.0000000  0  9G12G05G04G27G28G09G17G02G10
 122408403.771 7  95383214.88944  23293544.078                    23293551.418
 129038379.705 6 100549453.84744  24555180.461                    24555191.246
 105944132.078 8  82554071.94946  20160480.172                    20160487.699
 119086499.252 7  92794721.34244  22661406.664                    22661415.402
 121397494.778 7  94595537.89044  23101165.484                    23101174.809
 116927816.484 7  91112668.24545  22250630.789                    22250639.070
 115923728.898 7  90330301.00045  22059526.867                    22059534.152
 110993220.288 8  86488267.94346  21121267.156                    21121273.004
 115029800.469 7  89633689.13445  21889424.703                    21889433.121
 11  7 30  0 43  0.0000000  0 10G12G05G04G20G27G28G09G17G02G10
 122314992.914 7  95310427.24545  23275768.781                    23275776.281
 128933239.826 7 100467526.83643  24535172.992                    24535184.063
 105982510.839 8  82583977.46646  20167783.648                    20167791.094
 133226381.41014                  25352118.102
 119121239.443 7  92821791.57744  22668017.391                    22668026.262
 121482753.580 7  94661973.23044  23117390.438                    23117399.742
 116961478.029 7  91138897.97745  22257036.867                    22257044.664
 115963244.246 7  90361092.16945  22067046.266                    22067054.254
 110947916.555 8  86452966.35646  21112646.281                    21112651.680
 114957284.201 7  89577182.98845  21875625.219                    21875634.008
 11  7 30  0 43 30.0000000  0 10G12G05G04G20G27G28G09G17G02G10
 122221707.895 7  95237737.64244  23258016.625                    23258024.000
 128828028.428 6 100385544.11143  24515151.625                    24515163.023
 106021329.050 8  82614225.41146  20175170.813                    20175178.133
 133305081.24214                  25367094.148
 119156366.562 7  92849163.32044  22674702.102                    22674710.676
 121568318.252 7  94728646.90444  23133673.883                    23133682.180
 116995690.077 7  91165556.67544  22263546.633                    22263555.238
 116002853.568 8  90391956.54445  22074583.445                    22074591.180
 110902982.469 8  86417952.80146  21104095.680                    21104101.297
 114885143.517 7  89520969.49145  21861897.422                    21861905.746
 11  7 30  0 44  0.0000000  0  9G12G05G04G27G28G09G17G02G10
 122128551.172 7  95165148.00444  23240289.805                    23240297.363
 128722748.619 6 100303508.03043  24495117.453                    24495128.453
 106060584.732 8  82644814.24846  20182640.797                    20182648.113
 119191878.760 7  92876835.11645  22681460.016                    22681468.668
 121654187.024 7  94795557.56643  23150013.164                    23150021.828
 117030450.827 7  91192642.94845  22270161.430                    22270169.680
 116042558.056 7  90422895.05445  22082139.539                    22082147.160
 110858417.853 8  86383227.14546  21095615.477                    21095620.820
 114813381.492 7  89465051.05345  21848241.938                    21848249.938
 11  7 30  0 44 30.0000000  0  9G12G05G04G27G28G09G17G02G10
 122035525.132 7  95092660.20344  23222587.352                    23222595.129
 128617402.972 6 100221420.72843  24475071.055                    24475081.344
 106100275.884 8  82675742.41646  20190193.398                    20190201.066
 119227774.025 7  92904805.41645  22688290.547                    22688299.602
 121740358.997 6  94862704.47643  23166411.328                    23166419.828
 117065757.853 7  91220154.88145  22276880.422                    22276888.059
 116082357.264 7  90453907.40045  22089713.000                    22089720.207
 110814222.844 8  86348789.50046  21087205.156                    21087210.828
 114742001.580 7  89409430.37345  21834658.539                    21834666.906
 11  7 30  0 45  0.0000000  0  9G12G05G04G27G28G09G17G02G10
 121942631.551 7  95020275.63144  23204910.344                    23204918.031
 128511993.335 6 100139283.50443  24455011.844                    24455022.656
 106140399.369 8  82707007.46446  20197829.211                    20197836.547
 119264049.605 7  92933072.05245  22695193.875                    22695202.809
 121826832.158 6  94930086.07643  23182866.930                    23182874.949
 117101608.226 7  91248090.20345  22283702.391                    22283710.445
 116122250.826 8  90484993.26245  22097304.922                    22097312.168
 110770397.048 8  86314639.54546  21078865.664                    21078871.277
 114671006.112 7  89354109.24445  21821148.805                    21821156.691
 11  7 30  0 45 30.0000000  0  9G12G05G04G27G28G09G17G02G10
 121849872.378 7  94947995.80144  23187258.469                    23187266.090
 128406522.026 6 100057098.22743  24434940.656                    24434951.754
 106180952.830 8  82738607.54746  20205545.766                    20205553.277
 119300703.339 7  92961633.35445  22702169.188                    22702177.484
 121913604.466 6  94997700.76043  23199379.125                    23199387.203
 117137999.616 7  91276447.09045  22290627.555                    22290635.938
 116162239.167 7  90516152.97945  22104914.203                    22104921.824
 110726940.043 8  86280776.96346  21070595.797                    21070601.414
 114600397.806 7  89299089.82145  21807712.336                    21807720.457
 11  7 30  0 46  0.0000000  0  9G12G05G04G27G28G09G17G02G10
 121757250.367 7  94875822.83844  23169632.625                    23169640.879
 128300991.708 5  99974866.97343  24414859.211                    24414869.945
 106221934.538 8  82770541.33646  20213344.523                    20213352.027
 119337733.381 7  92990487.90345  22709215.156                    22709223.555
 122000674.526 7  95065547.52344  23215948.172                    23215955.984
 117174929.808 7  91305223.80945  22297655.578                    22297663.648
 116202322.832 7  90547386.96245  22112542.000                    22112549.566
 110683852.385 8  86247202.17346  21062396.242                    21062401.707
 114530179.760 7  89244374.49445  21794350.086                    21794358.586
 11  7 30  0 46 30.0000000  0  9G12G05G04G27G28G09G17G02G10
 121664768.221 7  94803758.86345  23152034.438                    23152042.262
 128195405.860 6  99892592.50343  24394766.148                    24394777.609
 106263342.784 8  82802807.49246  20221224.164                    20221231.777
 119375138.158 7  93019634.43044  22716332.922                    22716341.922
 122088041.911 7  95133625.94443  23232573.445                    23232581.262
 117212396.931 7  91334418.93445  22304785.031                    22304793.254
 116242502.665 7  90578695.87045  22120188.320                    22120195.551
 110641134.513 8  86213915.52446  21054267.031                    21054273.086
 114460355.530 7  89189966.03945  21781063.047                    21781071.348
 11  7 30  0 47  0.0000000  0  9G12G05G04G27G28G09G17G02G10
 121572427.482 7  94731805.06444  23134462.563                    23134470.379
 128089766.631 6  99810276.35143  24374664.250                    24374674.953
 106305174.693 8  82835403.78646  20229184.578                    20229192.414
 119412915.026 7  93049070.90445  22723521.523                    22723530.582
 122175704.322 7  95201934.23343  23249255.672                    23249263.305
 117250397.995 7  91364030.12845  22312016.047                    22312024.152
 116282778.583 7  90610079.66745  22127852.281                    22127859.688
 110598785.886 8  86180916.61246  21046208.594                    21046214.652
 114390927.903 7  89135866.61945  21767851.242                    21767859.480
 11  7 30  0 47 30.0000000  0  9G12G05G04G27G28G09G17G02G10
 121480231.087 7  94659963.76645  23116918.031                    23116926.145
 127984076.720 6  99727920.77443  24354552.258                    24354562.547
 106347428.325 8  82868328.67946  20237225.305                    20237232.785
 119451062.201 7  93078795.93444  22730781.391                    22730790.148
 122263660.741 7  95270471.63143  23265993.023                    23266000.840
 117288931.200 7  91394055.95745  22319349.102                    22319357.035
 116323151.215 7  90641538.82645  22135534.625                    22135542.469
 110556806.910 8  86148205.73846  21038220.484                    21038226.285
 114321900.480 7  89082079.04945  21754715.766                    21754724.090
 11  7 30  0 48  0.0000000  0  9G12G05G04G27G28G09G17G02G10
 121388181.377 7  94588236.75645  23099401.938                    23099409.406
 127878338.531 6  99645527.54243  24334430.820                    24334440.992
 106390101.966 8  82901580.86546  20245345.797                    20245353.602
 119489577.787 7  93108808.04145  22738110.328                    22738119.813
 122351909.619 7  95339236.92344  23282786.164                    23282795.016
 117327994.235 7  91424494.64145  22326782.594                    22326790.660
 116363621.381 8  90673073.99245  22143235.500                    22143243.266
 110515197.803 8  86115783.07246  21030302.484                    21030308.199
 114253276.144 7  89028605.57345  21741657.234                    21741664.820
 11  7 30  0 48 30.0000000  0  9G12G05G04G27G28G09G17G02G10
 121296280.982 7  94516626.09145  23081913.719                    23081921.445
 127772555.191 6  99563099.13244  24314300.594                    24314311.313
 106433193.359 8  82935158.56146  20253545.664                    20253553.406
 119528459.875 7  93139105.72745  22745509.945                    22745518.277
 122440449.558 7  95408229.02544  23299635.109                    23299642.742
 117367584.569 7  91455344.21945  22334316.141                    22334324.234
 116404188.883 7  90704684.99845  22150955.578                    22150963.926
 110473958.541 8  86083648.60446  21022455.258                    21022460.332
 114185057.949 7  88975448.56845  21728675.219                    21728683.598
 11  7 30  0 49  0.0000000  0  9G12G05G04G27G28G09G17G02G10
 121204531.742 7  94445133.23145  23064454.250                    23064461.719
 127666729.283 6  99480637.54243  24294162.266                    24294173.277
 106476699.723 8  82969059.62146  20261824.688                    20261832.328
 119567705.739 7  93169686.87845  22752978.008                    22752986.484
 122529278.714 7  95477446.45344  23316538.438                    23316547.000
 117407699.440 7  91486602.50445  22341950.203                    22341957.816
 116444853.944 7  90736372.03245  22158694.352                    22158702.039
 110433088.786 8  86051802.05246  21014677.172                    21014683.121
 114117248.609 7  88922610.15545  21715772.086                    21715780.383
 11  7 30  0 49 30.0000000  0  9G12G05G04G27G28G09G17G02G10
 121112936.347 7  94373760.20945  23047024.711                    23047031.883
 127560863.253 6  99398144.69644  24274016.414                    24274027.031
 106520619.204 8  83003282.58646  20270182.273                    20270189.828
 119607313.580 7  93200550.08045  22760514.375                    22760523.859
 122618395.826 6  95546888.26943  23333496.672                    23333506.094
 117448336.491 7  91518267.71445  22349682.602                    22349690.941
 116485617.008 8  90768135.44145  22166451.344                    22166459.023
 110392588.557 8  86020243.44446  21006970.766                    21006976.230
 114049851.411 7  88870092.90045  21702946.469                    21702954.730
 11  7 30  0 50  0.0000000  0  9G12G05G04G27G28G09G17G02G10
 121021497.177 7  94302508.94445  23029624.039                    23029631.766
 127454959.962 7  99315622.80744  24253864.047                    24253874.133
 106564949.456 8  83037825.62446  20278618.359                    20278625.902
 119647281.161 7  93231693.60544  22768120.070                    22768129.574
 122707799.164 6  95616553.12343  23350509.984                    23350518.699
 117489493.119 7  91550337.78245  22357514.711                    22357523.012
 116526478.766 7  90799975.73345  22174226.477                    22174234.637
 110352458.135 8  85988973.00746  20999334.195                    20999339.582
 113982869.122 7  88817898.94445  21690199.406                    21690208.742
 11  7 30  0 50 30.0000000  0  9G12G05G04G27G28G09G17G02G10
 120930216.513 7  94231381.18945  23012253.859                    23012261.281
 127349021.768 6  99233073.73544  24233704.336                    24233714.855
 106609688.418 8  83072687.14946  20287131.477                    20287139.480
 119687606.191 7  93263115.66845  22775794.156                    22775803.238
 122797487.342 6  95686439.95643  23367576.641                    23367585.523
 117531166.993 7  91582810.89245  22365444.656                    22365453.699
 116567439.675 7  90831893.30745  22182021.500                    22182028.816
 110312697.153 8  85957990.43746  20991767.992                    20991773.602
 113916304.681 7  88766030.57545  21677533.273                    21677541.609
 11  7 30  0 51  0.0000000  0  9G12G05G04G27G28G09G17G02G10
 120839096.582 7  94160378.67045  22994914.063                    22994921.953
 127243051.606 6  99150499.72343  24213538.273                    24213548.914
 106654833.430 8  83107865.06746  20295722.602                    20295730.234
 119728286.338 7  93294814.42745  22783535.109                    22783544.594
 122887458.443 6  95756547.23443  23384698.109                    23384706.629
 117573355.480 7  91615684.99445  22373473.563                    22373481.609
 116608499.852 8  90863888.24245  22189835.133                    22189841.832
 110273305.341 8  85927295.52946  20984271.836                    20984277.680
 113850161.261 7  88714490.26945  21664946.906                    21664955.035
 11  7 30  0 51 30.0000000  0  9G12G05G04G27G28G09G17G02G10
 120748140.356 7  94089503.73645  22977605.758                    22977613.715
 127137052.148 6  99067902.89844  24193368.055                    24193377.539
 106700383.000 8  83143358.23146  20304390.320                    20304398.262
 119769319.875 7  93326788.55245  22791343.914                    22791353.129
 122977711.431 6  95826874.15443  23401873.578                    23401881.449
 117616056.493 7  91648958.47045  22381598.961                    22381607.355
 116649659.822 8  90895960.94245  22197667.875                    22197674.824
 110234283.301 8  85896888.74946  20976846.344                    20976851.438
 113784441.906 7  88663280.40945  21652440.367                    21652448.844
 11  7 30  0 52  0.0000000  0  9G12G05G04G27G28G09G17G02G10
 120657349.927 7  94018757.94545  22960328.922                    22960336.336
 127031026.352 6  98985285.55944  24173191.516                    24173201.453
 106746334.622 8  83179164.68046  20313134.492                    20313142.461
 119810704.566 7  93359036.33745  22799218.289                    22799227.984
 123068244.415 7  95897419.29043  23419100.797                    23419108.715
 117659267.259 7  91682629.17345  22389821.961                    22389829.957
 116690920.133 7  90928111.83445  22205518.867                    22205526.758
 110195630.733 8  85866769.87846  20969490.773                    20969496.051
 113719149.454 7  88612403.20245  21640016.094                    21640024.234
 11  7 30  0 52 30.0000000  0  9G12G05G04G27G28G09G17G02G10
 120566727.628 7  93948143.19845  22943084.352                    22943091.766
 126924976.725 6  98902649.59943  24153011.313                    24153020.879
 106792685.809 8  83215282.47146  20321954.938                    20321962.664
 119852438.002 7  93391555.83345  22807160.781                    22807169.813
 123159055.862 6  95968181.37543  23436380.984                    23436389.938
 117702984.974 7  91716694.88544  22398140.727                    22398149.078
 116732280.823 7  90960340.93645  22213389.750                    22213396.934
 110157347.211 8  85836938.57446  20962205.727                    20962211.133
 113654286.678 7  88561860.80145  21627672.789                    21627681.223
 11  7 30  0 53  0.0000000  0  9G12G05G04G27G28G09G17G02G10
 120476275.967 7  93877661.41445  22925871.547                    22925879.242
 126818905.746 6  98819997.02743  24132825.438                    24132835.695
 106839434.325 8  83251709.88246  20330850.695                    20330858.637
 119894518.147 7  93424345.51544  22815168.680                    22815177.141
 123250144.200 6  96039159.23743  23453715.398                    23453723.652
 117747207.097 7  91751153.64645  22406556.344                    22406564.363
 116773742.845 7  90992648.99245  22221279.453                    22221287.289
 110119432.985 8  85807395.02446  20954990.930                    20954996.641
 113589856.633 7  88511655.59745  21615412.313                    21615420.520
 11  7 30  0 53 30.0000000  0  9G12G05G04G27G28G09G17G02G10
 120385997.643 7  93807314.67945  22908692.297                    22908700.145
 126712816.489 6  98737330.22644  24112638.016                    24112647.988
 106886578.112 8  83288445.28746  20339822.141                    20339829.738
 119936942.945 7  93457403.76644  22823241.578                    22823251.074
 123341507.898 7  96110351.66944  23471101.203                    23471109.914
 117791931.359 7  91786003.66845  22415067.148                    22415075.512
 116815306.318 7  91025036.11045  22229188.734                    22229195.941
 110081888.064 8  85778139.25446  20947846.898                    20947851.996
 113525862.612 7  88461790.15145  21603234.789                    21603243.016
 11  7 30  0 54  0.0000000  0  9G12G05G04G27G28G09G17G02G10
 120295894.902 7  93737104.79045  22891546.195                    22891553.211
 126606711.641 6  98654651.28144  24092446.836                    24092456.730
 106934114.899 8  83325486.94046  20348868.141                    20348875.785
 119979710.022 7  93490728.70744  22831380.242                    22831388.859
 123433145.432 6  96181757.44544  23488539.711                    23488548.031
 117837154.980 7  91821242.80745  22423673.117                    22423680.984
 116856971.746 8  91057502.66545  22237118.141                    22237124.906
 110044712.213 8  85749171.06246  20940772.102                    20940778.000
 113462307.266 7  88412266.52945  21591140.500                    21591148.461
 11  7 30  0 54 30.0000000  0  9G12G05G04G27G28G09G17G02G10
 120205969.659 7  93667033.18245  22874433.539                    22874441.723
 126500593.742 6  98571962.14743  24072252.430                    24072263.141
 106982041.959 8  83362832.68546  20357988.047                    20357995.906
 120022816.615 7  93524318.21544  22839583.227                    22839591.895
 123525054.574 6  96253374.88143  23506029.375                    23506037.574
 117882874.955 7  91856868.72945  22432372.984                    22432381.434
 116898739.629 7  91090049.05945  22245065.648                    22245073.418
 110007904.597 8  85720489.82646  20933767.617                    20933773.457
 113399193.170 7  88363086.73945  21579130.031                    21579138.105
 11  7 30  0 55  0.0000000  0  9G12G05G04G27G28G09G17G02G10
 120116225.454 7  93597102.67645  22857356.461                    22857364.543
 126394465.966 6  98489265.34344  24052057.094                    24052067.246
 107030357.703 8  83400481.30746  20367182.422                    20367190.355
 120066261.299 7  93558171.17144  22847850.617                    22847859.109
 123617234.270 6  96325203.15643  23523569.938                    23523578.926
 117929088.944 7  91892879.58945  22441167.516                    22441175.480
 116940610.134 7  91122675.41745  22253033.289                    22253041.324
 109971466.300 8  85692096.35046  20926833.789                    20926839.480
 113336523.793 7  88314253.48945  21567204.578                    21567212.258
 11  7 30  0 55 30.0000000  0  9G12G05G04G27G28G09G17G02G10
 120026664.271 7  93527314.75345  22840313.602                    22840320.781
 126288330.823 6  98406562.76644  24031860.164                    24031870.285
 107079059.849 8  83438431.02846  20376450.000                    20376457.910
 120110041.420 7  93592285.50744  22856181.305                    22856190.129
 123709682.926 6  96397240.99344  23541163.094                    23541172.512
 117975794.126 7  91929273.19745  22450054.844                    22450063.391
 116982584.045 7  91155382.31845  22261021.047                    22261028.926
 109935396.550 8  85663990.06546  20919969.953                    20919975.641
 113274301.952 7  88265768.97045  21555363.852                    21555372.090
 11  7 30  0 56  0.0000000  0  9G12G05G04G27G28G09G17G02G10
 119937288.474 7  93457671.30245  22823305.672                    22823313.793
 126182190.970 6  98323856.52444  24011662.578                    24011671.984
 107128145.681 8  83476679.72046  20385791.055                    20385798.594
 120154154.618 7  93626659.37744  22864575.938                    22864584.438
 123802398.704 6  96469486.99043  23558805.508                    23558815.203
 118022987.785 7  91966047.42845  22459035.820                    22459044.352
 117024661.588 7  91188169.97745  22269027.898                    22269035.801
 109899695.091 8  85636170.77046  20913176.063                    20913181.641
 113212530.347 7  88217635.28045  21543609.352                    21543617.668
 11  7 30  0 56 30.0000000  0  9G12G05G04G27G28G09G17G02G10
 119848100.420 7  93388174.14245  22806334.258                    22806341.652
 126076048.948 7  98241148.58943  23991464.680                    23991473.984
 107177612.631 8  83515225.39546  20395204.063                    20395211.379
 120198598.254 7  93661290.72944  22873033.391                    22873042.344
 123895379.632 6  96541939.59043  23576500.125                    23576508.668
 118070666.902 7  92003199.96245  22468108.805                    22468117.316
 117066842.985 7  91221038.60845  22277054.742                    22277062.480
 109864361.328 8  85608637.97646  20906452.086                    20906458.012
 113151211.342 7  88169854.26545  21531940.094                    21531948.691
 11  7 30  0 57  0.0000000  0  9G12G05G04G27G28G09G17G02G10
 119759102.714 7  93318825.30945  22789398.063                    22789405.418
 125969907.879 7  98158441.38844  23971265.922                    23971275.648
 107227459.187 8  83554066.86146  20404689.539                    20404697.184
 120243370.603 7  93696178.21744  22881553.125                    22881562.121
 123988624.564 6  96614597.91543  23594243.633                    23594252.648
 118118829.294 7  92040729.05845  22477273.555                    22477282.762
 117109129.089 7  91253988.79045  22285101.648                    22285109.086
 109829395.688 8  85581392.04846  20899798.406                    20899803.805
 113090348.454 7  88122428.67845  21520358.422                    21520367.156
 11  7 30  0 57 30.0000000  0  9G12G05G04G27G28G09G17G02G10
 119670297.832 7  93249626.72745  22772498.977                    22772506.625
 125863770.585 7  98075737.13644  23951068.813                    23951078.230
 107277682.627 8  83593202.01046  20414247.219                    20414254.621
 120288469.192 7  93731319.90944  22890135.102                    22890144.449
 124082131.310 6  96687460.25943  23612037.367                    23612046.375
 118167471.893 7  92078632.33244  22486530.305                    22486538.465
 117151520.383 7  91287020.94545  22293168.648                    22293176.027
 109794797.775 8  85554432.64946  20893214.820                    20893220.480
 113029944.160 7  88075360.43145  21508864.156                    21508872.469
 11  7 30  0 58  0.0000000  0  9G12G05G04G27G28G09G17G02G10
 119581688.284 7  93180580.36845  22755637.727                    22755644.902
 125757640.029 6  97993038.12144  23930873.211                    23930882.410
 107328280.827 8  83632629.18246  20423875.383                    20423882.867
 120333891.664 7  93766713.99144  22898778.867                    22898787.938
 124175898.335 6  96760525.41643  23629880.961                    23629889.402
 118216592.124 7  92116907.80945  22495876.789                    22495885.801
 117194017.220 7  91320135.33245  22301255.406                    22301263.211
 109760567.480 8  85527759.71046  20886700.813                    20886706.465
 112970001.402 7  88028651.82745  21497457.500                    21497466.020
 11  7 30  0 58 30.0000000  0  9G12G05G04G27G28G09G17G02G10
 119493276.412 7  93111688.02045  22738812.820                    22738820.438
 125651518.678 6  97910346.29744  23910678.227                    23910688.043
 107379251.487 8  83672346.57446  20433574.758                    20433582.504
 120379635.617 7  93802358.56944  22907483.352                    22907492.543
 124269924.086 6  96833792.17243  23647772.703                    23647781.785
 118266187.257 7  92155553.31644  22505314.828                    22505323.516
 117236620.317 7  91353332.53645  22309362.664                    22309370.086
 109726704.579 8  85501373.05046  20880256.867                    20880262.254
 112910522.603 7  87982304.75145  21486139.070                    21486147.082
 11  7 30  0 59  0.0000000  0  9G12G05G04G27G28G09G17G02G10
 119405064.841 7  93042951.75545  22722026.656                    22722034.043
 125545409.547 7  97827663.99344  23890486.305                    23890496.195
 107430592.295 8  83712352.39346  20443344.578                    20443352.348
 120425698.983 7  93838252.04744  22916249.617                    22916258.078
 124364206.986 6  96907259.29443  23665714.578                    23665723.289
 118316254.686 6  92194566.85244  22514842.758                    22514851.238
 117279329.831 7  91386612.64345  22317490.078                    22317497.895
 109693209.016 8  85475272.63546  20873882.961                    20873888.285
 112851511.045 7  87936321.75945  21474909.430                    21474917.762
 11  7 30  0 59 30.0000000  0  9G12G05G04G27G28G09G17G02G10
 119317056.345 7  92974373.73145  22705279.219                    22705286.441
 125439315.281 7  97744993.28244  23870297.086                    23870306.676
 107482301.008 8  83752644.90146  20453184.180                    20453191.840
 120472079.362 7  93874392.55944  22925074.977                    22925084.195
 124458745.213 6  96980925.36243  23683704.570                    23683713.887
 118366791.303 7  92233946.00044  22524459.328                    22524467.973
 117322146.153 7  91419976.00245  22325637.555                    22325645.277
 109660080.393 8  85449458.14946  20867578.813                    20867584.301
 112792969.213 7  87890704.79145  21463769.266                    21463777.320
 11  7 30  1  0  0.0000000  0  9G12G05G04G27G28G09G17G02G10
 119229253.376 7  92905955.86245  22688571.297                    22688578.137
 125333238.799 7  97662336.38544  23850111.984                    23850120.961
 107534375.031 8  83793222.05146  20463093.805                    20463101.785
 120518774.255 7  93910778.13844  22933960.844                    22933969.891
 124553536.759 6  97054788.82443  23701742.750                    23701752.535
 118417793.911 7  92273688.25445  22534164.914                    22534173.637
 117365069.957 7  91453423.09645  22333805.289                    22333812.625
 109627318.374 8  85423929.30946  20861344.547                    20861349.930
 112734900.069 7  87845456.14445  21452719.789                    21452727.680
 11  7 30  1  0 30.0000000  0  9G12G05G04G27G28G09G17G02G10
 119141658.117 7  92837699.83945  22671902.156                    22671909.547
 125227182.620 6  97579695.33744  23829928.992                    23829939.504
 107586812.061 8  83834082.07446  20473072.039                    20473079.742
 120565781.143 7  93947406.80844  22942906.352                    22942915.441
 124648579.839 6  97128848.29643  23719829.180                    23719838.086
 118469259.920 7  92313791.58844  22543958.625                    22543966.883
 117408101.541 7  91486954.18045  22341994.664                    22342002.055
 109594922.404 8  85398685.70846  20855179.625                    20855185.266
 112677306.183 7  87800577.82545  21441759.516                    21441766.973
 11  7 30  1  1  0.0000000  0  9G12G05G04G27G28G09G17G02G10
 119054273.126 7  92769607.67545  22655273.172                    22655281.453
 125121149.586 6  97497072.30044  23809752.172                    23809761.980
 107639609.695 8  83875223.07546  20483119.320                    20483126.797
 120613097.626 7  93984276.75544  22951909.570                    22951919.469
 124743872.975 6  97203102.61343  23737963.273                    23737971.535
 118521186.526 7  92354253.83244  22553840.016                    22553848.910
 117451241.472 7  91520569.70545  22350203.781                    22350210.984
 109562892.433 8  85373727.30346  20849084.445                    20849090.191
 112620189.961 8  87756071.71145  21430890.273                    21430898.496
 11  7 30  1  1 30.0000000  0  9G12G05G04G27G28G09G17G02G10
 118967100.930 7  92701681.31545  22638685.250                    22638692.031
 125015142.676 7  97414469.63044  23789579.250                    23789589.531
 107692765.849 8  83916643.45346  20493234.641                    20493242.223
 120660721.446 7  94021386.16144  22960972.289                    22960981.691
 124839414.270 6  97277550.32843  23756143.359                    23756152.023
 118573570.808 7  92395072.71444  22563808.391                    22563817.258
 117494490.406 7  91554270.15045  22358433.828                    22358441.309
 109531228.180 8  85349053.86846  20843059.352                    20843064.785
 112563554.475 8  87711940.20445  21420112.922                    21420120.945
 11  7 30  1  2  0.0000000  0  9G12G05G04G27G28G09G17G02G10
 118880144.130 7  92633922.78945  22622137.867                    22622145.422
 124909164.769 7  97331889.53244  23769412.422                    23769422.336
 107746278.117 8  83958341.31846  20503417.461                    20503425.109
 120708650.066 7  94058733.09544  22970093.422                    22970102.258
 124935201.964 6  97352190.02043  23774372.352                    23774380.664
 118626409.805 7  92436245.91144  22573863.813                    22573872.035
 117537848.611 7  91588055.74745  22366684.539                    22366692.230
 109499929.162 8  85324665.04546  20837102.711                    20837108.617
 112507402.453 8  87668185.40845  21409427.633                    21409435.684
 11  7 30  1  2 30.0000000  0  9G12G05G04G27G28G09G17G02G10
 118793405.240 7  92566334.08345  22605631.164                    22605638.910
 124803218.798 7  97249334.33044  23749251.336                    23749261.410
 107800144.093 8  84000314.78946  20513667.984                    20513675.629
 120756881.066 7  94096315.63544  22979271.789                    22979280.426
 125031233.927 6  97427020.06643  23792645.844                    23792655.180
 118679700.668 7  92477771.21844  22584004.805                    22584012.809
 117581316.735 7  91621926.99245  22374955.984                    22374963.648
 109468995.177 8  85300560.66346  20831216.367                    20831221.660
 112451736.176 7  87624809.11545  21398834.906                    21398842.684
 11  7 30  1  3  0.0000000  0  9G12G05G04G27G28G09G17G02G10
 118706886.696 7  92498917.05345  22589167.875                    22589175.277
 124697307.354 7  97166806.02844  23729097.438                    23729107.313
 107854361.519 8  84042562.12646  20523985.219                    20523992.488
 120805411.920 7  94134131.83444  22988506.148                    22988515.520
 125127508.743 6  97502039.34243  23810966.797                    23810975.285
 118733440.432 7  92519646.32044  22594231.141                    22594239.441
 117624895.126 7  91655884.15645  22383249.102                    22383256.477
 109438425.755 8  85276740.34246  20825399.492                    20825404.996
 112396558.351 8  87581813.42845  21388335.133                    21388342.480
 11  7 30  1  3 30.0000000  0  9G12G05G04G27G28G09G17G02G10
 118620591.159 7  92431673.80645  22572746.258                    22572753.609
 124591433.648 7  97084307.13444  23708949.836                    23708960.145
 107908928.111 8  84085081.52546  20534368.891                    20534376.418
 120854240.380 7  94172179.94244  22997798.047                    22997807.730
 125224024.540 6  97577246.37343  23829333.180                    23829341.680
 118787626.258 7  92561868.98045  22604541.953                    22604550.711
 117668584.287 7  91689927.64345  22391562.734                    22391570.203
 109408220.825 8  85253204.05046  20819651.555                    20819657.004
 112341871.591 7  87539200.38745  21377928.000                    21377935.840
 11  7 30  1  4  0.0000000  0  9G12G05G04G27G28G09G17G02G10
 118534521.275 7  92364606.38145  22556367.680                    22556374.703
 124485600.357 7  97001839.74744  23688810.461                    23688820.434
 107963841.522 8  84127871.18846  20544818.250                    20544826.406
 120903364.225 7  94210458.21744  23007146.438                    23007155.590
 125320779.656 6  97652639.89943  23847745.289                    23847754.180
 118842255.405 7  92604437.11144  22614937.180                    22614946.305
 117712384.834 7  91724057.92545  22399897.859                    22399905.125
 109378380.271 8  85229951.67846  20813973.195                    20813978.738
 112287678.733 7  87496972.21445  21367615.461                    21367623.527
 11  7 30  1  4 30.0000000  0  9G12G05G04G27G28G09G17G02G10
 118448679.244 7  92297716.52045  22540032.219                    22540040.043
 124379809.865 7  96919405.66744  23668679.281                    23668688.953
 108019099.336 8  84170929.19546  20555333.875                    20555341.613
 120952780.595 7  94248964.41744  23016550.266                    23016559.105
 125417771.912 6  97728218.18843  23866201.984                    23866210.707
 118897324.449 7  92647347.98145  22625416.859                    22625425.867
 117756297.098 8  91758275.27145  22408253.938                    22408262.156
 109348902.931 8  85206982.34246  20808363.484                    20808369.184
 112233982.127 8  87455130.73545  21357397.391                    21357405.133
 11  7 30  1  5  0.0000000  0  9G12G05G04G27G28G09G17G02G10
 118363067.973 7  92231006.45945  22523741.180                    22523748.273
 124274065.866 7  96837007.85144  23648557.031                    23648566.660
 108074699.587 8  84214254.04946  20565914.547                    20565921.813
 121002487.494 7  94287697.01644  23026008.531                    23026018.316
 125515000.016 6  97803980.27643  23884704.500                    23884712.590
 118952830.928 7  92690599.73144  22635979.836                    22635988.504
 117800322.194 7  91792580.50945  22416631.555                    22416639.875
 109319789.569 8  85184296.62646  20802823.297                    20802829.184
 112180784.921 8  87413678.39445  21347273.961                    21347282.059
 11  7 30  1  5 30.0000000  0  9G12G05G04G27G28G09G17G02G10
 118277689.600 7  92164477.88445  22507494.734                    22507501.652
 124168370.749 7  96754648.10844  23628443.953                    23628453.418
 108130639.471 8  84257843.55546  20576559.266                    20576566.758
 121052481.765 7  94326653.54144  23035523.250                    23035531.582
 125612461.781 6  97879924.44343  23903251.047                    23903258.371
 119008771.286 7  92734189.58444  22646624.813                    22646633.457
 117844459.936 8  91826973.53145  22425031.172                    22425038.938
 109291038.773 8  85161893.43046  20797352.477                    20797357.996
 112128088.997 8  87372616.65745  21337246.875                    21337254.746
 11  7 30  1  6  0.0000000  0  9G12G05G04G27G28G09G17G02G10
 118192546.833 7  92098132.90845  22491292.305                    22491299.898
 124062727.327 7  96672328.64944  23608340.328                    23608349.598
 108186916.610 8  84301695.85346  20587268.203                    20587275.715
 121102761.111 7  94365832.20044  23045090.313                    23045099.691
 125710155.428 6  97956049.29443  23921841.031                    23921849.113
 119065142.857 7  92778115.43244  22657351.563                    22657360.680
 117888710.818 7  91861454.72745  22433451.719                    22433459.320
 109262650.261 8  85139772.53046  20791950.305                    20791956.086
 112075896.842 8  87331947.48545  21327314.852                    21327322.227
 11  7 30  1  6 30.0000000  0  9G12G05G04G27G28G09G17G02G10
 118107642.390 7  92031973.61845  22475135.625                    22475142.738
 123957138.576 7  96590051.79844  23588247.719                    23588256.789
 108243528.849 8  84345809.28046  20598041.539                    20598049.180
 121153322.993 7  94405231.02344  23054712.211                    23054721.355
 125808078.792 6  98032353.14543  23940475.375                    23940483.465
 119121942.429 7  92822374.76744  22668160.539                    22668169.410
 117933075.570 7  91896024.65045  22441893.570                    22441901.367
 109234623.811 8  85117933.75646  20786616.883                    20786622.230
 112024211.016 8  87291672.83245  21317479.672                    21317487.289
 11  7 30  1  7  0.0000000  0  9G12G05G04G27G28G09G17G02G10
 118022978.700 7  91966001.92845  22459024.305                    22459031.199
 123851607.416 7  96507819.82044  23568165.242                    23568174.301
 108300473.792 8  84390181.94846  20608877.680                    20608885.297
 121204164.994 7  94444848.10844  23064387.172                    23064396.301
 125906230.314 6  98108834.78243  23959153.000                    23959161.707
 119179166.790 7  92866965.13244  22679049.727                    22679058.797
 117977554.802 7  91930683.76945  22450357.578                    22450365.898
 109206958.915 8  85096376.71046  20781352.531                    20781358.035
 111973034.117 8  87251794.76545  21307740.859                    21307748.758
 11  7 30  1  7 30.0000000  0  9G12G05G04G27G28G09G17G02G10
 117938558.271 7  91900219.79745  22442959.445                    22442967.297
 123746136.542 7  96425634.80744  23548094.945                    23548104.715
 108357748.826 8  84434811.82646  20619776.508                    20619784.641
 121255284.554 7  94484681.47144  23074114.680                    23074123.762
 126004607.809 6  98185492.48943  23977872.695                    23977881.742
 119236812.832 7  92911884.05344  22690019.898                    22690028.527
 118022148.684 7  91965432.23945  22458843.484                    22458851.695
 109179654.882 8  85075100.85846  20776156.859                    20776161.988
 111922368.559 8  87212315.14745  21298099.219                    21298107.691
 11  7 30  1  8  0.0000000  0  9G12G05G04G27G28G09G17G02G10
 117854383.810 7  91834629.34745  22426941.617                    22426949.164
 123640729.367 7  96343499.43544  23528036.984                    23528046.066
 108415351.941 8  84479697.36046  20630738.305                    20630745.938
 121306679.343 7  94524729.31144  23083895.148                    23083904.145
 126103209.878 6  98262325.21443  23996637.094                    23996645.766
 119294877.832 7  92957129.45044  22701068.750                    22701077.953
 118066858.109 7  92000270.71645  22467351.648                    22467360.063
 109152711.840 8  85054106.30046  20771029.727                    20771035.086
 111872217.103 8  87173236.13045  21288555.445                    21288563.441
 11  7 30  1  8 30.0000000  0  9G12G05G04G27G28G09G17G02G10
 117770457.813 7  91769232.47245  22410971.586                    22410978.418
 123535387.978 7  96261415.33044  23507990.539                    23507999.836
 108473280.522 8  84524836.50646  20641761.867                    20641769.309
 121358346.615 7  94564989.45444  23093727.531                    23093736.320
 126202034.257 6  98339331.11143  24015442.297                    24015451.309
 119353358.596 7  93002698.83844  22712197.961                    22712206.305
 118111683.086 7  92035199.24445  22475881.438                    22475890.016
 109126128.700 8  85033392.17646  20765970.945                    20765976.215
 111822581.766 8  87134559.27045  21279110.313                    21279118.234
 11  7 30  1  9  0.0000000  0  9G12G05G04G27G28G09G17G02G10
 117686782.748 7  91704031.16545  22395048.133                    22395055.367
 123430115.819 7  96179385.14444  23487957.570                    23487967.695
 108531532.547 8  84570227.68846  20652846.625                    20652854.191
 121410284.076 7  94605460.13644  23103610.086                    23103619.496
 126301079.184 6  98416508.93042  24034291.453                    24034299.863
 119412252.072 7  93048589.79344  22723404.852                    22723413.707
 118156624.568 7  92070218.55245  22484434.023                    22484441.504
 109099905.424 8  85012958.46746  20760980.961                    20760986.438
 111773465.138 8  87096286.60845  21269763.633                    21269771.992
 11  7 30  1  9 30.0000000  0  9G12G05G04G27G28G09G17G02G10
 117603361.128 7  91639027.30845  22379173.563                    22379181.207
 123324915.777 7  96097411.15644  23467939.141                    23467948.313
 108590105.759 8  84615869.13946  20663992.883                    20664000.734
 121462489.206 7  94646139.39344  23113545.063                    23113553.918
 126400342.918 6  98493857.27142  24053179.820                    24053188.316
 119471555.197 7  93094799.95844  22734689.984                    22734698.273
 118201683.329 7  92105329.26045  22493008.281                    22493015.793
 109074041.609 8  84992804.85346  20756059.211                    20756064.402
 111724869.909 8  87058420.23745  21260516.102                    21260524.766
 11  7 30  1 10  0.0000000  0  9G12G05G04G27G28G09G17G02G10
 117520195.788 7  91574223.16745  22363347.617                    22363355.414
 123219790.826 7  96015495.69444  23447934.586                    23447943.691
 108648997.908 8  84661759.12246  20675199.695                    20675207.441
 121514959.512 7  94687025.27944  23123529.805                    23123539.039
 126499823.402 6  98571374.57642  24072110.023                    24072118.586
 119531265.154 7  93141327.16744  22746052.625                    22746061.379
 118246859.678 7  92140531.60145  22501605.047                    22501612.461
 109048536.862 8  84972931.02646  20751205.570                    20751210.746
 111676798.503 8  87020962.02845  21251368.602                    21251376.746
 11  7 30  1 10 30.0000000  0  9G12G05G04G27G28G09G17G02G10
 117437289.068 7  91509620.54945  22347571.477                    22347578.387
 123114743.563 7  95933640.75944  23427944.664                    23427953.898
 108708206.161 8  84707895.41546  20686466.563                    20686474.426
 121567692.146 7  94728115.58644  23133564.555                    23133573.508
 126599518.662 6  98649059.15343  24091081.781                    24091090.188
 119591378.477 7  93188168.67044  22757491.633                    22757500.508
 118292154.048 7  92175825.88245  22510224.258                    22510231.910
 109023390.344 8  84953336.34446  20746420.742                    20746425.734
 111629252.847 8  86983913.50746  21242321.031                    21242329.316
 11  7 30  1 11  0.0000000  0  9G12G05G04G27G28G09G17G02G10
 117354643.681 7  91445221.54745  22331844.305                    22331851.629
 123009776.927 7  95851848.65244  23407969.891                    23407979.438
 108767728.184 8  84754276.20346  20697793.398                    20697800.922
 121620684.583 7  94769408.31544  23143648.477                    23143657.402
 126699426.873 6  98726909.68143  24110093.273                    24110102.102
 119651891.902 7  93235321.92844  22769006.930                    22769016.367
 118337566.881 7  92211212.49145  22518866.445                    22518873.496
 108998601.591 8  84934020.44746  20741703.422                    20741708.453
 111582235.260 8  86947276.45745  21233373.539                    21233381.453
 11  7 30  1 11 30.0000000  0  9G12G05G04G27G28G09G17G02G10
 117272262.160 7  91381028.17645  22316167.523                    22316175.250
 122904894.122 7  95770121.86144  23388011.820                    23388020.137
 108827561.901 8  84800899.86546  20709179.109                    20709187.180
 121673934.369 7  94810901.59244  23153781.008                    23153791.031
 126799545.979 6  98804924.51742  24129144.766                    24129154.605
 119712802.487 7  93282784.67644  22780597.289                    22780607.000
 118383098.898 7  92246691.96745  22527530.258                    22527537.992
 108974170.206 8  84914983.01546  20737054.492                    20737059.762
 111535748.259 8  86911052.84646  21224527.766                    21224535.375
 11  7 30  1 12  0.0000000  0  9G12G05G04G27G28G09G17G02G10
 117190146.863 7  91317042.23845  22300541.336                    22300548.988
 122800097.787 7  95688462.45744  23368069.117                    23368078.184
 108887704.508 8  84847764.22346  20720623.531                    20720631.484
 121727438.532 7  94852593.08844  23163963.273                    23163972.898
 126899873.725 6  98883101.95443  24148236.805                    24148246.199
 119774106.890 7  93330554.28745  22792263.719                    22792272.434
 118428750.306 7  92282264.45145  22536217.992                    22536225.566
 108950095.148 8  84896223.24946  20732472.859                    20732478.254
 111489793.726 8  86875244.15045  21215782.969                    21215790.816
 11  7 30  1 12 30.0000000  0  9G12G05G04G27G28G09G17G02G10
 117108300.615 7  91253265.94945  22284967.039                    22284973.801
 122695391.020 7  95606872.81944  23348144.000                    23348153.188
 108948154.077 8  84894867.77146  20732127.164                    20732134.813
 121781194.905 7  94894481.11744  23174192.617                    23174202.102
 127000408.588 6  98961440.74943  24167369.320                    24167377.699
 119835802.160 7  93378628.46644  22804004.297                    22804012.559
 118474521.958 7  92317930.64045  22544928.141                    22544935.922
 108926376.346 8  84877741.07946  20727959.586                    20727964.836
 111444374.621 8  86839852.67446  21207139.477                    21207147.883
 11  7 30  1 13  0.0000000  0  9G12G05G04G27G28G09G17G02G10
 117026726.024 7  91189701.35145  22269443.766                    22269451.109
 122590776.747 7  95525355.28844  23328236.367                    23328245.672
 109008908.269 8  84942208.68746  20743688.266                    20743695.918
 121835200.647 7  94936563.44944  23184469.656                    23184479.586
 127101148.408 6  99039939.24643  24186539.289                    24186547.652
 119897884.909 7  93427004.58344  22815818.055                    22815826.875
 118520414.128 7  92353690.75145  22553660.617                    22553667.977
 108903012.870 8  84859535.77646  20723513.445                    20723518.477
 111399492.903 8  86804879.93146  21198598.875                    21198607.293
 11  7 30  1 13 30.0000000  0  9G12G05G04G27G28G09G17G02G10
 116945425.796 7  91126350.51245  22253972.578                    22253979.742
 122486258.074 7  95443912.23244  23308347.555                    23308356.520
 109069964.837 8  84989785.22546  20755306.688                    20755314.836
 121889453.565 7  94978838.36944  23194793.922                    23194803.184
 127202091.716 6  99118596.32243  24205748.094                    24205757.000
 119960352.371 7  93475680.47744  22827704.766                    22827713.906
 118566427.838 7  92389545.57745  22562416.703                    22562424.695
 108880005.153 8  84841607.70746  20719135.289                    20719140.516
 111355151.182 8  86770327.95646  21190161.195                    21190168.703
 11  7 30  1 14  0.0000000  0  9G12G05G04G27G28G09G17G02G10
 116864401.962 7  91063215.07345  22238554.547                    22238561.641
 122381837.551 7  95362545.65244  23288476.359                    23288485.461
 109131320.982 8  85037595.19546  20766982.492                    20766990.508
 121943950.641 7  95021303.56944  23205164.547                    23205173.711
 127303236.057 6  99197410.05442  24224995.484                    24225003.918
 120023200.882 7  93524653.29044  22839664.367                    22839673.219
 118612563.285 7  92425495.25745  22571196.047                    22571203.918
 108857351.799 8  84823955.76046  20714824.422                    20714829.617
 111311350.693 8  86736197.72746  21181826.234                    21181834.367
 11  7 30  1 14 30.0000000  0  9G12G05G04G27G28G09G17G02G10
 116783657.428 7  91000297.27245  22223189.313                    22223196.520
 122277518.240 7  95281257.94844  23268625.289                    23268634.184
 109192974.553 8  85085636.92946  20778714.930                    20778722.969
 121998689.265 7  95063956.98444  23215581.086                    23215590.172
 127404579.394 6  99276378.90442  24244279.820                    24244288.566
 120086427.246 7  93573920.54244  22851696.242                    22851705.055
 118658821.047 7  92461540.23845  22579998.914                    22580006.438
 108835052.211 8  84806579.46346  20710580.953                    20710586.176
 111268094.199 8  86702491.39846  21173594.672                    21173602.582
 11  7 30  1 15  0.0000000  0  9G12G05G04G27G28G09G17G02G10
 116703194.781 7  90937599.11445  22207877.914                    22207884.855
 122173303.174 7  95200051.45244  23248793.680                    23248802.773
 109254923.419 8  85133908.75646  20790503.711                    20790511.473
 122053666.906 7  95106796.60844  23226042.844                    23226052.535
 127506119.952 6  99355501.37943  24263602.922                    24263611.203
 120150028.537 7  93623479.91944  22863799.531                    22863808.402
 118705201.474 7  92497680.80745  22588824.555                    22588832.758
 108813105.855 8  84789478.42346  20706404.906                    20706410.281
 111225383.765 8  86669210.56246  21165467.305                    21165475.285
 11  7 30  1 15 30.0000000  0  9G12G05G04G27G28G09G17G02G10
 116623016.559 7  90875122.59345  22192620.156                    22192627.367
 122069195.077 7  95118928.33444  23228982.016                    23228991.527
 109317164.813 8  85182408.53846  20802347.594                    20802355.391
 122108880.800 7  95149820.36444  23236549.664                    23236559.039
 127607855.548 6  99434775.92642  24282961.383                    24282970.695
 120214001.423 7  93673328.86744  22875973.242                    22875981.988
 118751705.340 7  92533917.57045  22597673.758                    22597682.246
 108791512.138 8  84772652.15346  20702295.891                    20702300.574
 111183221.504 8  86636356.87446  21157444.172                    21157451.895
 11  7 30  1 16  0.0000000  0 10G12G05G25G04G27G28G09G17G02G10
 116543125.465 7  90812869.81245  22177417.563                    22177424.945
 121965197.267 7  95037891.15744  23209192.250                    23209202.145
 132894709.54915                  25289005.211
 109379696.930 8  85231134.84846  20814247.266                    20814254.773
 122164328.651 7  95193026.41444  23247101.406                    23247110.328
 127709784.242 6  99514200.87342  24302357.992                    24302366.980
 120278342.530 7  93723464.73644  22888217.578                    22888226.367
 118798333.309 7  92570251.00945  22606546.922                    22606555.223
 108770270.628 8  84756100.33246  20698253.320                    20698258.703
 111141609.806 8  86603932.19846  21149525.953                    21149533.152
 11  7 30  1 16 30.0000000  0 10G12G05G25G04G27G28G09G17G02G10
 116463524.068 7  90750842.76745  22162270.070                    22162276.777
 121861312.309 7  94956941.92544  23189423.398                    23189432.230
 132789227.74814                  25268932.109
 109442516.845 8  85280085.41646  20826201.758                    20826209.270
 122220007.524 7  95236412.47644  23257696.414                    23257705.883
 127811903.956 6  99593774.66642  24321791.461                    24321799.934
 120343048.713 7  93773885.08044  22900529.797                    22900539.227
 118845085.745 7  92606681.44945  22615443.367                    22615451.785
 108749380.493 8  84739822.31646  20694278.008                    20694283.379
 111100550.522 8  86571937.98346  21141711.719                    21141720.102
 11  7 30  1 17  0.0000000  0 10G12G05G25G04G27G28G09G17G02G10
 116384214.862 7  90689043.39845  22147177.719                    22147184.734
 121757543.346 7  94876083.07344  23169677.156                    23169686.129
 132683780.69315                  25248866.039
 109505622.759 8  85329258.84746  20838210.148                    20838218.102
 122275915.122 7  95279976.79844  23268335.094                    23268344.660
 127914212.832 6  99673495.81642  24341259.477                    24341268.914
 120408116.995 7  93824587.55944  22912912.320                    22912921.156
 118891963.418 7  92643209.47145  22624364.469                    22624372.285
 108728841.346 8  84723817.79846  20690369.438                    20690374.637
 111060045.963 8  86540376.00746  21134004.320                    21134012.230
 11  7 30  1 17 30.0000000  0 10G12G05G25G04G27G28G09G17G02G10
 116305200.592 7  90627473.86945  22132141.953                    22132148.844
 121653893.596 7  94795317.11844  23149952.961                    23149962.371
 132578369.260 5                  25228806.609
 109569012.262 8  85378653.25546  20850272.586                    20850280.480
 122332048.798 7  95323717.22944  23279017.469                    23279027.098
 128016708.984 5  99753362.88942  24360764.516                    24360773.461
 120473543.960 7  93875569.54644  22925362.906                    22925371.824
 118938966.725 7  92679835.41245  22633308.500                    22633316.867
 108708652.712 8  84708086.38746  20686527.906                    20686533.012
 111020098.224 8  86509247.92346  21126402.602                    21126410.375
 11  7 30  1 18  0.0000000  0 10G12G05G25G04G27G28G09G17G02G10
 116226483.635 7  90566135.99945  22117162.672                    22117169.820
 121550366.027 7  94714646.35244  23130252.188                    23130261.137
 132472996.888 5                  25208754.828
 109632682.793 8  85428266.64646  20862388.984                    20862396.719
 122388405.520 6  95367631.49044  23289742.078                    23289750.938
 128119390.614 5  99833374.50042  24380304.531                    24380313.305
 120539325.978 6  93926828.20944  22937880.477                    22937889.746
 118986096.151 7  92716559.61145  22642277.969                    22642284.906
 108688813.666 8  84692627.39146  20682752.742                    20682757.602
 110980709.091 8  86478555.12245  21118907.211                    21118914.953
 11  7 30  1 18 30.0000000  0 10G12G05G25G04G27G28G09G17G02G10
 116148066.240 7  90505031.55645  22102240.086                    22102246.996
 121446962.864 7  94634072.53144  23110575.836                    23110584.387
 132367664.836 5                  25188710.719
 109696631.705 8  85478096.95946  20874557.852                    20874565.621
 122444982.293 7  95411717.19444  23300507.820                    23300517.340
 128222254.703 6  99913528.29843  24399878.500                    24399887.641
 120605459.781 7  93978360.99844  22950465.430                    22950474.313
 119033352.004 7  92753382.32245  22651270.141                    22651277.500
 108669322.642 8  84677439.58446  20679043.914                    20679048.887
 110941880.069 8  86448298.77446  21111518.266                    21111525.902
 11  7 30  1 19  0.0000000  0 10G12G05G25G04G27G28G09G17G02G10
 116069951.670 7  90444163.06845  22087375.172                    22087382.504
 121343687.776 7  94553598.50144  23090922.836                    23090931.977
 132262376.007 5                  25168674.672
 109760857.372 8  85528142.92846  20886779.375                    20886787.441
 122501777.022 7  95455972.77744  23311315.648                    23311324.777
 128325299.757 6  99993823.12242  24419487.578                    24419496.816
 120671942.593 7  94030165.71044  22963116.836                    22963125.480
 119080735.296 7  92790304.35545  22660287.008                    22660294.246
 108650180.316 8  84662523.49346  20675401.141                    20675406.367
 110903613.822 8  86418480.94546  21104236.313                    21104244.355
 11  7 30  1 19 30.0000000  0 10G12G05G25G04G27G28G09G17G02G10
 115992142.150 7  90383532.29945  22072568.758                    22072576.305
 121240543.457 7  94473226.39145  23071295.031                    23071303.973
 132157132.284 5 102979536.94452  25148647.586                    25148656.914
 109825357.169 8  85578402.50746  20899053.523                    20899061.055
 122558787.127 7  95500396.16944  23322164.461                    23322173.934
 128428523.783 6 100074257.40642  24439129.813                    24439139.137
 120738770.896 7  94082239.66844  22975833.797                    22975843.102
 119128246.419 7  92827325.97645  22669327.641                    22669335.730
 108631385.472 8  84647878.18146  20671824.672                    20671829.637
 110865912.346 8  86389103.20246  21097061.680                    21097069.777
 11  7 30  1 20  0.0000000  0 10G12G05G25G04G27G28G09G17G02G10
 115914640.520 8  90323141.43145  22057820.750                    22057827.539
 121137532.967 7  94392958.54745  23051692.555                    23051701.496
 132051936.057 5 102897565.86142  25128629.938                    25128640.695
 109890128.598 8  85628873.73946  20911379.438                    20911387.078
 122616009.720 7  95544985.11544  23333053.703                    23333063.648
 128531924.617 6 100154829.48342  24458806.891                    24458815.414
 120805941.245 7  94134580.14844  22988616.078                    22988625.055
 119175885.726 7  92864447.47545  22678393.039                    22678401.211
 108612937.488 8  84633503.14346  20668314.016                    20668318.801
 110828777.084 8  86360166.67146  21089994.813                    21090002.805
 11  7 30  1 20 30.0000000  0 10G12G05G25G04G27G28G09G17G02G10
 115837448.797 8  90262992.05845  22043131.570                    22043138.469
 121034659.067 7  94312797.13945  23032116.320                    23032125.141
 131946789.672 5 102815633.67842  25108621.328                    25108632.707
 109955169.675 8  85679555.09546  20923756.227                    20923763.777
 122673442.201 7  95589737.64644  23343982.820                    23343992.672
 128635500.508 6 100235537.96142  24478516.586                    24478525.980
 120873450.684 7  94187184.84144  23001462.336                    23001472.227
 119223654.208 7  92901669.65045  22687483.164                    22687491.547
 108594835.782 8  84619397.92346  20664869.320                    20664874.492
 110792210.410 8  86331673.18646  21083036.766                    21083044.320
 11  7 30  1 21  0.0000000  0 10G12G05G25G04G27G28G09G17G02G10
 115760569.857 8  90203086.40045  22028501.500                    22028509.180
 120931924.811 7  94232744.54345  23012566.961                    23012575.188
 131841695.239 6 102733741.94743  25088622.453                    25088634.594
 110020477.933 8  85730444.63246  20936184.133                    20936191.965
 122731081.615 7  95634651.39844  23354951.508                    23354960.699
 128739248.913 6 100316380.90842  24498259.023                    24498268.289
 120941295.742 7  94240051.05444  23014373.180                    23014382.566
 119271552.021 7  92938992.59645  22696597.648                    22696605.594
 108577079.236 8  84605561.65246  20661490.500                    20661495.781
 110756213.978 8  86303624.05046  21076186.508                    21076194.266
 11  7 30  1 21 30.0000000  0 10G12G05G25G04G27G28G09G17G02G10
 115684006.295 8  90143426.50845  22013932.445                    22013939.496
 120829332.964 7  94152802.94745  22993044.664                    22993052.539
 131736654.921 6 102651892.36942  25068633.617                    25068646.145
 110086050.752 8  85781540.33146  20948662.078                    20948669.789
 122788925.463 7  95679724.47644  23365958.438                    23365968.453
 128843168.055 6 100397356.78542  24518033.828                    24518043.426
 121009473.003 7  94293176.12444  23027346.742                    23027356.008
 119319579.697 7  92976416.75745  22705737.563                    22705744.434
 108559667.286 8  84591993.91246  20658177.031                    20658181.984
 110720789.452 8  86276020.55446  21069446.172                    21069453.223
 11  7 30  1 22  0.0000000  0 10G12G05G25G04G27G28G09G17G02G10
 115607760.714 8  90084014.36946  21999423.531                    21999430.387
 120726886.931 7  94072974.95345  22973548.828                    22973557.840
 131631671.080 5 102570086.78542  25048655.727                    25048667.805
 110151886.142 8  85832840.61546  20961190.102                    20961197.672
 122846970.971 6  95724954.65844  23377004.227                    23377014.203
 128947255.955 6 100478464.22543  24537841.555                    24537851.129
 121077979.021 7  94346557.38244  23040383.625                    23040392.539
 119367737.936 7  93013942.66245  22714901.422                    22714908.555
 108542599.207 8  84578694.11746  20654929.047                    20654934.340
 110685939.028 8  86248864.41146  21062813.797                    21062821.285
 11  7 30  1 22 30.0000000  0 10G12G05G25G04G27G28G09G17G02G10
 115531835.760 7  90024852.10045  21984975.336                    21984982.395
 120624589.673 7  93993262.89545  22954082.484                    22954091.488
 131526746.367 6 102488327.33842  25028689.227                    25028700.965
 110217981.744 8  85884343.66446  20973767.945                    20973775.461
 122905215.809 7  95770340.18444  23388087.438                    23388097.289
 129051510.329 6 100559701.38443  24557680.383                    24557690.383
 121146810.649 7  94400192.35844  23053481.242                    23053490.797
 119416027.489 7  93051570.84745  22724090.867                    22724098.141
 108525874.645 8  84565661.99646  20651745.984                    20651751.266
 110651664.780 8  86222157.23346  21056291.602                    21056299.402
 11  7 30  1 23  0.0000000  0 10G12G05G25G04G27G28G09G17G02G10
 115456233.780 7  89965941.46546  21970588.539                    21970595.574
 120522443.955 7  93913668.92045  22934644.859                    22934653.145
 131421882.600 6 102406615.30343  25008734.484                    25008746.383
 110284335.300 8  85936047.71646  20986394.211                    20986401.770
 122963656.734 6  95815878.48444  23399208.320                    23399218.746
 129155929.004 6 100641066.49743  24577551.086                    24577560.410
 121215964.316 7  94454078.26944  23066641.242                    23066650.129
 119464448.476 7  93089301.46345  22733304.375                    22733312.715
 108509492.126 8  84552896.40046  20648628.523                    20648633.742
 110617967.923 8  86195899.98146  21049879.125                    21049886.922
 11  7 30  1 23 30.0000000  0 10G12G05G25G04G27G28G09G17G02G10
 115380957.442 7  89907284.61845  21956264.016                    21956270.887
 120420452.730 7  93834195.32445  22915236.586                    22915245.055
 131317082.532 6 102324952.94242  24988792.586                    24988803.691
 110350944.310 8  85987950.82846  20999069.570                    20999077.070
 123022291.392 6  95861567.74544  23410366.695                    23410376.313
 129260509.925 6 100722558.10643  24597451.523                    24597461.578
 121285437.189 7  94508212.91444  23079861.172                    23079870.422
 119513001.765 7  93127135.17745  22742544.313                    22742552.535
 108493451.613 8  84540397.30646  20645576.438                    20645581.535
 110584850.584 8  86170094.28346  21043577.203                    21043585.105
 11  7 30  1 24  0.0000000  0 10G12G05G25G04G27G28G09G17G02G10
 115306009.242 7  89848883.43146  21942001.992                    21942008.652
 120318619.331 7  93754844.70745  22895858.578                    22895867.203
 131212348.347 6 102243341.90142  24968861.320                    24968873.379
 110417806.854 8  86040051.49246  21011793.367                    21011800.703
 123081116.867 6  95907405.69044  23421560.930                    23421570.469
 129365251.353 6 100804174.73043  24617383.867                    24617393.246
 121355225.756 7  94562593.55644  23093142.078                    23093150.316
 119561687.930 7  93165072.40045  22751809.250                    22751817.305
 108477752.218 8  84528164.02846  20642588.844                    20642594.090
 110552314.195 8  86144741.27446  21037385.555                    21037392.902
 11  7 30  1 24 30.0000000  0 10G12G05G25G04G27G28G09G17G02G10
 115231392.011 7  89790740.15845  21927802.555                    21927809.832
 120216946.434 7  93675619.16545  22876510.531                    22876518.738
 131107682.240 6 102161783.94442  24948944.117                    24948955.668
 110484920.416 8  86092347.77146  21024564.289                    21024571.918
 123140130.509 6  95953390.26244  23432790.445                    23432801.109
 129470150.979 6 100885914.65842  24637345.078                    24637354.563
 121425326.494 7  94617217.45244  23106481.500                    23106490.602
 119610507.403 7  93203113.53045  22761098.844                    22761107.195
 108462393.128 8  84516195.90746  20639666.070                    20639671.375
 110520360.658 8  86119842.43845  21031305.094                    21031312.789
 11  7 30  1 25  0.0000000  0 10G12G05G25G04G27G28G09G17G02G10
 115157108.284 7  89732856.74145  21913667.102                    21913673.867
 120115436.898 7  93596520.92345  22857193.797                    22857202.109
 131003086.479 6 102080280.77543  24929039.969                    24929051.930
 110552282.500 8  86144837.68946  21037382.906                    21037390.719
 123199329.473 6  95999519.26044  23444056.148                    23444065.969
 129575206.558 5 100967776.07842  24657335.852                    24657346.398
 121495735.865 7  94672081.83044  23119880.539                    23119889.211
 119659460.898 7  93241259.10445  22770414.555                    22770422.309
 108447373.316 8  84504492.17146  20636807.883                    20636813.285
 110488991.384 8  86095398.86346  21025335.875                    21025343.438
 11  7 30  1 25 30.0000000  0 10G12G05G25G04G27G28G09G17G02G10
 115083160.412 7  89675235.04246  21899595.281                    21899602.191
 120014094.186 7  93517552.66645  22837908.516                    22837917.605
 130898563.737 6 101998834.51142  24909151.203                    24909161.590
 110619891.069 8  86197519.66546  21050248.156                    21050256.199
 123258711.237 7  96045790.67044  23455356.648                    23455366.035
 129680416.26615 101049757.58052  24677355.922                    24677368.313
 121566450.911 7  94727184.38944  23133336.813                    23133345.824
 119708548.872 7  93279509.43245  22779755.672                    22779763.570
 108432692.198 8  84493052.34446  20634014.398                    20634019.625
 110458208.399 8  86071412.14646  21019477.852                    21019485.816
 11  7 30  1 26  0.0000000  0 10G12G05G25G04G27G28G09G17G02G10
 115009550.969 7  89617877.05146  21885587.563                    21885594.586
 119912920.862 7  93438716.39745  22818656.320                    22818664.742
 130794116.125 6 101917446.77843  24889274.875                    24889285.531
 110687744.049 8  86250392.10346  21063160.313                    21063167.723
 123318273.036 6  96092202.39344  23466690.250                    23466700.516
 129785777.96915                  24697405.250
 121637468.107 7  94782522.37944  23146850.961                    23146859.992
 119757771.822 7  93317864.96745  22789122.336                    22789130.762
 108418348.772 8  84481875.66746  20631284.695                    20631289.715
 110428013.142 8  86047883.38146  21013731.695                    21013739.758
 11  7 30  1 26 30.0000000  0 10G12G05G25G04G27G28G09G17G02G10
 114936282.373 7  89560784.66346  21871645.320                    21871652.090
 119811919.748 7  93360014.32545  22799436.172                    22799445.004
 130689746.104 6 101836119.53543  24869413.273                    24869424.832
 110755838.699 8  86303452.84846  21076118.508                    21076126.129
 123378012.165 6  96138752.28444  23478057.469                    23478068.734
 129891289.22315                  24717485.602
 121708783.955 7  94838093.12144  23160422.094                    23160430.484
 119807130.214 7  93356326.03745  22798515.875                    22798523.320
 108404342.317 8  84470961.56746  20628619.367                    20628624.379
 110398407.230 8  86024813.85746  21008097.914                    21008105.770
 11  7 30  1 27  0.0000000  0 10G12G05G25G04G27G28G09G17G02G10
 114863357.130 7  89503959.81146  21857767.695                    21857774.762
 119711093.926 7  93281448.83745  22780249.688                    22780258.270
 130585455.681 6 101754854.32043  24849567.727                    24849579.039
 110824172.783 8  86356700.16646  21089121.688                    21089129.719
 123437925.801 6  96185438.13544  23489459.867                    23489469.660
 129996947.672 6                  24737590.734
 121780394.982 7  94893893.85244  23174048.813                    23174058.238
 119856624.487 7  93394892.96845  22807934.352                    22807941.465
 108390671.938 8  84460309.33546  20626017.852                    20626023.070
 110369392.053 8  86002204.65046  21002576.867                    21002584.145
 11  7 30  1 27 30.0000000  0 10G12G05G25G04G27G28G09G17G02G10
 114790778.106 7  89447404.75546  21843956.281                    21843963.574
 119610446.411 7  93203022.29145  22761096.508                    22761105.637
 130481247.534 6 101673653.18242  24829737.219                    24829748.699
 110892744.081 8  86410132.33946  21102170.563                    21102178.551
 123498011.010 6  96232257.70144  23500894.438                    23500903.754
 130102751.421 6                  24757725.422
 121852297.972 7  94949922.09344  23187731.766                    23187740.336
 119906255.251 7  93433566.27945  22817378.281                    22817386.129
 108377336.651 8  84449918.22146  20623480.273                    20623485.402
 110340969.195 8  85980056.98246  20997167.930                    20997175.715
 11  7 30  1 28  0.0000000  0 10G12G05G25G04G27G28G09G17G02G10
 114718547.594 8  89391121.25146  21830211.508                    21830218.426
 119509980.219 7  93124737.03745  22741979.461                    22741987.258
 130377124.169 6 101592518.17943  24809923.109                    24809934.188
 110961550.462 8  86463747.66546  21115264.289                    21115271.840
 123558265.425 6  96279209.12343  23512359.617                    23512369.605
 130208698.808 6 101461338.29253  24777886.414                    24777895.566
 121924489.559 7  95006175.18344  23201469.273                    23201478.172
 119956023.333 7  93472346.56145  22826848.945                    22826856.738
 108364336.181 8  84439787.99346  20621006.453                    20621011.863
 110313140.529 7  85958372.31846  20991872.305                    20991880.063
 11  7 30  1 28 30.0000000  0 10G12G05G25G04G27G28G09G17G02G10
 114646668.153 8  89335111.32746  21816533.172                    21816539.891
 119409698.581 7  93046595.57245  22722895.727                    22722904.262
 130273087.772 5 101511450.92743  24790126.281                    24790137.434
 111030589.631 8  86517544.41646  21128401.836                    21128409.766
 123618686.072 6  96326290.09244  23523857.656                    23523867.199
 130314787.137 6 101544004.50343  24798075.078                    24798084.383
 121996966.514 7  95062650.67744  23215261.625                    23215270.758
 120005929.261 7  93511234.27045  22836345.805                    22836353.492
 108351669.365 8  84429917.75046  20618595.914                    20618601.070
 110285907.496 8  85937151.79945  20986690.203                    20986697.719
 11  7 30  1 29  0.0000000  0 10G12G05G25G04G27G28G09G17G02G10
 114575142.408 7  89279376.98746  21802922.547                    21802929.398
 119309604.360 7  92968600.17745  22703848.281                    22703857.078
 130169140.792 6 101430453.42543  24770345.203                    24770356.250
 111099859.202 8  86571520.67946  21141583.711                    21141591.176
 123679270.124 6  96373498.34343  23535386.250                    23535396.625
 130421014.412 6 101626778.91743  24818288.570                    24818298.422
 122069725.364 6  95119345.82444  23229107.055                    23229116.586
 120055973.437 7  93550229.71045  22845868.930                    22845875.988
 108339335.322 8  84420306.81446  20616248.711                    20616254.355
 110259271.388 8  85916396.41346  20981621.688                    20981629.430
 11  7 30  1 29 30.0000000  0 10G12G05G25G04G27G28G09G17G02G10
 114503973.083 7  89223920.39946  21789378.992                    21789386.441
 119209700.661 7  92890753.23345  22684837.383                    22684845.930
 130065285.729 6 101349527.46143  24750582.008                    24750593.418
 111169357.253 8  86625674.99246  21154808.570                    21154816.391
 123740015.073 6  96420832.01543  23546945.453                    23546955.168
 130527378.800 6 101709660.19943  24838529.992                    24838538.637
 122142762.596 7  95176257.88644  23243005.719                    23243014.930
 120106156.577 7  93589333.42845  22855417.922                    22855425.895
 108327333.391 8  84410954.66546  20613965.063                    20613970.102
 110233233.787 8  85896107.39046  20976666.953                    20976674.027
 11  7 30  1 30  0.0000000  0 10G12G05G25G04G27G28G09G17G02G10
 114433162.580 8  89168743.39746  21775904.297                    21775911.074
 119109990.163 7  92813056.81545  22665863.203                    22665871.398
 129961524.944 6 101268674.99043  24730837.383                    24730848.051
 111239081.259 8  86680005.36546  21168076.563                    21168084.063
 123800917.973 7  96468288.74343  23558536.523                    23558545.262
 130633877.987 6 101792646.53143  24858795.828                    24858805.176
 122216074.798 7  95233384.21144  23256956.750                    23256966.207
 120156479.146 7  93628545.82445  22864994.422                    22865002.199
 108315662.579 8  84401860.52346  20611744.063                    20611749.512
 110207795.944 8  85876285.70846  20971826.227                    20971833.977
 11  7 30  1 30 30.0000000  0 10G12G05G25G04G27G28G09G17G02G10
 114362713.113 8  89113847.72046  21762498.313                    21762505.395
 119010475.936 7  92735513.33045  22646926.188                    22646934.277
 129857860.949 6 101187897.92343  24711110.516                    24711121.441
 111309029.157 8  86734510.20146  21181387.453                    21181394.922
 123861976.309 6  96515866.57643  23570154.531                    23570164.160
 130740509.855 5 101875736.20443  24879088.453                    24879097.184
 122289658.541 7  95290722.11444  23270959.453                    23270968.668
 120206941.484 7  93667867.12545  22874596.734                    22874605.629
 108304321.891 8  84393023.62746  20609586.180                    20609591.191
 110182959.300 8  85856932.49646  20967099.750                    20967107.371
 11  7 30  1 31  0.0000000  0 10G12G05G25G04G27G28G09G17G02G10
 114292627.384 8  89059235.48445  21749161.227                    21749168.496
 118911161.258 7  92658125.36945  22628026.688                    22628035.414
 129754296.251 6 101107198.24543  24691403.039                    24691414.246
 111379198.724 8  86789187.76746  21194739.867                    21194747.480
 123923187.578 6  96563563.62043  23581802.023                    23581812.164
 130847272.450 4 101958927.71242  24899404.664                    24899413.313
 122363510.627 7  95348269.12244  23285013.016                    23285022.223
 120257544.532 7  93707298.06245  22884226.367                    22884234.148
 108293310.986 8  84384443.70746  20607490.766                    20607495.965
 110158725.562 8  85838049.08646  20962488.273                    20962495.875
 11  7 30  1 31 30.0000000  0  9G12G05G25G04G27G09G17G02G10
 114222908.506 7  89004909.10246  21735894.367                    21735901.922
 118812049.313 7  92580895.35945  22609166.781                    22609174.797
 129650833.572 6 101026578.05644  24671714.391                    24671725.535
 111449588.135 8  86844036.63446  21208134.891                    21208142.434
 123984549.064 6  96611377.68344  23593479.734                    23593489.570
 122437627.874 7  95406022.75344  23299116.828                    23299126.270
 120308289.039 7  93746839.22245  22893882.359                    22893889.988
 108282629.121 8  84376120.17246  20605458.031                    20605463.129
 110135096.283 8  85819636.66946  20957991.180                    20957999.004
 11  7 30  1 32  0.0000000  0  9G12G05G25G04G27G09G17G02G10
 114153558.123 8  88950869.84746  21722697.516                    21722704.164
 118713142.287 7  92503825.02745  22590344.875                    22590353.828
 129547474.581 7 100946038.64144  24652046.203                    24652056.930
 111520194.339 8  86899054.43246  21221570.508                    21221578.563
 124046057.327 7  96659306.11943  23605184.750                    23605193.934
 122512006.112 7  95463979.73744  23313270.438                    23313279.891
 120359175.000 7  93786490.58645  22903566.133                    22903574.238
 108272274.409 8  84368051.56346  20603487.820                    20603492.992
 110112072.003 8  85801695.69146  20953610.211                    20953618.043
 11  7 30  1 32 30.0000000  0 10G12G05G25G04G27G28G09G17G02G10
 114084578.720 8  88897119.67146  21709571.273                    21709578.641
 118614443.060 7  92426916.60945  22571563.328                    22571571.203
 129444221.675 7 100865581.86844  24632396.898                    24632408.492
 111591015.105 8  86954239.43246  21235047.438                    21235055.426
 124107709.427 6  96707346.63543  23616916.039                    23616926.039
 131168322.64515                  24960498.375
 122586642.066 7  95522137.56544  23327473.578                    23327483.199
 120410202.662 7  93826252.38644  22913276.875                    22913283.922
 108262246.024 8  84360237.23946  20601579.469                    20601584.234
 110089653.858 8  85784227.02346  20949344.125                    20949351.719
 11  7 30  1 33  0.0000000  0 10G12G05G25G04G27G28G09G17G02G10
 114015972.676 8  88843660.42046  21696515.461                    21696522.652
 118515954.837 7  92350172.61145  22552821.461                    22552829.727
 129341077.369 7 100785209.72644  24612769.641                    24612780.813
 111662048.245 8  87009589.91346  21248564.531                    21248572.539
 124169502.800 6  96755497.24343  23628674.703                    23628685.156
 131275585.347 6                  24980909.023
 122661532.338 7  95580493.55144  23341724.219                    23341734.176
 120461372.667 7  93866125.10944  22923013.992                    22923021.051
 108252543.135 8  84352676.55046  20599733.211                    20599737.766
 110067843.028 8  85767231.58446  20945193.313                    20945201.094
 11  7 30  1 33 30.0000000  0 10G12G05G25G04G27G28G09G17G02G10
 113947743.126 8  88790494.54246  21683532.383                    21683539.332
 118417680.862 7  92273595.57445  22534120.008                    22534128.602
 129238044.580 7 100704924.46244  24593163.320                    24593174.145
 111733291.922 8  87065104.45846  21262121.938                    21262129.887
 124231434.987 6  96803755.98744  23640460.953                    23640470.320
 131382967.880 6                  25001342.938
 122736673.852 7  95639045.31344  23356023.586                    23356033.160
 120512686.153 7  93906109.66344  22932777.500                    22932786.039
 108243165.412 8  84345369.23946  20597948.258                    20597953.543
 110046641.564 8  85750710.98946  20941159.305                    20941166.684
 11  7 30  1 34  0.0000000  0 10G12G05G25G04G27G28G09G17G02G10
 113879892.182 8  88737623.68446  21670620.398                    21670627.336
 118319623.978 7  92197187.67145  22515460.555                    22515468.766
 129135125.524 7 100624727.83743  24573578.430                    24573589.008
 111804743.816 7  87120781.23545  21275718.773                    21275726.684
 124293502.970 6  96852120.57343  23652271.688                    23652281.414
 131490468.074 6                  25021799.406
 122812063.014 7  95697790.04644  23370370.109                    23370379.215
 120564143.373 7  93946206.18644  22942570.305                    22942578.262
 108234111.492 8  84338314.23446  20596225.727                    20596230.668
 110026050.357 8  85734665.91446  20937240.828                    20937248.328
 11  7 30  1 34 30.0000000  0 10G12G05G25G04G27G28G09G17G02G10
 113812422.476 8  88685049.89046  21657781.375                    21657788.129
 118221787.364 7  92120951.41745  22496843.117                    22496851.258
 129032323.017 7 100544622.04143  24554015.477                    24554026.328
 111876401.885 8  87176618.68345  21289354.695                    21289362.621
 124355704.350 6  96900589.09544  23664107.781                    23664118.918
 131598084.038 6 102543969.63752  25042278.633                    25042284.934
 122887696.528 7  95756725.17944  23384762.438                    23384771.730
 120615744.771 7  93986415.05344  22952389.680                    22952397.730
 108225380.865 8  84331511.14946  20594564.023                    20594569.152
 110006070.736 8  85719097.39246  20933438.961                    20933446.625
 11  7 30  1 35  0.0000000  0 10G12G05G25G04G27G28G09G17G02G10
 113745336.512 8  88632775.10446  21645015.625                    21645022.863
 118124174.033 7  92044889.14145  22478267.586                    22478276.098
 128929639.375 7 100464608.85943  24534475.383                    24534486.418
 111948263.950 8  87232615.07645  21303029.625                    21303037.539
 124418036.357 6  96949159.38343  23675969.633                    23675979.645
 131705813.333 6 102627914.46543  25062777.742                    25062787.543
 122963570.860 7  95815847.93344  23399200.734                    23399210.203
 120667491.159 7  94026736.88545  22962237.188                    22962244.289
 108216972.608 8  84324959.27746  20592964.023                    20592969.336
 109986703.483 8  85704006.05346  20929753.109                    20929760.648
 11  7 30  1 35 30.0000000  0 10G12G05G25G04G27G28G09G17G02G10
 113678636.644 7  88580801.18246  21632322.750                    21632329.672
 118026786.523 7  91969002.82745  22459735.227                    22459743.820
 128827076.800 7 100384689.97443  24514958.969                    24514969.496
 112020327.463 8  87288768.43845  21316742.773                    21316750.477
 124480495.875 6  96997829.09644  23687854.234                    23687865.762
 131813653.586 5 102711945.78342  25083299.836                    25083308.984
 123039682.513 6  95875155.63244  23413684.414                    23413694.492
 120719382.960 7  94067172.02945  22972111.227                    22972119.727
 108208885.129 8  84318657.35146  20591425.156                    20591430.207
 109967949.855 8  85689392.86346  20926184.563                    20926192.383
 11  7 30  1 36  0.0000000  0 10G12G05G25G04G27G28G09G17G02G10
 113612325.222 8  88529129.95146  21619704.281                    21619711.570
 117929628.051 7  91893294.99245  22441247.031                    22441255.008
 128724637.942 7 100304867.52143  24495464.977                    24495475.613
 112092590.572 8  87345077.35245  21330493.961                    21330502.109
 124543080.315 6  97046596.07143  23699765.242                    23699774.809
 131921603.332 5 102796062.42342  25103842.258                    25103852.047
 123116028.145 6  95934645.66344  23428212.555                    23428222.391
 120771420.710 7  94107720.90845  22982014.266                    22982022.094
 108201117.983 8  84312605.03246  20589947.055                    20589952.121
 109949810.923 8  85675258.64846  20922732.773                    20922740.039
 11  7 30  1 36 30.0000000  0 10G12G05G25G04G27G28G09G17G02G10
 113546405.160 7  88477763.67246  21607159.898                    21607167.113
 117832701.821 7  91817768.13845  22422802.305                    22422810.387
 128622325.432 6 100225143.49743  24475995.313                    24476006.910
 112165050.961 8  87401539.97045  21344282.664                    21344290.629
 124605786.921 6  97095458.25443  23711697.477                    23711707.984
 132029660.082 5 102880262.47242  25124403.633                    25124415.090
 123192604.548 7  95994315.49744  23442784.445                    23442794.063
 120823604.892 7  94148383.88345  22991944.445                    22991952.227
 108193670.222 8  84306801.59846  20588529.438                    20588534.965
 109932287.912 8  85661604.38146  20919398.227                    20919406.113
 11  7 30  1 37  0.0000000  0 10G12G05G25G04G27G28G09G17G02G10
 113480878.422 8  88426703.88346  21594690.477                    21594697.715
 117736010.714 7  91742424.48645  22404402.516                    22404410.656
 128520141.828 6 100145519.94143  24456550.273                    24456561.566
 112237706.866 8  87458154.96145  21358109.164                    21358116.359
 124668613.006 6  97144413.53143  23723653.375                    23723663.293
 132137821.56715                  25144987.531
 123269408.121 6  96054162.36744  23457400.047                    23457409.406
 120875936.125 7  94189161.46045  23001902.297                    23001910.496
 108186540.750 8  84301246.17346  20587172.891                    20587178.262
 109915382.113 8  85648431.05146  20916181.508                    20916189.301
 11  7 30  1 37 30.0000000  0 10G12G05G25G04G27G28G09G17G02G10
 113415747.668 7  88375952.64946  21582296.703                    21582304.078
 117639557.595 7  91667266.28345  22386048.172                    22386056.398
 128418089.486 7 100065998.65043  24437130.617                    24437141.586
 112310555.662 8  87514920.25045  21371971.773                    21371979.820
 124731555.640 6  97193459.62043  23735630.422                    23735641.160
 132246086.18215                  25165588.500
 123346435.555 6  96114183.67243  23472057.359                    23472067.336
 120928414.781 7  94230053.89144  23011888.625                    23011897.520
 108179728.720 8  84295938.10546  20585876.789                    20585881.914
 109899093.791 8  85635738.87146  20913081.711                    20913089.473
 11  7 30  1 38  0.0000000  0 10G12G05G25G04G27G28G09G17G02G10
 113351015.469 8  88325511.97746  21569978.711                    21569985.523
 117543345.391 7  91592295.79245  22367739.063                    22367747.504
 128316171.166 6  99986581.77143  24417736.258                    24417747.285
 112383595.691 8  87571834.52945  21385870.742                    21385878.457
 124794612.354 6  97242594.64043  23747630.016                    23747640.488
 132354451.36315                  25186211.500
 123423683.553 6  96174376.86544  23486757.594                    23486767.418
 120981041.395 7  94271061.61445  23021903.031                    23021912.012
 108173233.407 8  84290876.81646  20584640.664                    20584646.125
 109883424.612 8  85623529.13946  20910099.758                    20910107.652
 11  7 30  1 38 30.0000000  0 10G12G05G25G04G27G28G09G17G02G10
 113286683.630 7  88275383.27646  21557736.688                    21557743.574
 117447376.924 7  91517515.23645  22349477.414                    22349485.098
 128214388.984 6  99907271.00043  24398368.109                    24398378.844
 112456824.326 8  87628895.80545  21399805.461                    21399813.430
 124857780.019 6  97291816.09543  23759650.828                    23759660.668
 132462916.09014                  25206852.742
 123501148.252 6  96234738.89143  23501498.789                    23501508.090
 121033816.598 7  94312185.11645  23031946.250                    23031954.266
 108167053.046 8  84286060.95446  20583464.711                    20583469.836
 109868375.131 8  85611802.29146  20907235.875                    20907243.652
 11  7 30  1 39  0.0000000  0  9G12G05G25G04G27G09G17G02G10
 113222755.616 7  88225569.25046  21545571.414                    21545579.070
 117351655.662 7  91442927.30745  22331262.156                    22331269.930
 128112746.068 6  99828068.74943  24379025.430                    24379037.172
 112530239.760 8  87686102.61445  21413775.992                    21413783.926
 124921056.285 6  97341122.20043  23771692.477                    23771702.262
 123578826.778 7  96295267.51643  23516280.797                    23516289.410
 121086741.131 7  94353424.99145  23042017.750                    23042025.586
 108161187.573 8  84281490.46146  20582348.578                    20582353.523
 109853946.495 8  85600559.20146  20904490.391                    20904498.082
 11  7 30  1 39 30.0000000  0  9G12G05G25G04G27G09G17G02G10
 113159233.660 7  88176071.62446  21533483.602                    21533491.195
 117256184.500 7  91368534.26045  22313094.711                    22313102.836
 128011244.778 6  99748976.81843  24359710.969                    24359722.035
 112603840.036 8  87743453.47545  21427782.164                    21427789.906
 124984438.376 6  97390510.73443  23783752.555                    23783763.074
 123656715.592 6  96355960.03644  23531102.313                    23531112.023
 121139815.774 7  94394781.81445  23052117.594                    23052126.082
 108155635.906 8  84277164.49446  20581292.164                    20581297.016
 109840139.709 7  85589800.69646  20901863.180                    20901870.750
 11  7 30  1 40  0.0000000  0  9G12G05G25G04G27G09G17G02G10
 113096119.599 7  88126891.84246  21521473.648                    21521480.570
 117160965.885 7  91294337.99245  22294975.094                    22294982.891
 127909887.400 6  99669997.04543  24340423.531                    24340434.188
 112677622.521 8  87800946.29645  21441822.445                    21441830.430
 125047923.249 6  97439979.37843  23795833.961                    23795844.262
 123734810.910 7  96416813.44344  23545963.109                    23545973.359
 121193040.506 7  94436255.62145  23062245.758                    23062254.199
 108150396.564 8  84273081.88846  20580295.031                    20580300.063
 109826955.378 8  85579527.21046  20899354.133                    20899361.746
 11  7 30  1 40 30.0000000  0  9G12G05G25G04G27G09G17G02G10
 113033416.574 7  88078032.35646  21509541.563                    21509548.992
 117066003.289 7  91220341.22945  22276903.969                    22276912.121
 127808676.782 6  99591131.64143  24321162.984                    24321174.250
 112751585.535 8  87858579.80045  21455896.805                    21455904.637
 125111508.339 6  97489526.09643  23807933.789                    23807944.418
 123813109.700 7  96477825.45344  23560863.516                    23560872.133
 121246415.854 7  94477846.77745  23072403.055                    23072410.664
 108145469.121 8  84269242.33646  20579357.297                    20579362.543
 109814394.598 8  85569739.59446  20896963.820                    20896971.863
 11  7 30  1 41  0.0000000  0  9G12G05G25G04G27G09G17G02G10
 112971125.462 7  88029493.83846  21497687.984                    21497695.090
 116971299.081 7  91146545.81245  22258882.508                    22258890.805
 127707614.889 6  99512382.15844  24301931.898                    24301942.848
 112825726.370 8  87916351.87245  21470005.258                    21470012.938
 125175190.452 6  97539148.43343  23820051.578                    23820063.066
 123891607.997 7  96538992.88344  23575800.813                    23575810.320
 121299942.312 7  94519555.68544  23082588.500                    23082596.145
 108140851.889 8  84265644.50046  20578478.766                    20578483.699
 109802457.734 8  85560438.16046  20894692.289                    20894699.773
 11  7 30  1 41 30.0000000  0  9G12G05G25G04G27G09G17G02G10
 112909249.566 7  87981278.86446  21485913.289                    21485920.684
 116876856.402 7  91072954.16945  22240910.438                    22240918.574
 127606704.628 7  99433750.81343  24282729.383                    24282740.227
 112900043.081 8  87974260.97545  21484147.188                    21484154.984
 125238966.930 6  97588844.27243  23832188.188                    23832198.367
 123970302.592 7  96600313.27644  23590776.273                    23590785.676
 121353620.251 7  94561382.62544  23092803.375                    23092811.016
 108136543.956 8  84262287.67946  20577659.109                    20577664.332
 109791145.509 8  85551623.45646  20892540.039                    20892547.078
 11  7 30  1 42  0.0000000  0  9G12G05G25G04G27G09G17G02G10
 112847791.103 7  87933389.16146  21474218.305                    21474225.211
 116782677.849 7  90999568.33845  22222988.820                    22222997.023
 127505948.244 7  99355239.39143  24263555.828                    24263566.676
 112974533.359 8  88032305.33345  21498322.313                    21498329.996
 125302834.885 6  97638611.39743  23844342.414                    23844352.227
 124049189.700 7  96661783.70344  23605788.297                    23605797.578
 121407450.245 7  94603328.06945  23103047.336                    23103054.340
 108132543.924 8  84259170.78246  20576897.719                    20576902.879
 109780458.281 8  85543295.77346  20890506.109                    20890513.469
 11  7 30  1 42 30.0000000  0  9G12G05G25G04G27G09G17G02G10
 112786752.442 7  87885826.59146  21462602.711                    21462609.801
 116688766.797 7  90926390.95845  22205118.055                    22205126.238
 127405348.715 7  99276850.17544  24244412.289                    24244423.105
 113049195.720 8  88090483.78645  21512530.172                    21512537.824
 125366791.932 6  97688447.95843  23856512.891                    23856523.781
 124128266.267 7  96723401.71444  23620835.813                    23620845.727
 121461432.868 7  94645392.46044  23113319.180                    23113326.930
 108128851.526 8  84256293.59246  20576195.398                    20576200.117
 109770397.558 8  85535456.26146  20888591.797                    20888598.910
 11  7 30  1 43  0.0000000  0  9G12G05G25G04G27G09G17G02G10
 112726135.874 7  87838592.90746  21451067.484                    21451075.094
 116595126.084 7  90853424.22445  22187298.328                    22187307.047
 127304908.509 7  99198585.12444  24225299.453                    24225309.719
 113124027.867 8  88148794.52745  21526770.297                    21526777.809
 125430835.085 6  97738351.64143  23868699.742                    23868710.309
 124207529.205 6  96785164.98244  23635919.016                    23635928.887
 121515568.653 7  94687576.19245  23123620.813                    23123629.051
 108125465.655 8  84253655.25546  20575550.766                    20575556.168
 109760963.847 8  85528105.32946  20886796.289                    20886803.664
 11  7 30  1 43 30.0000000  0  9G12G05G25G04G27G09G17G02G10
 112665943.530 7  87791689.80546  21439613.477                    21439620.789
 116501758.323 7  90780670.18045  22169531.727                    22169539.668
 127204629.951 7  99120446.05844  24206217.477                    24206227.621
 113199027.403 8  88207235.71345  21541042.445                    21541049.684
 125494961.425 6  97788320.11643  23880902.539                    23880912.875
 124286974.480 6  96847070.29644  23651037.172                    23651046.879
 121569858.001 7  94729879.54644  23133951.516                    23133960.172
 108122384.797 8  84251254.59146  20574964.852                    20574969.941
 109752157.254 8  85521243.06646  20885120.547                    20885128.496
 11  7 30  1 44  0.0000000  0  9G12G05G25G04G27G09G17G02G10
 112606178.469 7  87745119.63846  21428241.063                    21428248.023
 116408666.833 7  90708131.42645  22151816.703                    22151824.797
 127104515.849 6  99042435.12643  24187165.750                    24187176.598
 113274192.646 8  88265806.01545  21555345.641                    21555353.641
 125559168.237 6  97838351.27543  23893121.164                    23893131.723
 124366598.974 6  96909115.27044  23666188.992                    23666199.527
 121624301.547 6  94772303.09345  23144311.969                    23144320.422
 108119608.118 8  84249090.94446  20574436.211                    20574441.648
 109743979.066 8  85514870.47546  20883564.242                    20883571.789
 11  7 30  1 44 30.0000000  0  9G12G05G25G04G27G09G17G02G10
 112546842.498 7  87698883.82446  21416949.563                    21416956.953
 116315854.749 7  90635810.38645  22134154.734                    22134163.434
 127004568.811 6  98964554.36644  24168146.781                    24168156.770
 113349521.463 8  88324503.77545  21569680.359                    21569688.336
 125623452.930 6  97888443.16643  23905354.266                    23905364.426
 124446399.218 6  96971297.21144  23681374.766                    23681384.402
 121678899.866 6  94814847.23644  23154701.883                    23154709.883
 108117134.872 8  84247163.75446  20573965.398                    20573970.859
 109736429.858 8  85508987.99946  20882127.500                    20882134.969
 11  7 30  1 45  0.0000000  0  9G12G05G25G04G27G09G17G02G10
 112487937.953 8  87652984.18846  21405740.414                    21405747.246
 116223324.598 7  90563709.03245  22116547.156                    22116555.156
 126904791.381 6  98886805.78144  24149160.445                    24149170.352
 113425011.786 8  88383327.39045  21584045.672                    21584053.367
 125687812.702 6  97938593.52143  23917601.125                    23917611.848
 124526371.710 6  97033613.34544  23696593.094                    23696602.980
 121733653.314 7  94857512.26944  23165120.766                    23165129.094
 108114963.779 8  84245471.99846  20573552.180                    20573557.723
 109729509.979 8  85503595.90546  20880810.836                    20880818.563
 11  7 30  1 45 30.0000000  0  9G12G05G25G04G27G09G17G02G10
 112429467.498 7  87607422.80446  21394613.680                    21394621.035
 116131078.967 7  90491829.37745  22098993.680                    22099001.332
 126805186.329 6  98809191.51743  24130205.672                    24130215.746
 113500661.758 8  88442275.40345  21598441.227                    21598449.074
 125752244.791 6  97988800.21243  23929863.125                    23929873.512
 124606513.172 6  97096061.16044  23711843.680                    23711853.484
 121788562.491 7  94900298.61844  23175569.633                    23175577.699
 108113093.983 8  84244015.02646  20573196.672                    20573201.648
 109723220.266 8  85498694.84646  20879613.680                    20879621.355
 11  7 30  1 46  0.0000000  0  9G12G05G25G04G27G09G17G02G10
 112371432.832 7  87562200.99746  21383570.148                    21383577.363
 116039121.093 7  90420173.94945  22081494.344                    22081502.086
 126705755.869 7  98731713.29643  24111283.898                    24111294.512
 113576469.086 8  88501346.01645  21612867.055                    21612874.746
 125816746.155 6  98039060.93943  23942136.797                    23942147.762
 124686820.231 6  97158638.01044  23727124.789                    23727135.199
 121843627.621 7  94943206.50444  23186048.211                    23186055.910
 108111523.951 8  84242791.63146  20572897.820                    20572902.840
 109717560.557 8  85494284.69846  20878537.156                    20878544.793
 11  7 30  1 46 30.0000000  0  9G12G05G25G04G27G09G17G02G10
 112313837.073 7  87517321.19946  21372609.961                    21372617.273
 115947454.480 7  90348745.48446  22064050.992                    22064058.633
 126606503.105 7  98654373.51744  24092396.945                    24092407.797
 113652431.874 8  88560537.78745  21627322.477                    21627329.828
 125881314.527 6  98089373.82743  23954424.117                    23954435.016
 124767289.745 6  97221341.42444  23742438.758                    23742448.523
 121898849.654 6  94986236.63344  23196557.086                    23196564.691
 108110253.349 8  84241801.56346  20572656.070                    20572661.695
 109712532.096 8  85490366.42746  20877579.727                    20877587.516
 11  7 30  1 47  0.0000000  0  9G12G05G25G04G27G09G17G02G10
 112256681.387 8  87472784.30246  21361733.656                    21361740.480
 115856081.296 7  90277545.65245  22046663.047                    22046670.793
 126507430.125 6  98577173.82043  24073544.266                    24073554.109
 113728547.752 8  88619848.84645  21641806.234                    21641814.563
 125945946.777 6  98139736.55743  23966723.516                    23966733.891
 124847917.625 6  97284168.25844  23757780.578                    23757791.703
 121954228.594 7  95029389.05244  23207094.992                    23207102.605
 108109280.357 7  84241043.39046  20572471.070                    20572476.039
 109708134.742 7  85486939.93546  20876743.180                    20876750.797
 11  7 30  1 47 30.0000000  0  9G12G05G25G04G27G09G17G02G10
 112199968.663 8  87428592.57546  21350941.672                    21350948.457
 115765004.634 7  90206576.88545  22029331.477                    22029339.367
 126408539.855 7  98500116.50643  24054725.313                    24054736.277
 113804815.298 8  88679278.08045  21656319.727                    21656327.570
 126010640.487 6  98190147.14243  23979033.836                    23979044.852
 124928700.885 6  97347116.15044  23773154.078                    23773164.051
 122009765.438 6  95072664.52444  23217662.758                    23217671.691
 108108604.597 7  84240516.84146  20572342.227                    20572347.441
 109704369.343 7  85484005.86746  20876026.367                    20876033.875
 11  7 30  1 48  0.0000000  0  9G12G05G25G04G27G09G17G02G10
 112143701.639 8  87384748.15446  21340234.344                    21340241.199
 115674227.446 7  90135841.47445  22012057.188                    22012065.496
 126309834.984 7  98423203.64743  24035942.852                    24035953.410
 113881232.275 8  88738823.75345  21670861.695                    21670869.367
 126075392.920 6  98240603.47443  23991356.273                    23991366.777
 125009636.256 6  97410182.56643  23788555.914                    23788565.734
 122065460.289 7  95116063.05745  23228261.859                    23228270.188
 108108224.725 7  84240220.84046  20572270.445                    20572275.242
 109701236.383 7  85481564.62246  20875430.656                    20875438.152
 11  7 30  1 48 30.0000000  0  9G12G05G25G04G27G09G17G02G10
 112087881.782 8  87341252.17046  21329612.039                    21329618.980
 115583752.483 7  90065341.55746  21994840.586                    21994848.348
 126211317.881 7  98346437.09343  24017195.188                    24017205.551
 113957796.708 8  88798484.33345  21685431.172                    21685438.816
 126140200.999 6  98291103.19543  24003688.359                    24003699.902
 125090719.854 7  97473364.52244  23803985.500                    23803995.426
 122121313.661 6  95159585.14544  23238890.086                    23238898.188
 108108139.447 8  84240154.40746  20572253.883                    20572259.242
 109698735.820 8  85479616.14546  20874954.500                    20874962.004
 11  7 30  1 49  0.0000000  0  9G12G05G25G04G27G09G17G02G10
 112032511.683 8  87298106.64446  21319075.523                    21319082.742
 115493582.667 7  89995079.41545  21977681.234                    21977689.426
 126112991.312 7  98269819.02543  23998484.266                    23998495.512
 114034506.459 8  88858258.14345  21700028.500                    21700037.039
 126205062.085 6  98341644.20343  24016030.906                    24016041.938
 125171948.733 6  97536659.64643  23819442.430                    23819452.582
 122177326.147 7  95203231.22744  23249549.133                    23249557.398
 108108347.881 8  84240316.83146  20572293.422                    20572298.445
 109696868.074 8  85478160.77646  20874599.430                    20874606.668
 11  7 30  1 49 30.0000000  0  9G12G05G25G04G27G09G17G02G10
 111977593.114 8  87255312.96846  21308625.070                    21308631.875
 115403720.674 7  89925057.13945  21960581.563                    21960588.816
 126014857.824 6  98193351.37143  23979810.039                    23979821.070
 114111359.792 8  88918143.84945  21714653.852                    21714660.984
 126269973.340 6  98392224.32643  24028383.008                    24028394.813
 125253319.290 6  97600065.17843  23834926.945                    23834937.348
 122233497.949 6  95247001.45144  23260238.070                    23260246.668
 108108848.842 8  84240707.19446  20572388.539                    20572393.609
 109695633.435 8  85477198.72646  20874364.141                    20874371.574
 11  7 30  1 50  0.0000000  0  9G12G05G25G04G27G09G17G02G10
 111923129.109 8  87212873.49846  21298260.398                    21298268.070
 115314169.816 7  89855277.30546  21943539.953                    21943548.117
 125916920.298 7  98117036.44243  23961173.391                    23961184.094
 114188354.825 8  88978139.95845  21729305.313                    21729313.578
 126334932.267 6  98442841.55043  24040744.641                    24040756.152
 125334828.344 6  97663578.64943  23850437.531                    23850447.926
 122289829.771 7  95290896.33744  23270958.219                    23270966.043
 108109641.580 8  84241324.92546  20572539.750                    20572544.789
 109695032.474 8  85476730.45546  20874249.719                    20874257.449
 11  7 30  1 50 30.0000000  0  9G12G05G25G04G27G09G17G02G10
 111869121.130 8  87170789.36646  21287983.203                    21287990.363
 115224932.616 7  89785741.88345  21926559.000                    21926566.680
 125819180.944 7  98040875.88943  23942574.125                    23942584.461
 114265489.001 8  89038244.49745  21743982.875                    21743991.098
 126399935.953 6  98493493.68143  24053115.078                    24053125.492
 125416472.053 6  97727197.03243  23865974.008                    23865984.734
 122346322.190 7  95334916.39144  23281708.570                    23281715.934
 108110724.561 8  84242168.82546  20572745.750                    20572751.184
 109695065.033 8  85476755.83546  20874256.008                    20874263.754
 11  7 30  1 51  0.0000000  0  9G12G05G25G04G27G09G17G02G10
 111815571.209 8  87129062.17946  21277793.195                    21277799.594
 115136011.781 7  89716452.96745  21909638.039                    21909645.867
 125721642.546 7  97964871.93144  23924014.172                    23924024.344
 114342760.697 8  89098456.19345  21758687.641                    21758695.641
 126464981.649 6  98544178.54043  24065493.281                    24065504.102
 125498247.551 6  97790918.08344  23881535.789                    23881545.980
 122402975.233 7  95379061.59944  23292488.977                    23292496.609
 108112096.730 8  84243238.06646  20573006.516                    20573011.793
 109695731.221 8  85477274.96546  20874382.945                    20874390.215
 11  7 30  1 51 30.0000000  0  9G12G05G25G04G27G09G17G02G10
 111762481.989 8  87087693.95846  21267690.648                    21267697.512
 115047410.307 7  89647412.90545  21892777.297                    21892785.316
 125624307.889 7  97889026.73344  23905491.383                    23905501.539
 114420168.092 8  89158773.62545  21773417.609                    21773425.785
 126530066.821 6  98594894.16643  24077878.695                    24077889.520
 125580151.335 6  97854739.18443  23897121.828                    23897130.938
 122459789.670 7  95423332.59244  23303299.844                    23303308.207
 108113757.442 8  84244532.13546  20573322.914                    20573328.074
 109697031.471 8  85478288.15746  20874630.469                    20874637.090
 11  7 30  1 52  0.0000000  0  9G12G05G25G04G27G09G17G02G10
 111709855.125 8  87046686.03546  21257675.969                    21257683.320
 114959130.871 7  89578623.79346  21875978.281                    21875986.223
 125527179.281 7  97813342.07444  23887008.898                    23887018.211
 114497708.938 8  89219195.02045  21788173.156                    21788181.336
 126595188.391 6  98645638.14343  24090270.797                    24090281.242
 125662179.560 7  97918657.18843  23912731.141                    23912740.719
 122516765.914 7  95467729.62844  23314142.359                    23314150.547
 108115704.897 8  84246049.65046  20573693.336                    20573698.535
 109698965.447 8  85479795.17546  20874998.344                    20875005.492
 11  7 30  1 52 30.0000000  0  9G12G05G25G04G27G09G17G02G10
 111657693.881 8  87006040.93446  21247749.945                    21247756.988
 114871176.621 7  89510088.07246  21859240.852                    21859249.180
 125430259.764 7  97737820.34644  23868564.820                    23868575.410
 114575381.706 8  89279719.26045  21802954.125                    21802961.922
 126660343.930 6  98696408.59643  24102668.969                    24102680.055
 125744329.543 7  97982670.09143  23928363.250                    23928373.004
 122573904.453 7  95512253.13644  23325015.406                    23325023.113
 108117938.592 8  84247790.20446  20574118.227                    20574123.672
 109701533.865 8  85481796.55546  20875487.117                    20875494.207
 11  7 30  1 53  0.0000000  0  9G12G05G25G04G27G09G17G02G10
 111605999.268 8  86965759.42646  21237912.828                    21237919.832
 114783550.228 7  89441807.82046  21842566.422                    21842574.340
 125333551.875 7  97662463.56044  23850162.266                    23850172.496
 114653184.450 8  89340344.74545  21817759.516                    21817767.461
 126725530.571 6  98747203.30843  24115073.867                    24115084.953
 125826597.551 6  98046774.94143  23944018.180                    23944028.566
 122631205.486 7  95556903.26444  23335920.172                    23335927.902
 108120457.080 8  84249752.67346  20574597.219                    20574602.832
 109704736.821 8  85484292.38246  20876096.352                    20876103.746
 11  7 30  1 53 30.0000000  0  9G12G05G25G04G27G09G17G02G10
 111554773.812 8  86925843.52446  21228165.250                    21228172.102
 114696254.450 7  89373785.19546  21825954.930                    21825962.848
 125237058.213 7  97587273.66944  23831799.750                    23831810.648
 114731115.085 8  89401069.91045  21832589.477                    21832597.203
 126790745.491 6  98798020.06443  24127484.180                    24127494.563
 125908980.080 7  98110969.04243  23959695.805                    23959706.008
 122688669.690 7  95601680.55544  23346854.789                    23346862.844
 108123259.288 8  84251936.22046  20575130.828                    20575136.004
 109708574.031 8  85487282.43446  20876826.586                    20876833.816
 11  7 30  1 54  0.0000000  0  9G12G05G25G04G27G09G17G02G10
 111504019.352 8  86886294.60246  21218506.766                    21218513.828
 114609292.037 7  89306022.32646  21809406.375                    21809414.262
 125140781.366 7  97512252.74644  23813479.250                    23813489.781
 114809171.855 7  89461893.36345  21847442.750                    21847450.309
 126855986.074 6  98848856.74543  24139899.852                    24139909.785
 125991473.876 7  98175249.87144  23975393.867                    23975403.957
 122746297.407 7  95646585.27244  23357820.797                    23357829.125
 108126344.145 8  84254340.01546  20575717.836                    20575722.910
 109713045.446 8  85490766.67646  20877677.344                    20877684.613
 11  7 30  1 54 30.0000000  0  9G12G05G25G04G27G09G17G02G10
 111453738.458 8  86847114.70046  21208938.633                    21208945.613
 114522666.165 7  89238521.70045  21792922.023                    21792929.309
 125044724.145 7  97437402.95344  23795200.133                    23795210.641
 114887352.836 8  89522813.59745  21862320.180                    21862328.547
 126921249.745 6  98899711.46743  24152317.648                    24152328.664
 126074075.785 6  98239614.91643  23991112.430                    23991122.391
 122804089.082 7  95691617.73244  23368817.750                    23368825.742
 108129710.597 8  84256963.23546  20576358.563                    20576363.949
 109718151.482 8  85494745.41346  20878649.273                    20878656.398
 11  7 30  1 55  0.0000000  0  9G12G05G25G04G27G09G17G02G10
 111403933.165 8  86808305.39946  21199460.750                    21199467.609
 114436379.047 7  89171285.04046  21776501.898                    21776510.066
 124948889.122 7  97362726.31344  23776963.469                    23776974.215
 114965655.918 8  89583828.98745  21877220.258                    21877228.523
 126986533.479 6  98950581.80043  24164741.602                    24164752.164
 126156782.219 6  98304061.41543  24006850.766                    24006860.918
 122862045.194 6  95736778.34544  23379846.555                    23379854.797
 108133357.289 8  84259804.81946  20577052.383                    20577056.906
 109723892.029 8  85499218.59346  20879741.242                    20879748.578
 11  7 30  1 55 30.0000000  0  9G12G05G25G04G27G09G17G02G10
 111354605.006 8  86769867.88746  21190074.086                    21190081.129
 114350433.943 7  89104314.88446  21760147.266                    21760154.809
 124853279.052 7  97288224.96944  23758769.695                    23758779.926
 115044079.461 7  89644938.22545  21892144.141                    21892152.352
 127051834.849 6  99001465.88043  24177167.508                    24177179.113
 126239590.034 7  98368586.90643  24022609.297                    24022618.730
 122920166.230 6  95782067.45644  23390906.813                    23390915.352
 108137283.575 8  84262864.26546  20577799.648                    20577804.887
 109730267.157 8  85504186.23946  20880954.750                    20880961.590
 11  7 30  1 56  0.0000000  0  9G12G05G25G04G27G09G17G02G10
 111305756.330 8  86731803.99546  21180778.570                    21180785.285
 114264833.623 7  89037613.38246  21743857.813                    21743865.637
 124757896.638 7  97213901.00444  23740619.133                    23740629.246
 115122621.620 8  89706139.90745  21907090.180                    21907098.727
 127117151.147 6  99052361.64543  24189597.578                    24189608.305
 126322495.753 6  98433188.68943  24038385.680                    24038396.160
 122978452.379 6  95827485.22244  23401998.742                    23402006.859
 108141488.001 7  84266140.44246  20578599.453                    20578604.637
 109737276.536 7  85509648.11146  20882288.422                    20882295.953
 11  7 30  1 56 30.0000000  0  9G12G05G25G04G27G09G17G02G10
 111257389.203 8  86694115.33346  21171574.656                    21171581.324
 114179580.310 7  88971182.28246  21727634.250                    21727642.242
 124662744.280 7  97139756.35644  23722511.961                    23722522.727
 115201280.318 7  89767432.38045  21922058.836                    21922067.141
 127182479.523 6  99103266.77943  24202029.578                    24202039.957
 126405496.021 6  98497864.14743  24054179.758                    24054190.145
 123036904.296 6  95873032.15144  23413121.055                    23413129.770
 108145969.352 8  84269632.40646  20579452.188                    20579457.773
 109744919.919 8  85515604.00746  20883743.055                    20883751.020
 11  7 30  1 57  0.0000000  0  9G12G05G25G04G27G09G17G02G10
 111209505.666 8  86656803.49546  21162462.172                    21162469.383
 114094677.169 7  88905024.03845  21711477.859                    21711485.688
 124567824.886 7  97065793.18844  23704449.430                    23704458.855
 115280053.948 8  89828814.41945  21937048.844                    21937056.840
 127247817.344 6  99154179.26943  24214460.898                    24214473.754
 126488587.594 6  98562610.72443  24069991.656                    24070002.164
 123095522.244 7  95918708.46644  23424276.000                    23424283.949
 108150726.677 8  84273339.40546  20580357.664                    20580363.027
 109753197.112 8  85522053.78246  20885318.148                    20885325.273
 11  7 30  1 57 30.0000000  0  9G12G05G25G04G27G09G17G02G10
 111162108.041 8  86619870.29746  21153442.883                    21153449.633
 114010127.197 8  88839140.99446  21695388.570                    21695396.594
 124473141.212 7  96992013.74744  23686430.703                    23686442.141
 115358940.956 8  89890284.81745  21952060.297                    21952068.699
 127313161.755 6  99205096.85643  24226896.828                    24226908.008
 126571767.132 6  98627425.85943  24085820.719                    24085831.160
 123154306.727 7  95964514.56544  23435463.117                    23435470.531
 108155759.233 8  84277260.87946  20581315.219                    20581320.801
 109762108.237 8  85528997.52646  20887013.594                    20887021.047
 11  7 30  1 58  0.0000000  0  9G12G05G25G04G27G09G17G02G10
 111115197.680 8  86583316.78146  21144516.258                    21144522.918
 113925932.915 8  88773535.09546  21679366.898                    21679374.563
 124378695.724 7  96918419.89344  23668458.445                    23668469.375
 115437938.988 8  89951841.70645  21967093.359                    21967101.516
 127378510.221 6  99256017.61743  24239332.391                    24239343.820
 126655031.184 6  98692306.87643  24101665.227                    24101676.281
 123213258.153 7  96010450.72344  23446680.852                    23446688.961
 108161065.092 8  84281395.31946  20582324.992                    20582330.125
 109771653.175 8  85536435.15246  20888829.969                    20888837.371
 11  7 30  1 58 30.0000000  0  9G12G05G25G04G27G09G17G02G10
 111068777.011 8  86547144.83846  21135682.539                    21135689.301
 113842097.089 7  88708208.52346  21663413.148                    21663421.273
 124284491.023 7  96845013.66844  23650532.891                    23650542.914
 115517046.278 7  90013483.75745  21982147.242                    21982154.402
 127443859.913 6  99306939.38643  24251768.117                    24251779.160
 126738376.676 6  98757251.33343  24117524.977                    24117535.871
 123272376.827 7  96056517.25444  23457930.703                    23457939.000
 108166643.265 8  84285741.94946  20583386.602                    20583391.484
 109781831.319 8  85544366.19046  20890766.797                    20890773.848
 11  7 30  1 59  0.0000000  0  9G12G05G25G04G27G09G17G02G10
 111022847.411 8  86511355.54946  21126942.508                    21126949.793
 113758622.010 8  88643163.06346  21647528.914                    21647536.531
 124190529.753 7  96771797.13944  23632652.344                    23632662.809
 115596261.131 7  90075209.60145  21997220.781                    21997229.238
 127509208.114 6  99357859.96543  24264203.336                    24264214.855
 126821800.013 6  98822256.44743  24133400.469                    24133410.273
 123331663.042 7  96102714.28244  23469212.570                    23469219.672
 108172492.613 8  84290299.89446  20584499.563                    20584504.434
 109792642.191 8  85552790.27146  20892823.898                    20892831.543
 11  7 30  1 59 30.0000000  0  9G12G05G25G04G27G09G17G02G10
 110977411.330 8  86475950.81346  21118296.453                    21118303.043
 113675510.598 7  88578400.96946  21631713.070                    21631720.891
 124096814.724 7  96698772.50344  23614819.336                    23614829.832
 115675581.762 8  90137017.89045  22012315.102                    22012323.191
 127574552.464 6  99408777.55843  24276638.156                    24276649.621
 126905298.097 6  98887319.82744  24149289.102                    24149300.191
 123391117.053 7  96149042.10244  23480526.359                    23480533.262
 108178612.115 8  84295068.34446  20585664.219                    20585669.008
 109804085.994 8  85561707.53346  20895002.023                    20895009.254
 11  7 30  2  0  0.0000000  0  9G12G05G25G04G27G09G17G02G10
 110932470.529 8  86440932.01546  21109744.594                    21109751.254
 113592765.695 7  88513924.46446  21615967.094                    21615974.957
 124003348.669 7  96625941.86444  23597032.398                    23597043.285
 115755006.341 7  90198907.17245  22027428.977                    22027437.156
 127639890.168 6  99459689.97043  24289071.914                    24289082.543
 126988867.884 6  98952439.04844  24165192.797                    24165202.609
 123450739.592 7  96195501.22444  23491871.758                    23491879.711
 108185000.984 8  84300046.67746  20586880.109                    20586885.063
 109816162.417 8  85571117.74846  20897299.977                    20897307.215
 11  7 30  2  0 30.0000000  0  9G12G05G25G04G27G09G17G02G10
 110888026.981 8  86406300.68746  21101287.000                    21101294.234
 113510389.845 7  88449735.54146  21600291.313                    21600299.219
 123910134.078 7  96553307.16844  23579294.719                    23579305.406
 115834533.065 7  90260876.03045  22042562.578                    22042570.426
 127705218.528 6  99510595.09243  24301503.539                    24301514.813
 127072505.701 6  99017611.31344  24181108.078                    24181118.996
 123510531.012 7  96242091.92544  23503249.852                    23503257.508
 108191657.855 8  84305233.86446  20588146.570                    20588151.793
 109828870.787 8  85581020.37846  20899717.969                    20899725.602
 11  7 30  2  1  0.0000000  0  9G12G05G25G04G27G09G17G02G10
 110844082.773 8  86372058.44646  21092924.836                    21092931.563
 113428385.977 7  88385836.48246  21584686.633                    21584694.484
 123817173.838 7  96480870.68144  23561605.078                    23561615.453
 115914160.340 7  90322923.23745  22057715.117                    22057723.676
 127770534.835 6  99561490.82043  24313932.547                    24313943.938
 127156208.192 7  99082833.94144  24197036.172                    24197046.719
 123570491.735 7  96288814.55544  23514660.344                    23514668.160
 108198581.721 8  84310629.08346  20589464.250                    20589469.375
 109842210.866 8  85591415.26546  20902256.695                    20902264.207
 11  7 30  2  1 30.0000000  0  9G12G05G25G04G27G09G17G02G10
 110800639.083 8  86338206.22546  21084657.945                    21084664.703
 113346756.355 8  88322229.03446  21569152.852                    21569160.617
 123724470.262 7  96408634.17644  23543963.852                    23543974.406
 115993886.017 7  90385047.13145  22072886.789                    22072894.563
 127835836.278 6  99612374.97743  24326359.328                    24326370.070
 127239971.970 6  99148104.35244  24212975.719                    24212987.125
 123630622.002 7  96335669.34444  23526102.609                    23526110.160
 108205770.592 8  84316230.80746  20590832.078                    20590837.531
 109856181.989 8  85602301.86546  20904915.398                    20904922.844
 11  7 30  2  2  0.0000000  0  9G12G05G25G04G27G09G17G02G10
 110757698.563 8  86304746.07546  21076486.641                    21076493.176
 113265503.964 8  88258915.52746  21553691.367                    21553698.820
 123632026.315 7  96336599.98644  23526372.445                    23526382.984
 116073708.685 7  90447246.59745  22088076.641                    22088084.133
 127901120.416 6  99663245.64443  24338782.203                    24338793.672
 127323794.180 7  99213420.26643  24228926.836                    24228938.359
 123690921.998 7  96382656.31444  23537576.828                    23537585.043
 108213223.976 8  84322038.64946  20592250.273                    20592255.715
 109870784.058 8  85613680.12746  20907693.617                    20907700.953
 11  7 30  2  2 30.0000000  0  9G12G05G25G04G27G09G17G02G10
 110715262.820 8  86271679.27146  21068411.156                    21068417.895
 113184631.458 8  88195898.04546  21538301.539                    21538309.465
 123539844.637 7  96264770.15244  23508830.945                    23508841.020
 116153626.573 7  90509520.27545  22103284.242                    22103292.441
 127966384.456 6  99714100.64543  24351201.836                    24351213.688
 127407671.458 6  99278779.10243  24244888.938                    24244899.188
 123751392.355 7  96429776.06244  23549084.375                    23549092.508
 108220940.713 8  84328051.68846  20593718.891                    20593724.121
 109886016.677 7  85625549.70946  20910592.844                    20910599.824
 11  7 30  2  3  0.0000000  0  9G12G05G25G04G27G09G17G02G10
 110673333.746 8  86239007.27146  21060432.242                    21060439.023
 113104141.539 7  88133178.66946  21522984.984                    21522992.742
 123447928.002 7  96193146.85344  23491339.797                    23491350.094
 116233637.972 7  90571866.79445  22118510.148                    22118518.195
 128031626.005 6  99764938.13743  24363617.273                    24363628.508
 127491600.350 6  99344178.17843  24260859.008                    24260870.004
 123812033.300 7  96477028.77044  23560623.531                    23560631.918
 108228919.749 8  84334269.12346  20595237.539                    20595242.590
 109901879.197 8  85637910.12546  20913610.844                    20913618.734
 11  7 30  2  3 30.0000000  0  9G12G05G25G04G27G09G17G02G10
 110631913.167 8  86206731.49746  21052550.273                    21052557.137
 113024036.853 8  88070759.47646  21507741.664                    21507749.250
 123356278.937 7  96121732.02444  23473898.898                    23473909.945
 116313741.051 7  90634284.76645  22133753.727                    22133761.387
 128096842.352 6  99815755.97043  24376026.992                    24376038.215
 127575577.735 6  99409615.02043  24276839.453                    24276850.664
 123872845.334 7  96524414.77544  23572195.781                    23572203.898
 108237159.786 8  84340689.93246  20596805.664                    20596810.211
 109918371.217 7  85650761.06046  20916748.867                    20916756.621
 11  7 30  2  4  0.0000000  0  9G12G05G25G04G27G09G17G02G10
 110591002.952 8  86174853.40946  21044765.352                    21044771.832
 112944319.953 8  88008642.46546  21492572.516                    21492579.527
 123264900.256 7  96050527.90844  23456510.086                    23456521.145
 116393934.357 7  90696773.04745  22149013.047                    22149021.730
 128162030.775 6  99866552.06543  24388432.344                    24388443.750
 127659600.337 6  99475087.12443  24292828.766                    24292839.086
 123933828.612 7  96571934.20044  23583800.484                    23583808.422
 108245659.684 8  84347313.23146  20598422.852                    20598427.832
 109935492.086 8  85664102.00346  20920007.242                    20920014.719
 11  7 30  2  4 30.0000000  0  9G12G05G25G04G27G09G17G02G10
 110550604.474 8  86143374.08146  21037077.859                    21037084.406
 112864993.508 8  87946829.68646  21477476.617                    21477484.602
 123173794.662 7  95979536.56844  23439173.008                    23439184.234
 116474216.036 7  90759330.17245  22164290.094                    22164298.414
 128227188.544 6  99917324.30143  24400831.500                    24400842.738
 127743664.965 6  99540591.91543  24308825.836                    24308836.152
 123994983.396 6  96619587.27944  23595438.977                    23595446.527
 108254418.346 8  84354138.17646  20600089.492                    20600094.902
 109953241.233 7  85677932.51946  20923385.180                    20923392.340
 11  7 30  2  5  0.0000000  0  9G12G05G25G04G27G09G17G02G10
 110510719.636 8  86112295.00046  21029487.555                    21029494.484
 112786059.539 7  87885322.74346  21462455.773                    21462463.125
 123082964.553 7  95908759.89844  23421889.227                    23421900.227
 116554584.316 7  90821954.79845  22179584.336                    22179591.332
 128292312.723 6  99968070.34843  24413224.258                    24413235.492
 127827768.440 6  99606127.03543  24324830.570                    24324840.777
 124056310.224 6  96667374.43544  23607108.336                    23607116.551
 108263434.427 8  84361163.70046  20601805.195                    20601810.297
 109971617.673 8  85692251.84046  20926881.922                    20926889.215
 11  7 30  2  5 30.0000000  0  9G12G05G25G04G27G09G17G02G10
 110471350.216 8  86081617.53446  21021996.133                    21022003.246
 112707521.364 8  87824124.21746  21447510.484                    21447518.203
 122992412.827 7  95838200.12344  23404657.680                    23404668.613
 116635037.534 7  90884645.60545  22194893.563                    22194901.379
 128357401.064 6 100018788.46942  24425610.930                    24425621.957
 127911907.378 6  99671689.76743  24340841.055                    24340852.363
 124117809.552 6  96715295.99444  23618810.859                    23618819.266
 108272707.081 8  84368389.15046  20603569.656                    20603575.141
 109990621.034 8  85707059.65546  20930497.891                    20930505.742
 11  7 30  2  6  0.0000000  0  9G12G05G25G04G27G09G17G02G10
 110432498.020 8  86051343.11046  21014602.891                    21014609.574
 112629381.325 7  87763235.91946  21432640.867                    21432648.453
 122902142.057 7  95767859.30244  23387479.820                    23387490.520
 116715574.122 7  90947401.36245  22210219.148                    22210227.414
 128422451.085 6 100069476.72042  24437989.430                    24438000.164
 127996078.394 6  99737277.46943  24356858.359                    24356869.621
 124179481.399 7  96763351.97644  23630547.016                    23630555.035
 108282234.833 8  84375813.37846  20605383.047                    20605388.074
 110010250.672 8  85722355.49546  20934233.742                    20934241.180
 11  7 30  2  6 30.0000000  0  9G12G05G25G04G27G09G17G02G10
 110394164.752 8  86021473.04046  21007308.211                    21007314.879
 112551641.892 8  87702659.78046  21417847.305                    21417854.941
 122812154.979 7  95697739.50444  23370355.617                    23370366.141
 116796192.217 7  91010220.66045  22225560.492                    22225567.660
 128487459.928 6 100120132.92942  24450359.648                    24450370.949
 128080278.375 6  99802887.77543  24372881.641                    24372891.938
 124241326.313 7  96811542.80444  23642315.305                    23642323.391
 108292016.616 8  84383435.55646  20607244.141                    20607249.449
 110030505.767 8  85738138.68846  20938087.906                    20938095.445
 11  7 30  2  7  0.0000000  0  9G12G05G25G04G27G09G17G02G10
 110356352.188 8  85992008.71746  21000112.523                    21000119.438
 112474305.681 8  87642397.82946  21403130.930                    21403138.336
 122722454.212 7  95627842.81544  23353286.680                    23353296.758
 116876890.250 7  91073102.24945  22240916.375                    22240923.898
 128552425.189 6 100170755.13942  24462722.516                    24462733.609
 128164504.299 6  99868518.27343  24388909.250                    24388920.234
 124303344.482 6  96859868.62444  23654117.211                    23654125.633
 108302051.200 8  84391254.72346  20609153.727                    20609158.926
 110051385.774 8  85754408.83046  20942061.406                    20942068.668
 11  7 30  2  7 30.0000000  0  9G12G05G25G04G27G09G17G02G10
 110319062.365 8  85962951.72446  20993016.766                    20993023.684
 112397375.156 7  87582452.01946  21388491.484                    21388499.055
 122633042.497 7  95558171.35144  23336271.859                    23336282.434
 116957666.651 7  91136044.89045  22256288.281                    22256296.637
 128617344.026 6 100221341.21042  24475076.070                    24475087.387
 128248752.970 6  99934166.50143  24404941.789                    24404952.109
 124365536.222 6  96908329.73144  23665951.883                    23665960.688
 108312337.512 8  84399270.03346  20611111.164                    20611116.121
 110072889.958 8  85771165.36146  20946153.344                    20946160.703
 11  7 30  2  8  0.0000000  0  9G12G05G25G04G27G09G17G02G10
 110282296.108 8  85934302.69846  20986020.398                    20986027.133
 112320852.848 8  87522824.27946  21373929.664                    21373937.191
 122543922.418 7  95488727.15144  23319312.680                    23319323.625
 117038519.850 7  91199047.34545  22271673.531                    22271681.633
 128682214.104 5 100271889.14942  24487419.898                    24487431.344
 128333021.051 6  99999829.84443  24420976.492                    24420987.586
 124427901.573 6  96956926.10844  23677819.344                    23677827.957
 108322874.377 8  84407480.58946  20613116.258                    20613121.469
 110095017.386 8  85788407.52346  20950364.102                    20950371.449
 11  7 30  2  8 30.0000000  0  9G12G05G25G04G27G09G17G02G10
 110246055.029 8  85906062.90146  20979123.703                    20979130.496
 112244741.491 8  87463516.76946  21359446.250                    21359453.582
 122455096.580 7  95419512.22944  23302410.063                    23302420.984
 117119448.043 7  91262108.27145  22287074.398                    22287081.672
 128747032.619 6 100322397.09842  24499755.523                    24499766.973
 128417305.349 6 100065505.84543  24437015.898                    24437026.715
 124490440.948 6  97005658.06344  23689720.125                    23689728.672
 108333660.420 8  84415885.30446  20615168.938                    20615173.867
 110117767.028 8  85806134.52946  20954692.984                    20954700.727
 11  7 30  2  9  0.0000000  0  9G12G05G25G04G27G09G17G02G10
 110210340.971 8  85878233.78346  20972327.813                    20972334.684
 112169043.143 7  87404531.07546  21345041.586                    21345048.637
 122366567.589 7  95350528.60444  23285562.906                    23285573.703
 117200449.446 7  91325226.23845  22302488.055                    22302496.129
 128811796.766 6 100372862.62142  24512079.391                    24512090.488
 128501602.746 6 100131192.00843  24453057.813                    24453068.152
 124553154.861 6  97054526.03844  23701654.891                    23701662.570
 108344694.425 8  84424483.23746  20617268.602                    20617273.563
 110141138.090 8  85824345.75846  20959140.813                    20959148.020
 11  7 30  2  9 30.0000000  0  9G12G05G25G04G27G09G17G02G10
 110175156.075 8  85850816.98346  20965632.063                    20965639.117
 112093760.674 8  87345869.44946  21330715.320                    21330723.129
 122278338.389 7  95281778.60244  23268774.047                    23268784.203
 117281522.725 7  91388400.19945  22317915.977                    22317924.199
 128876504.325 6 100423283.98642  24524392.547                    24524404.250
 128585909.927 6 100196885.84143  24469099.914                    24469111.145
 124616043.574 6  97103530.23844  23713622.234                    23713629.684
 108355975.583 8  84433273.75746  20619415.336                    20619419.980
 110165130.081 8  85843040.82346  20963705.891                    20963713.082
 11  7 30  2 10  0.0000000  0  9G12G05G25G04G27G09G17G02G10
 110140501.495 8  85823813.42046  20959037.500                    20959044.559
 112018896.325 8  87287533.63546  21316469.102                    21316476.801
 122190411.631 7  95213264.24444  23252042.273                    23252052.133
 117362666.379 7  91451628.99545  22333357.023                    22333364.898
 128941152.627 6 100473659.23143  24536695.023                    24536706.879
 128670223.701 6 100262584.76543  24485144.883                    24485155.789
 124679107.254 6  97152670.77444  23725622.609                    23725630.078
 108367502.706 8  84442255.93946  20621608.516                    20621613.723
 110189741.951 8  85862218.92946  20968389.406                    20968396.793
 11  7 30  2 10 30.0000000  0  9G12G05G25G04G27G09G17G02G10
 110106378.674 8  85797224.21646  20952544.281                    20952551.035
 111944452.938 8  87229525.84746  21302302.625                    21302310.539
 122102789.910 7  95144987.59044  23235367.945                    23235378.688
 117443878.715 7  91514911.30444  22348811.344                    22348819.160
 129005739.187 6 100523986.40443  24548985.898                    24548997.152
 128754541.065 6 100328286.54043  24501190.172                    24501200.926
 124742346.399 6  97201948.03344  23737655.914                    23737664.141
 108379274.898 8  84451429.07546  20623848.672                    20623853.844
 110214972.878 8  85881879.39446  20973190.727                    20973198.184
 11  7 30  2 11  0.0000000  0  9G12G05G25G04G27G09G17G02G10
 110072789.556 8  85771050.88546  20946152.273                    20946159.219
 111870432.940 8  87171847.96546  21288217.359                    21288224.785
 122015475.913 7  95076950.74444  23218752.625                    23218762.887
 117525158.332 7  91578246.05945  22364278.531                    22364286.215
 129070261.304 6 100574263.30743  24561263.453                    24561274.875
 128838858.915 6 100393988.67043  24517235.359                    24517245.867
 124805761.008 6  97251361.99244  23749724.125                    23749731.801
 108391290.674 8  84460792.01946  20626135.398                    20626140.602
 110240821.707 8  85902021.34446  20978110.086                    20978116.648
 11  7 30  2 11 30.0000000  0  9G12G05G25G04G27G09G17G02G10
 110039735.435 8  85745294.43646  20939862.320                    20939869.359
 111796838.496 8  87114501.68146  21274212.633                    21274220.156
 121928472.263 7  95009155.70044  23202196.250                    23202206.742
 117606503.376 7  91641631.77845  22379757.500                    22379765.746
 129134716.552 6 100624488.12743  24573528.680                    24573540.613
 128923174.049 6 100459688.67843  24533280.266                    24533291.422
 124869351.490 6  97300913.03343  23761824.406                    23761832.230
 108403548.661 8  84470343.69946  20628467.742                    20628473.184
 110267287.531 7  85922644.07545  20983145.859                    20983152.977
 11  7 30  2 12  0.0000000  0  9G12G05G25G04G27G09G17G02G10
 110007217.659 8  85719955.91246  20933674.641                    20933681.402
 111723671.919 8  87057488.81246  21260289.578                    21260296.906
 121841781.484 7  94941604.48344  23185699.578                    23185710.258
 117687912.546 7  91705067.48945  22395249.359                    22395257.320
 129199102.022 6 100674658.55743  24585781.313                    24585793.422
 129007483.349 6 100525384.14343  24549323.414                    24549334.859
 124933117.885 6  97350601.10243  23773959.070                    23773967.039
 108416047.757 8  84480083.25446  20630846.617                    20630851.613
 110294369.215 8  85943746.70046  20988299.578                    20988306.863
 11  7 30  2 12 30.0000000  0  9G12G05G25G04G27G09G17G02G10
 109975238.416 8  85695037.03446  20927589.297                    20927595.875
 111650936.163 8  87000811.62846  21246448.617                    21246456.051
 121755406.573 7  94874299.37344  23169262.883                    23169273.715
 117769384.256 7  91768551.93144  22410752.766                    22410760.363
 129263415.747 6 100724773.08043  24598019.227                    24598031.984
 129091783.722 6 100591072.64143  24565365.344                    24565376.762
 124997060.715 6  97400426.69943  23786126.453                    23786134.371
 108428787.221 8  84490010.10646  20633270.578                    20633276.223
 110322066.022 7  85965328.63446  20993569.781                    20993577.098
 11  7 30  2 13  0.0000000  0  9G12G05G25G04G27G09G17G02G10
 109943798.290 8  85670538.24846  20921606.250                    20921613.285
 111578632.964 8  86944471.51546  21232689.391                    21232697.301
 121669349.801 7  94807242.18444  23152887.000                    23152897.305
 117850916.688 7  91832083.69045  22426268.156                    22426276.211
 129327654.790 6 100774829.40443  24610244.734                    24610256.109
 129176071.869 6 100656751.65243  24581404.711                    24581416.105
 125061180.100 6  97450389.82543  23798328.047                    23798336.484
 108441765.363 8  84500122.95446  20635740.313                    20635745.637
 110350376.898 8  85987389.06446  20998957.352                    20998964.426
 11  7 30  2 13 30.0000000  0  9G12G05G25G04G27G09G17G02G10
 109912898.810 8  85646460.73446  20915726.305                    20915733.168
 111506765.001 8  86888470.53346  21219013.453                    21219021.109
 121583613.926 7  94740435.02444  23136572.305                    23136582.168
 117932508.678 7  91895661.86244  22441794.922                    22441802.434
 129391816.750 6 100824825.67743  24622454.336                    24622465.871
 129260344.697 6 100722418.72743  24597441.766                    24597452.914
 125125476.296 6  97500490.74243  23810563.656                    23810571.000
 108454981.418 8  84510421.18146  20638255.453                    20638260.754
 110379300.532 8  86009926.98046  21004461.047                    21004468.945
 11  7 30  2 14  0.0000000  0  9G12G05G25G04G27G09G17G02G10
 109882541.868 8  85622805.98746  20909949.523                    20909956.457
 111435334.620 8  86832810.53946  21205420.859                    21205428.387
 121498201.621 7  94673880.00344  23120318.570                    23120329.477
 118014158.509 7  91959285.06944  22457331.906                    22457340.598
 129455899.092 6 100874759.92543  24634647.742                    24634660.129
 129344599.226 6 100788071.52543  24613474.906                    24613485.957
 125189949.494 6  97550729.66543  23822832.398                    23822839.887
 108468433.891 8  84520903.63746  20640815.539                    20640820.535
 110408835.714 8  86032941.40546  21010081.641                    21010088.938
 11  7 30  2 14 30.0000000  0  9G12G05G25G04G27G09G17G02G10
 109852728.453 8  85599574.76546  20904275.875                    20904283.172
 111364344.216 8  86777493.37146  21191911.891                    21191919.473
 121413115.479 7  94607579.14544  23104127.156                    23104137.379
 118095864.630 7  92022952.15445  22472879.969                    22472888.270
 129519899.238 5 100924630.10143  24646826.984                    24646839.113
 129428832.311 6 100853707.67043  24629503.477                    24629515.215
 125254599.932 6  97601106.63643  23835135.070                    23835142.438
 108482121.733 8  84531569.48446  20643419.875                    20643425.371
 110438981.192 8  86056431.39446  21015817.930                    21015825.289
 11  7 30  2 15  0.0000000  0  9G12G05G25G04G27G09G17G02G10
 109823460.081 8  85576768.26146  20898706.914                    20898713.113
 111293796.004 8  86722520.77946  21178486.641                    21178494.184
 121328358.218 7  94541534.54644  23087998.336                    23088008.641
 118177625.857 7  92086662.18645  22488438.703                    22488447.176
 129583814.852 5 100974434.43342  24658989.586                    24659001.621
 129513041.169 6 100919324.89943  24645528.906                    24645539.582
 125319427.885 6  97651621.91743  23847470.664                    23847479.555
 108496044.154 8  84542418.13046  20646069.539                    20646074.535
 110469735.938 8  86080396.14246  21021670.773                    21021678.133
 11  7 30  2 15 30.0000000  0  9G12G05G25G04G27G09G17G02G10
 109794738.573 8  85554387.87746  20893241.109                    20893248.316
 111223692.880 8  86667895.00246  21165146.445                    21165154.156
 121243932.774 7  94475748.51245  23071932.758                    23071942.883
 118259440.784 7  92150414.05244  22504007.625                    22504016.203
 129647643.533 5 101024170.98142  24671134.672                    24671148.117
 129597222.601 6 100984920.73843  24661547.586                    24661558.750
 125384433.644 6  97702275.78144  23859841.375                    23859849.535
 108510199.908 8  84553448.59946  20648763.539                    20648768.172
 110501099.259 8  86104835.10146  21027638.750                    21027645.984
 11  7 30  2 16  0.0000000  0 10G12G05G25G29G04G27G09G17G02G10
 109766564.633 8  85532434.17546  20887879.930                    20887886.664
 111154036.608 8  86613617.42246  21151891.398                    21151898.988
 121159841.225 7  94410222.65645  23055930.375                    23055940.727
 131930372.18715                  25105514.008
 118341307.528 7  92214206.29145  22519586.578                    22519595.023
 129711382.390 5 101073837.52043  24683264.594                    24683277.305
 129681373.226 6 101050492.59343  24677560.867                    24677571.980
 125449617.207 6  97753068.18544  23872245.750                    23872253.414
 108524587.298 8  84564659.55246  20651500.977                    20651505.922
 110533069.478 7  86129746.96646  21033722.320                    21033729.863
 11  7 30  2 16 30.0000000  0 10G12G05G25G29G04G27G09G17G02G10
 109738939.993 8  85510908.49246  20882622.586                    20882630.035
 111084829.253 8  86559689.64646  21138721.578                    21138729.223
 121076086.399 7  94344959.16944  23039992.883                    23040002.973
 131852659.389 4                  25090724.906
 118423224.675 7  92278037.83145  22535175.289                    22535182.855
 129775029.063 5 101123432.29643  24695377.734                    24695388.996
 129765489.955 6 101116038.00843  24693567.766                    24693578.859
 125514978.751 6  97803999.27344  23884683.672                    23884691.605
 108539205.368 8  84576050.27146  20654282.336                    20654287.961
 110565645.314 8  86155130.74846  21039921.781                    21039928.516
 11  7 30  2 17  0.0000000  0 10G12G05G25G29G04G27G09G17G02G10
 109711865.475 8  85489811.48246  20877470.727                    20877477.691
 111016073.306 8  86506113.62246  21125638.023                    21125644.852
 120992670.720 7  94279959.97144  23024119.125                    23024129.793
 131774864.709 4                  25075920.133
 118505190.759 7  92341907.49844  22550772.172                    22550780.426
 129838580.84016 101172953.05652  24707471.484                    24707483.004
 129849569.694 5 101181554.57342  24709566.906                    24709579.039
 125580518.623 6  97855069.31144  23897155.547                    23897163.746
 108554052.889 8  84587619.77646  20657107.719                    20657113.199
 110598825.533 8  86180985.48446  21046235.227                    21046242.797
 11  7 30  2 17 30.0000000  0 10G12G05G25G29G04G27G09G17G02G10
 109685342.458 8  85469144.21946  20872423.813                    20872430.441
 110947771.454 8  86452891.43246  21112640.195                    21112647.754
 120909597.065 7  94215227.26945  23008310.617                    23008320.938
 131696988.72215                  25061100.617
 118587204.432 7  92405814.25244  22566378.633                    22566387.488
 129902035.549 6 101222398.29543  24719545.492                    24719557.559
 129933609.740 6 101247040.27843  24725560.258                    24725571.230
 125646236.934 6  97906278.37344  23909661.055                    23909669.328
 108569129.143 8  84599367.51246  20659976.750                    20659981.945
 110632608.872 8  86207310.16246  21052664.242                    21052671.449
 11  7 30  2 18  0.0000000  0 10G12G05G25G29G04G27G09G17G02G10
 109659372.415 8  85448907.83646  20867481.789                    20867488.824
 110879925.449 8  86400024.46246  21099729.766                    21099737.199
 120826868.013 7  94150763.09945  22992567.961                    22992578.215
 131619032.006 4                  25046266.016
 118669264.264 7  92469756.95044  22581994.188                    22582002.613
 129965390.697 5 101271765.89843  24731601.313                    24731613.199
 130017606.862 6 101312492.50143  24741544.742                    24741555.488
 125712133.839 6  97957626.59944  23922200.844                    23922209.109
 108584432.640 8  84611292.32546  20662888.914                    20662894.121
 110666994.207 8  86234103.94246  21059207.383                    21059214.641
 11  7 30  2 18 30.0000000  0 10G12G05G25G29G04G27G09G17G02G10
 109633956.477 8  85429103.22446  20862645.445                    20862652.266
 110812537.840 8  86347514.66846  21086906.281                    21086913.969
 120744486.144 7  94086569.46945  22976890.438                    22976901.777
 131540994.503 5                  25031415.961
 118751368.902 7  92533734.59844  22597618.367                    22597626.086
 130028643.83615 101321053.97052  24743638.609                    24743650.523
 130101558.201 6 101377909.02243  24757520.430                    24757531.484
 125778209.596 6  98009114.16644  23934775.055                    23934782.684
 108599961.879 8  84623393.03946  20665843.938                    20665849.250
 110701979.953 8  86261365.57545  21065864.961                    21065872.066
 11  7 30  2 19  0.0000000  0 10G12G05G25G29G04G27G09G17G02G10
 109609095.900 8  85409731.36146  20857914.219                    20857920.875
 110745610.478 8  86295363.51146  21074170.367                    21074177.605
 120662454.007 7  94022648.36445  22961281.148                    22961291.594
 131462876.379 5                  25016550.547
 118833516.913 7  92597746.01244  22613250.805                    22613258.988
 130091792.347 5 101370260.50442  24755655.352                    24755667.004
 130185460.560 6 101443287.47142  24773485.672                    24773497.145
 125844464.285 6  98060741.19844  23947382.500                    23947391.617
 108615716.507 8  84635669.39146  20668842.047                    20668847.496
 110737564.824 7  86289094.05846  21072636.422                    21072644.125
 11  7 30  2 19 30.0000000  0 10G12G05G25G29G04G27G09G17G02G10
 109584791.769 8  85390793.09846  20853289.578                    20853296.500
 110679145.961 8  86243573.01446  21061522.547                    21061529.820
 120580774.320 7  93959001.87145  22945738.211                    22945748.141
 131384677.923 5                  25001670.398
 118915706.774 7  92661790.05344  22628890.852                    22628898.906
 130154833.860 5 101419383.65743  24767652.063                    24767663.492
 130269311.068 6 101508625.51142  24789442.844                    24789454.180
 125910898.102 6  98112507.78643  23960024.453                    23960033.340
 108631695.113 8  84648120.26346  20671882.680                    20671888.105
 110773747.290 8  86317288.20046  21079522.164                    21079528.973
 11  7 30  2 20  0.0000000  0 10G12G05G25G29G04G27G09G17G02G10
 109561045.613 8  85372289.61246  20848770.766                    20848777.707
 110613146.227 8  86192144.67446  21048963.273                    21048970.402
 120499449.538 7  93895631.95045  22930262.117                    22930272.645
 131306399.682 5                  24986774.156
 118997937.142 7  92725865.65744  22644538.383                    22644547.078
 130217766.003 6 101468421.68142  24779627.352                    24779639.168
 130353106.670 6 101573920.66942  24805387.695                    24805399.191
 125977511.256 6  98164414.12943  23972700.547                    23972709.102
 108647896.404 8  84660744.65746  20674965.477                    20674971.000
 110810526.078 8  86345946.99545  21086520.484                    21086528.211
 11  7 30  2 20 30.0000000  0 10G12G05G25G29G04G27G09G17G02G10
 109537858.352 8  85354221.62546  20844358.195                    20844365.223
 110547613.322 8  86141080.11346  21036492.695                    21036500.117
 120418482.310 7  93832540.64745  22914854.859                    22914865.133
 131228041.646 4                  24971863.117
 119080206.876 7  92789971.94544  22660193.859                    22660202.441
 130280586.274 6 101517372.44342  24791582.055                    24791592.914
 130436844.333 6 101639170.79342  24821321.563                    24821334.188
 126044303.638 6  98216460.10944  23985410.008                    23985418.793
 108664319.100 8  84673541.56746  20678090.781                    20678096.086
 110847899.666 8  86375069.27446  21093632.266                    21093639.254
 11  7 30  2 21  0.0000000  0 10G12G05G25G29G04G27G09G17G02G10
 109515230.955 8  85336589.90246  20840052.281                    20840059.266
 110482549.748 8  86090381.25446  21024111.617                    21024118.832
 120337875.229 7  93769729.96645  22899515.633                    22899526.227
 131149604.22715                  24956936.750
 119162514.145 7  92854107.46044  22675857.000                    22675864.738
 130343292.064 6 101566234.03742  24803513.992                    24803526.164
 130520521.323 6 101704373.52842  24837246.391                    24837257.828
 126111275.734 6  98268646.13444  23998154.680                    23998163.473
 108680962.323 8  84686510.32146  20681257.945                    20681263.430
 110885866.517 7  86404653.85746  21100857.781                    21100864.484
 11  7 30  2 21 30.0000000  0 10G12G05G25G29G04G27G09G17G02G10
 109493164.523 8  85319395.29546  20835853.336                    20835860.082
 110417957.518 8  86040049.68246  21011819.734                    21011827.613
 120257630.854 7  93707201.92445  22884245.531                    22884256.172
 131071087.846 5                  24941994.742
 119244857.871 7  92918271.38944  22691526.516                    22691534.520
 130405881.230 6 101615004.75443  24815424.836                    24815436.484
 130604134.266 6 101769526.42542  24853156.773                    24853168.938
 126178427.482 6  98320972.16243  24010934.000                    24010942.066
 108697824.791 8  84699649.92046  20684466.758                    20684471.910
 110924425.186 8  86434699.58945  21108194.938                    21108202.156
 11  7 30  2 22  0.0000000  0 10G12G05G25G29G04G27G09G17G02G10
 109471660.357 8  85302638.80346  20831761.219                    20831768.105
 110353838.512 8  85990086.85346  20999618.367                    20999625.859
 120177751.703 7  93644958.45745  22869044.922                    22869055.406
 130992492.68715                  24927039.633
 119327236.957 7  92982462.87744  22707202.063                    22707210.539
 130468351.265 6 101663682.75342  24827312.695                    24827324.180
 130687680.438 6 101834627.26343  24869055.352                    24869066.969
 126245758.968 6  98373438.23343  24023746.016                    24023754.883
 108714905.173 8  84712959.32446  20687717.234                    20687722.195
 110963574.170 8  86465205.30346  21115644.313                    21115651.633
 11  7 30  2 22 30.0000000  0 10G12G05G25G29G04G27G09G17G02G10
 109450719.548 8  85286321.30446  20827776.008                    20827782.914
 110290195.132 8  85940494.63646  20987507.453                    20987514.781
 120098240.372 7  93583001.61845  22853914.047                    22853924.738
 130913819.36615                  24912068.906
 119409649.665 7  93046680.55844  22722885.484                    22722893.141
 130530699.863 6 101712265.98542  24839176.992                    24839189.664
 130771156.895 6 101899673.82943  24884940.516                    24884952.121
 126313270.530 6  98426044.62343  24036594.266                    24036601.629
 108732202.764 8  84726437.98146  20691008.625                    20691013.688
 111003311.756 8  86496169.65846  21123206.672                    21123213.703
 11  7 30  2 23  0.0000000  0 10G12G05G25G29G04G27G09G17G02G10
 109430342.907 8  85270443.41246  20823898.766                    20823905.547
 110227029.323 8  85891274.55546  20975487.508                    20975494.723
 120019099.385 7  93521333.33045  22838854.164                    22838864.160
 130835068.09715                  24897083.148
 119492094.858 7  93110923.55344  22738573.695                    22738582.277
 130592924.653 6 101760752.76642  24851017.531                    24851031.000
 130854560.455 6 101964663.56543  24900811.695                    24900823.563
 126380962.239 6  98478791.39643  24049475.008                    24049482.641
 108749716.017 8  84740084.67846  20694341.266                    20694346.469
 111043636.819 8  86527591.80645  21130880.227                    21130887.441
 11  7 30  2 23 30.0000000  0 10G12G05G25G29G04G27G09G17G02G10
 109410531.180 8  85255005.70746  20820128.523                    20820135.609
 110164343.305 8  85842428.33546  20963558.875                    20963565.629
 119940331.347 7  93459955.67945  22823865.641                    22823875.598
 130756238.29915                  24882082.484
 119574571.131 7  93175190.76344  22754268.531                    22754276.402
 130655023.225 6 101809141.25942  24862835.164                    24862847.488
 130937888.499 6 102029594.44343  24916667.516                    24916679.871
 126448834.198 6  98531678.65943  24062390.227                    24062397.844
 108767444.094 8  84753898.78046  20697715.125                    20697720.402
 111084547.367 7  86559470.17345  21138665.133                    21138672.250
 11  7 30  2 24  0.0000000  0 10G12G05G25G29G04G27G09G17G02G10
 109391285.649 8  85240009.20046  20816466.172                    20816473.316
 110102138.956 8  85793957.44946  20951721.523                    20951728.965
 119861938.861 7  93398870.65745  22808947.617                    22808957.953
 130677331.83515                  24867066.914
 119657077.316 7  93239481.25944  22769968.875                    22769977.492
 130716993.184 6 101857429.51642  24874627.117                    24874639.367
 131021138.175 6 102094464.28943  24932510.813                    24932521.863
 126516886.148 6  98584706.17743  24075340.172                    24075347.512
 108785385.984 8  84767879.48246  20701129.063                    20701134.410
 111126041.948 8  86591803.61845  21146561.031                    21146568.570
 11  7 30  2 24 30.0000000  0 10G12G05G25G29G04G27G09G17G02G10
 109372607.386 8  85225454.70546  20812911.797                    20812918.848
 110040418.206 8  85745863.38646  20939976.477                    20939983.949
 119783924.345 7  93338080.14845  22794102.195                    22794112.598
 130598348.36015                  24852036.695
 119739611.852 7  93303793.89344  22785674.672                    22785682.832
 130778832.013 6 101905615.65142  24886394.539                    24886407.262
 131104306.113 6 102159270.44943  24948336.227                    24948347.926
 126585118.521 6  98637874.23443  24088324.820                    24088332.363
 108803539.831 8  84782025.34746  20704583.727                    20704588.832
 111168118.578 8  86624590.61046  21154567.719                    21154575.426
 11  7 30  2 25  0.0000000  0 10G12G05G25G29G04G27G09G17G02G10
 109354497.219 8  85211342.89146  20809465.984                    20809472.770
 109979183.046 8  85698147.71146  20928323.625                    20928330.793
 119706290.352 7  93277586.17745  22779328.523                    22779339.215
 130519288.244 5 101703365.56452  24836991.945                    24837000.422
 119822173.672 7  93368127.76844  22801386.078                    22801393.680
 130840537.390 6 101953697.68842  24898137.813                    24898149.945
 131187389.625 6 102224010.78343  24964148.008                    24964158.262
 126653531.313 6  98691182.92343  24101343.703                    24101350.203
 108821905.130 8  84796335.97946  20708078.375                    20708083.215
 111210775.948 8  86657830.13746  21162685.492                    21162692.594
 11  7 30  2 25 30.0000000  0 10G12G05G25G29G04G27G09G17G02G10
 109336955.985 8  85197674.39846  20806127.938                    20806134.785
 109918435.747 8  85650812.18546  20916764.250                    20916771.141
 119629039.379 7  93217390.66145  22764628.258                    22764638.570
 130440151.849 5 101641700.81642  24821932.820                    24821942.477
 119904761.473 7  93432481.89144  22817101.758                    22817109.805
 130902106.947 6 102001673.99543  24909853.531                    24909865.992
 131270385.787 6 102288683.07743  24979940.523                    24979952.383
 126722124.510 6  98744632.18243  24114396.016                    24114403.129
 108840480.758 8  84810810.50646  20711613.336                    20711618.309
 111254012.591 7  86691521.03545  21170913.328                    21170920.336
 11  7 30  2 26  0.0000000  0 10G12G05G25G29G04G27G09G17G02G10
 109319984.865 8  85184450.15746  20802898.414                    20802905.363
 109858178.203 8  85603858.28046  20905297.500                    20905304.563
 119552173.983 7  93157495.57445  22750001.094                    22750011.336
 130360939.871 5 101579977.19642  24806859.125                    24806868.320
 119987373.869 7  93496855.18944  22832822.906                    22832830.547
 130963538.424 6 102049542.66243  24921543.445                    24921555.758
 131353291.921 6 102353285.17643  24995717.680                    24995728.902
 126790898.262 6  98798222.11743  24127482.945                    24127490.512
 108859265.631 8  84825448.07646  20715187.703                    20715192.656
 111297826.655 8  86725661.88046  21179250.781                    21179258.449
 11  7 30  2 26 30.0000000  0 10G12G05G25G29G04G27G09G17G02G10
 109303584.368 8  85171670.55346  20799777.211                    20799784.016
 109798412.342 8  85557287.50946  20893924.422                    20893931.543
 119475696.622 7  93097902.87645  22735447.906                    22735458.141
 130281652.409 5 101518194.77543  24791770.961                    24791780.949
 120070009.782 7  93561246.80844  22848547.609                    22848555.625
 131024829.153 6 102097301.59342  24933207.164                    24933218.063
 131436104.982 6 102417814.77743  25011475.781                    25011487.785
 126859852.812 6  98851952.90243  24140604.516                    24140612.871
 108878258.373 8  84840247.63246  20718802.195                    20718807.227
 111342216.075 7  86760251.04546  21187697.773                    21187705.480
 11  7 30  2 27  0.0000000  0 10G12G05G25G29G04G27G09G17G02G10
 109287755.686 8  85159336.51846  20796765.289                    20796771.863
 109739140.034 8  85511101.32446  20882645.266                    20882652.141
 119399609.751 7  93038614.45645  22720969.594                    22720979.961
 130202289.773 6 101456353.74143  24776668.922                    24776678.762
 120152667.760 7  93625655.61944  22864276.555                    22864284.809
 131085976.961 6 102144949.20242  24944842.383                    24944854.613
 131518822.094 6 102482269.62543  25027217.477                    25027228.453
 126928987.914 6  98905824.41143  24153760.883                    24153768.938
 108897457.678 8  84855208.14346  20722455.867                    20722460.445
 111387179.451 7  86795287.44446  21196254.000                    21196261.445
 11  7 30  2 27 30.0000000  0 10G12G05G25G29G04G27G09G17G02G10
 109272499.249 8  85147448.39346  20793862.055                    20793868.777
 109680363.295 8  85465301.29646  20871460.117                    20871467.375
 119323916.052 7  92979632.40145  22706565.375                    22706575.762
 130122852.659 6 101394454.68843  24761551.750                    24761562.125
 120235346.765 7  93690080.80944  22880010.563                    22880017.949
 131146979.713 6 102192483.77343  24956452.117                    24956464.066
 131601440.380 6 102546647.40843  25042939.367                    25042950.715
 126998303.841 6  98959836.80443  24166950.938                    24166959.105
 108916862.648 8  84870328.90946  20726148.375                    20726153.398
 111432714.861 7  86830769.59245  21204919.250                    21204926.547
 11  7 30  2 28  0.0000000  0 10G12G05G25G29G04G27G09G17G02G10
 109257815.817 8  85136006.75246  20791067.719                    20791074.848
 109622083.918 8  85419888.83446  20860369.781                    20860377.586
 119248617.848 7  92920958.51645  22692236.281                    22692246.625
 130043341.320 6 101332497.82843  24746422.008                    24746432.090
 120318045.492 7  93754521.37044  22895747.289                    22895755.332
 131207835.128 5 102239903.54042  24968031.117                    24968044.129
 131683957.072 6 102610946.10443  25058641.063                    25058652.574
 127067800.433 6  99013989.96943  24180175.000                    24180183.918
 108936472.367 8  84885609.22446  20729879.977                    20729884.996
 111478820.538 7  86866696.10845  21213692.648                    21213699.621
 11  7 30  2 28 30.0000000  0 10G12G05G25G29G04G27G09G17G02G10
 109243706.545 8  85125012.51946  20788383.055                    20788389.891
 109564303.848 8  85374865.42746  20849374.727                    20849382.020
 119173717.693 7  92862594.77245  22677983.102                    22677993.094
 129963756.366 6 101270483.56943  24731277.508                    24731287.012
 120400762.731 7  93818976.34244  22911487.922                    22911496.176
 131268540.799 5 102287206.62643  24979583.531                    24979595.875
 131766369.142 6 102675163.23243  25074324.141                    25074335.309
 127137477.889 6  99068284.05143  24193435.109                    24193443.105
 108956285.402 7  84901047.96646  20733649.930                    20733655.238
 111525494.652 7  86903065.55246  21222574.492                    21222582.234
 11  7 30  2 29  0.0000000  0 10G12G05G25G29G04G27G09G17G02G10
 109230172.063 7  85114466.17046  20785807.422                    20785814.160
 109507025.002 8  85330232.60146  20838475.008                    20838482.102
 119099217.994 7  92804543.11645  22663806.359                    22663816.723
 129884098.142 6 101208412.29443  24716119.258                    24716128.539
 120483497.200 7  93883444.76244  22927231.742                    22927240.109
 131329094.334 5 102334391.11742  24991105.094                    24991118.590
 131848674.214 6 102739297.00943  25089986.898                    25089997.289
 127207336.050 6  99122718.96444  24206728.188                    24206736.996
 108976300.729 8  84916644.33346  20737458.758                    20737463.949
 111572735.423 7  86939876.54745  21231564.336                    21231571.633
 11  7 30  2 29 30.0000000  0 10G12G05G25G29G04G27G09G17G02G10
 109217213.095 8  85104368.28946  20783341.414                    20783348.156
 109450249.241 8  85285991.77546  20827671.031                    20827678.004
 119025121.301 7  92746805.48545  22649706.430                    22649716.449
 129804367.232 6 101146284.32343  24700946.547                    24700956.418
 120566248.016 7  93947925.90644  22942978.648                    22942986.633
 131389493.70315 102381455.53452  25002600.297                    25002612.559
 131930869.181 6 102803344.93043  25105627.211                    25105638.387
 127277375.105 6  99177294.80443  24220056.914                    24220064.492
 108996517.660 8  84932397.79846  20741306.023                    20741311.219
 111620540.719 7  86977127.44045  21240661.156                    21240668.355
 11  7 30  2 30  0.0000000  0  9G12G05G25G29G04G09G17G02G10
 109204830.353 8  85094719.39846  20780985.164                    20780991.555
 109393978.382 8  85242144.38146  20816962.609                    20816970.086
 118951430.256 7  92689383.92545  22635683.242                    22635693.352
 129724564.260 6 101084100.25443  24685760.797                    24685770.461
 120649013.861 7  94012418.76744  22958728.438                    22958736.645
 132012951.436 5 102867305.04343  25121247.367                    25121258.516
 127347595.278 6  99232011.80443  24233419.289                    24233427.285
 109016935.033 8  84948307.45346  20745191.250                    20745196.164
 111668909.159 7  87014817.13845  21249865.383                    21249872.762
 11  7 30  2 30 30.0000000  0  9G12G05G25G29G04G09G17G02G10
 109193024.204 8  85085519.81346  20778738.508                    20778745.258
 109338213.868 8  85198691.53846  20806351.094                    20806358.742
 118878146.736 7  92632279.93045  22621738.141                    22621747.926
 129644689.079 6 101021859.94943  24670561.320                    24670570.711
 120731793.026 7  94076922.00044  22974480.820                    22974488.707
 132094917.624 6 102931174.71543  25136844.797                    25136856.547
 127417996.287 6  99286869.71443  24246816.344                    24246824.000
 109037551.233 8  84964372.04046  20749114.195                    20749119.543
 111717838.423 7  87052943.83545  21259175.992                    21259183.992
 11  7 30  2 31  0.0000000  0 10G12G05G25G29G04G27G09G17G02G10
 109181795.818 8  85076770.42046  20776601.820                    20776608.504
 109282958.174 8  85155635.18646  20795836.547                    20795843.656
 118805273.807 7  92575495.86745  22607870.563                    22607881.086
 129564742.840 6 100959564.23243  24655347.922                    24655357.199
 120814585.206 7  94141435.40744  22990235.953                    22990243.891
 131569753.76415                  25036901.578
 132176765.774 5 102994952.42143  25152419.688                    25152431.719
 127488578.359 6  99341868.77043  24260247.570                    24260255.910
 109058365.683 8  84980591.10046  20753075.258                    20753080.430
 111767327.012 7  87091506.36545  21268593.773                    21268601.711
 11  7 30  2 31 30.0000000  0 10G12G05G25G29G04G27G09G17G02G10
 109171145.186 8  85068471.23246  20774575.141                    20774581.855
 109228212.324 8  85112976.10946  20785418.211                    20785425.520
 118732813.248 7  92519033.13245  22594081.695                    22594092.379
 129484725.289 6 100897212.95843  24640121.172                    24640130.449
 120897388.576 7  94205957.52444  23005992.773                    23006000.734
 131629513.42015 102568531.68952  25048273.141                    25048284.207
 132258492.029 5 103058635.14243  25167971.164                    25167983.664
 127559340.960 6  99397008.42443  24273712.563                    24273721.371
 109079376.710 8  84996963.34746  20757073.578                    20757078.938
 111817372.293 8  87130502.69345  21278117.039                    21278123.867
 11  7 30  2 32  0.0000000  0 10G12G05G25G29G04G27G09G17G02G10
 109161073.045 8  85060622.81746  20772658.484                    20772665.047
 109173978.320 8  85070715.88246  20775097.914                    20775105.293
 118660767.604 7  92462893.70045  22580371.422                    22580382.324
 129404637.313 6 100834806.80043  24624880.695                    24624889.637
 120980202.263 6  94270487.65744  23021751.867                    23021759.715
 131689107.05115 102614968.26852  25059613.711                    25059625.223
 132340093.825 5 103122220.87542  25183499.734                    25183512.043
 127630284.157 6  99452288.83144  24287212.445                    24287221.484
 109100583.298 8  85013487.97846  20761108.891                    20761114.004
 111867972.693 7  87169931.58645  21287745.922                    21287753.516
 11  7 30  2 32 30.0000000  0 10G12G05G25G29G04G27G09G17G02G10
 109151580.576 8  85053226.09546  20770851.961                    20770858.504
 109120257.976 8  85028855.90246  20764875.375                    20764882.957
 118589139.472 7  92407079.60545  22566741.422                    22566751.961
 129324479.529 6 100772346.22043  24609627.375                    24609636.137
 121063025.067 7  94335024.91544  23037512.438                    23037520.973
 131748532.88715 102661274.07452  25070922.234                    25070933.707
 132421569.04115 103185707.94852  25199004.906                    25199016.129
 127701408.324 6  99507710.23943  24300747.320                    24300755.906
 109121984.622 8  85030164.34046  20765180.938                    20765186.359
 111919126.381 7  87209791.59846  21297479.984                    21297487.668
 11  7 30  2 33  0.0000000  0 10G12G05G25G29G04G27G09G17G02G10
 109142667.655 8  85046280.96646  20769155.883                    20769162.461
 109067052.719 8  84987397.28546  20754750.586                    20754758.191
 118517931.186 7  92351592.66045  22553191.141                    22553201.000
 129244252.213 6 100709831.51643  24594359.883                    24594369.797
 121145855.820 7  94399568.36544  23053274.453                    23053283.203
 131807788.56315 102707447.32552  25082197.117                    25082209.277
 132502914.61715 103249093.98452  25214485.344                    25214496.223
 127772713.226 6  99563272.45644  24314316.195                    24314324.543
 109143579.592 8  85046991.60746  20769290.641                    20769295.879
 111970830.812 7  87250080.77045  21307319.383                    21307326.574
 11  7 30  2 33 30.0000000  0 10G12G05G25G29G04G27G09G17G02G10
 109134334.764 8  85039787.81746  20767570.203                    20767576.652
 109014364.682 8  84946341.70446  20744724.406                    20744731.871
 118447145.146 7  92296434.73645  22539721.023                    22539731.563
 129163956.075 6 100647263.13143  24579080.195                    24579089.879
 121228693.338 7  94464117.07444  23069038.328                    23069046.109
 131866871.84316 102753486.26653  25093439.758                    25093453.121
 132584127.637 5 103312376.83143  25229938.883                    25229950.434
 127844198.763 6  99618975.47144  24327919.828                    24327927.660
 109165367.020 8  85063968.83646  20773436.695                    20773442.168
 112023084.413 7  87290797.85645  21317262.617                    21317269.938
 11  7 30  2 34  0.0000000  0 10G12G05G25G29G04G27G09G17G02G10
 109126583.187 8  85033747.63146  20766095.438                    20766101.703
 108962195.510 8  84905690.42746  20734797.094                    20734804.293
 118376783.818 7  92241607.76045  22526331.453                    22526341.336
 129083591.692 6 100584641.57943  24563787.680                    24563797.219
 121311536.824 7  94528670.41644  23084802.523                    23084810.668
 131925780.767 6 102799389.31543  25104649.992                    25104662.551
 132665205.787 5 103375554.51542  25245366.586                    25245378.688
 127915864.941 7  99674819.21743  24341558.148                    24341565.117
 109187346.007 8  85081095.33646  20777619.266                    20777624.270
 112075885.441 8  87331941.51645  21327310.383                    21327317.117
 11  7 30  2 34 30.0000000  0 10G12G05G25G29G04G27G09G17G02G10
 109119412.580 8  85028160.15446  20764730.742                    20764737.340
 108910546.571 8  84865444.52646  20724968.453                    20724975.527
 118306849.399 7  92187113.43345  22513023.719                    22513033.469
 129003159.439 6 100521967.22443  24548482.023                    24548490.496
 121394384.926 7  94593227.38744  23100568.172                    23100575.926
 131984512.994 6 102845154.67643  25115827.086                    25115839.426
 132746146.088 5 103438624.83743  25260769.672                    25260782.273
 127987711.690 6  99730803.67943  24355229.047                    24355236.961
 109209515.292 8  85098370.11146  20781837.992                    20781842.813
 112129231.371 7  87373509.77945  21337461.563                    21337469.344
 11  7 30  2 35  0.0000000  0 10G12G05G25G29G04G27G09G17G02G10
 109112823.786 8  85023026.03546  20763476.813                    20763483.801
 108859419.484 8  84825605.27646  20715239.414                    20715246.676
 118237344.381 7  92132953.72245  22499797.078                    22499807.145
 128922660.031 6 100459240.45343  24533162.992                    24533172.840
 121477236.855 7  94657787.31744  23116334.570                    23116342.508
 132043066.396 6 102890780.72443  25126969.453                    25126981.750
 132826946.083 6 103501585.84142  25276146.211                    25276157.367
 128059739.084 6  99786928.93343  24368936.070                    24368943.660
 109231874.082 7  85115792.55846  20786092.742                    20786097.254
 112183120.415 7  87415501.23346  21347716.523                    21347723.496
 11  7 30  2 35 30.0000000  0 10G12G05G25G29G04G27G09G17G02G10
 109106817.141 8  85018345.54046  20762333.867                    20762340.828
 108808815.694 8  84786173.77646  20705609.742                    20705616.754
 118168271.049 7  92079130.37045  22486652.898                    22486663.000
 128842093.874 6 100396461.63143  24517831.750                    24517841.242
 121560091.367 6  94722349.26144  23132100.945                    23132109.016
 132101438.687 6 102936265.62543  25138077.148                    25138089.281
 132907602.866 6 103564435.24242  25291493.109                    25291505.402
 128131947.000 6  99843194.82543  24382676.250                    24382684.609
 109254421.046 8  85133361.63946  20790383.016                    20790388.633
 112237550.285 7  87457914.12245  21358074.375                    21358081.313
 11  7 30  2 36  0.0000000  0 10G12G05G25G29G04G27G09G17G02G10
 109101393.117 7  85014119.03246  20761301.320                    20761307.969
 108758737.304 8  84747151.68846  20696080.031                    20696087.215
 118099631.774 7  92025645.26345  22473591.141                    22473601.313
 128761461.583 6 100333631.28943  24502487.664                    24502497.609
 121642947.346 7  94786912.35344  23147868.078                    23147876.152
 132159628.104 6 102981608.06842  25149150.852                    25149162.254
 132988113.847 6 103627170.95643  25306815.141                    25306826.488
 128204335.379 6  99899601.39443  24396451.844                    24396459.754
 109277155.305 8  85151076.65946  20794709.422                    20794714.344
 112292518.701 7  87500746.65645  21368534.570                    21368541.906
 11  7 30  2 36 30.0000000  0 10G12G05G25G29G04G27G09G17G02G10
 109096552.119 8  85010346.83246  20760380.070                    20760386.566
 108709185.966 8  84708540.28446  20686650.805                    20686657.531
 118031428.974 7  91972500.26345  22460612.477                    22460622.723
 128680764.018 6 100270750.10143  24487131.391                    24487141.043
 121725804.023 7  94851475.98444  23163635.273                    23163643.047
 132217632.392 5 103026806.25042  25160188.531                    25160200.922
 133068476.395 6 103689791.14242  25322107.320                    25322118.613
 128276904.119 6  99956148.43543  24410260.055                    24410268.781
 109300076.309 8  85168937.19446  20799071.078                    20799076.238
 112348023.702 7  87543997.30545  21379096.359                    21379103.660
 11  7 30  2 37  0.0000000  0 10G12G05G25G29G04G27G09G17G02G10
 109092294.630 8  85007029.31446  20759570.234                    20759577.020
 108660162.644 8  84670340.32846  20677322.195                    20677328.984
 117963664.845 7  91919697.07845  22447717.438                    22447726.957
 128600001.418 6 100207818.22843  24471763.344                    24471771.938
 121808660.169 7  94916039.20544  23179401.813                    23179410.500
 132275448.915 6 103071858.11942  25171189.953                    25171202.957
 133148687.640 6 103752293.36042  25337370.961                    25337383.328
 128349653.124 6 100012836.00242  24424104.422                    24424112.414
 109323182.103 8  85186941.71746  20803467.898                    20803473.164
 112404063.244 7  87587664.49045  21389760.586                    21389767.422
 11  7 30  2 37 30.0000000  0 10G12G05G25G29G04G27G09G17G02G10
 109088620.449 8  85004166.32246  20758870.797                    20758877.379
 108611669.047 8  84632553.14446  20668093.984                    20668100.973
 117896341.568 7  91867237.40545  22434906.508                    22434916.285
 128519174.512 6 100144836.24443  24456382.484                    24456391.383
 121891514.710 7  94980601.18644  23195168.641                    23195177.102
 132333075.811 6 103116762.14842  25182155.320                    25182168.707
 133228745.010 6 103814675.63042  25352605.281                    25352617.473
 128422582.207 6 100069663.86643  24437982.852                    24437990.434
 109346471.913 8  85205089.62846  20807899.844                    20807904.910
 112460634.867 7  87631746.28245  21400525.773                    21400533.320
 11  7 30  2 38  0.0000000  0 10G12G05G25G29G04G27G09G17G02G10
 109085530.042 8  85001758.22046  20758282.820                    20758289.707
 108563706.669 8  84595179.88746  20658967.180                    20658973.930
 117829461.505 8  91815123.10445  22422179.656                    22422189.543
 128438283.753 6 100081804.52043  24440988.414                    24440998.555
 121974366.468 7  95045160.99944  23210934.711                    23210943.020
 132390510.777 6 103161516.66242  25193085.609                    25193098.504
 133308646.032 6 103876936.20543  25367810.484                    25367822.148
 128495691.443 6 100126632.08643  24451894.734                    24451902.395
 109369944.732 8  85223380.14646  20812366.477                    20812371.477
 112517736.468 7  87676241.02345  21411391.914                    21411399.398
 11  7 30  2 38 30.0000000  0 10G12G05G25G29G04G27G09G17G02G10
 109083023.820 8  84999805.32246  20757805.828                    20757812.457
 108516277.013 8  84558221.74446  20649941.461                    20649948.258
 117763026.896 8  91763355.91845  22409537.453                    22409547.332
 128357330.039 6 100018723.73043  24425583.883                    24425593.676
 122057214.504 7  95109717.89844  23226700.695                    23226708.707
 132447751.906 6                  25203978.500
 133388387.971 6 103939072.73743  25382983.820                    25382996.457
 128568980.491 6 100183740.41043  24465841.016                    24465850.191
 109393599.521 8  85241812.46046  20816868.164                    20816872.738
 112575365.987 7  87721147.14245  21422358.117                    21422365.191
 11  7 30  2 39  0.0000000  0 10G12G05G25G29G04G27G09G17G02G10
 109081102.312 8  84998308.04846  20757440.344                    20757447.453
 108469381.669 8  84521679.95346  20641017.430                    20641024.582
 117697040.067 7  91711937.65345  22396980.117                    22396990.539
 128276313.799 6  99955594.24843  24410167.438                    24410176.590
 122140057.879 7  95174271.16844  23242464.211                    23242473.520
 132504797.157 6                  25214833.648
 133467968.297 6 104001083.32243  25398128.336                    25398140.086
 128642449.434 6 100240988.91043  24479822.820                    24479829.738
 109417435.204 8  85260385.72246  20821403.570                    20821408.363
 112633521.331 7  87766463.00745  21433425.008                    21433432.059
 11  7 30  2 39 30.0000000  0 11G12G05G25G29G04G26G27G09G17G02G10
 109079765.711 8  84997266.54346  20757186.063                    20757192.586
 108423022.090 8  84485555.62846  20632195.734                    20632202.820
 117631503.619 7  91660870.32645  22384508.961                    22384519.254
 128195236.169 6  99892416.88343  24394738.523                    24394748.125
 122222896.203 7  95238820.51744  23258228.867                    23258236.559
 136412222.75416                  25958376.977
 132561644.874 5                  25225651.977
 133547384.511 6 104062966.10942  25413240.906                    25413252.699
 128716098.088 6 100298377.51043  24493837.438                    24493844.707
 109441451.414 8  85279099.66046  20825974.234                    20825979.152
 112692200.619 7  87812187.11845  21444591.094                    21444598.730
 11  7 30  2 40  0.0000000  0 11G12G05G25G29G04G26G27G09G17G02G10
 109079013.773 8  84996680.62246  20757042.906                    20757049.363
 108377199.481 8  84449849.73046  20623476.109                    20623482.957
 117566419.379 7  91610155.38345  22372124.109                    22372134.520
 128114097.390 6  99829191.93343  24379297.875                    24379307.363
 122305727.983 6  95303364.73244  23273990.383                    23273999.566
 136332259.575 4 106232933.20552  25943159.328                    25943169.324
 132618292.891 6                  25236431.266
 133626634.040 6 104124718.95742  25428320.977                    25428333.535
 128789926.436 6 100355906.08843  24507886.023                    24507893.473
 109465646.573 8  85297953.03946  20830578.133                    20830583.137
 112751401.135 8  87858317.40045  21455856.891                    21455864.207
 11  7 30  2 40 30.0000000  0 11G12G05G25G29G04G26G27G09G17G02G10
 109078846.766 8  84996550.48346  20757011.258                    20757018.004
 108331915.210 8  84414563.31046  20614858.461                    20614865.426
 117501789.535 7  91559794.49845  22359825.102                    22359835.875
 128032898.013 6  99765919.71943  24363846.797                    24363855.777
 122388552.109 6  95367903.01343  23289751.625                    23289759.844
 136252005.44415                  25927887.813
 132674737.88515                  25247171.836
 133705714.072 6 104186339.70543  25443369.266                    25443381.488
 128863934.012 6 100413574.37343  24521969.367                    24521977.105
 109490019.459 8  85316944.91146  20835215.992                    20835221.336
 112811120.342 7  87904851.84245  21467221.102                    21467228.246
 11  7 30  2 41  0.0000000  0 11G12G05G25G29G04G26G27G09G17G02G10
 109079264.692 8  84996876.14046  20757090.555                    20757097.504
 108287170.400 8  84379697.25146  20606343.820                    20606350.934
 117437616.155 7  91509789.29845  22347613.586                    22347623.363
 127951638.658 6  99702600.80343  24348383.523                    24348392.875
 122471367.643 6  95432434.54744  23305510.641                    23305519.430
 136171462.127 5 106107650.41852  25912561.086                    25912572.457
 132730978.82615                  25257874.320
 133784621.883 6 104247826.26942  25458386.742                    25458397.578
 128938120.569 6 100471382.06343  24536086.773                    24536093.809
 109514569.009 8  85336074.43146  20839887.922                    20839893.027
 112871355.709 8  87951788.49245  21478683.727                    21478690.898
 11  7 30  2 41 30.0000000  0 11G12G05G25G29G04G26G27G09G17G02G10
 109080267.853 8  84997657.82546  20757281.445                    20757288.219
 108242966.942 8  84345253.02246  20597932.141                    20597939.016
 117373901.739 7  91460141.74945  22335488.914                    22335498.848
 127870320.156 6  99639235.78443  24332909.344                    24332918.254
 122554173.616 6  95496958.67544  23321268.398                    23321276.598
 136090631.736 5 106044665.77742  25897180.078                    25897190.785
 132787013.040 5                  25268537.703
 133863355.152 6 104309176.80543  25473368.422                    25473379.996
 129012486.229 6 100529329.27943  24550237.781                    24550245.613
 109539294.533 8  85355341.07946  20844592.922                    20844597.848
 112932105.845 7  87999126.25245  21490243.828                    21490251.098
 11  7 30  2 42  0.0000000  0 11G12G05G25G29G04G26G27G09G17G02G10
 109081856.638 8  84998895.84046  20757584.203                    20757590.633
 108199305.866 8  84311231.43946  20589623.875                    20589631.074
 117310648.427 7  91410853.48845  22323452.602                    22323462.285
 127788943.249 6  99575825.27043  24317423.570                    24317432.793
 122636969.171 7  95561474.70244  23337023.547                    23337032.617
 136009516.566 6 105981459.12542  25881745.016                    25881755.875
 132842839.13515                  25279160.133
 133941911.155 6 104370389.29043  25488316.695                    25488329.340
 129087030.666 6 100587415.86743  24564423.227                    24564431.004
 109564194.982 8  85374744.03946  20849331.414                    20849336.168
 112993367.850 7  88046862.87745  21501901.391                    21501909.137
 11  7 30  2 42 30.0000000  0 11G12G05G25G29G04G26G27G09G17G02G10
 109084030.686 8  85000589.90246  20757997.602                    20758004.391
 108156188.531 8  84277633.53846  20581418.414                    20581425.496
 117247858.427 7  91361926.25845  22311503.555                    22311513.961
 127707508.602 6  99512369.74843  24301927.078                    24301936.473
 122719753.488 6  95625981.96444  23352776.914                    23352785.676
 135928118.40315                  25866254.906
 132898454.914 5                  25289744.461
 134020287.373 6 104431461.64843  25503231.305                    25503244.059
 129161753.709 6 100645641.61943  24578642.094                    24578650.000
 109589269.602 8  85394282.71046  20854102.773                    20854107.867
 113055139.405 7  88094996.54545  21513656.406                    21513663.379
 11  7 30  2 43  0.0000000  0 11G12G05G25G29G04G26G27G09G17G02G10
 109086790.258 8  85002740.22046  20758522.758                    20758529.668
 108113616.071 8  84244460.22146  20573317.328                    20573324.297
 117185533.637 7  91313361.52945  22299643.633                    22299653.586
 127626016.550 7  99448869.50144  24286420.000                    24286428.758
 122802525.655 6  95690479.74344  23368528.031                    23368536.430
 135846439.655 5                  25850712.492
 132953858.00215                  25300286.211
 134098481.223 6 104492391.84343  25518110.797                    25518123.059
 129236655.511 6 100704006.62243  24592896.383                    24592903.898
 109614516.894 8  85413955.93446  20858907.617                    20858912.355
 113117418.286 7  88143525.54945  21525507.078                    21525514.430
 11  7 30  2 43 30.0000000  0 11G12G05G25G29G04G26G27G09G17G02G10
 109090135.259 8  85005346.71146  20759159.320                    20759166.199
 108071589.812 8  84211712.51646  20565320.141                    20565326.938
 117123676.377 7  91265161.10245  22287872.547                    22287882.684
 127544468.109 6  99385325.32843  24270901.352                    24270910.715
 122885284.653 6  95754967.24044  23384276.578                    23384284.949
 135764482.305 5                  25835115.414
 133009047.06315                  25310789.203
 134176490.332 5 104553178.09942  25532955.930                    25532968.043
 129311735.364 6 100762510.38543  24607182.484                    24607190.848
 109639936.130 8  85433763.14846  20863744.703                    20863749.559
 113180202.014 7  88192447.93045  21537454.578                    21537462.082
 11  7 30  2 44  0.0000000  0 11G12G05G25G29G04G26G27G09G17G02G10
 109094065.884 8  85008409.53746  20759907.438                    20759913.766
 108030111.017 7  84179391.40246  20557427.047                    20557433.813
 117062288.973 7  91217326.80045  22276190.750                    22276201.145
 127462864.270 7  99321737.95244  24255372.641                    24255382.004
 122968029.857 6  95819444.02044  23400022.578                    23400030.477
 135682248.730 5                  25819466.156
 133064018.15115                  25321250.844
 134254312.596 5 104613818.80242  25547764.969                    25547777.523
 129386993.345 6 100821152.96743  24621503.938                    24621511.879
 109665526.611 8  85453703.79346  20868614.359                    20868618.918
 113243488.605 7  88241762.14545  21549497.633                    21549504.848
 11  7 30  2 44 30.0000000  0 10G12G05G25G29G04G26G09G17G02G10
 109098582.058 8  85011928.63146  20760766.664                    20760773.160
 107989181.323 8  84147498.16346  20549638.391                    20549644.895
 117001373.523 8  91169860.24545  22264598.805                    22264609.141
 127381205.954 6  99258108.15544  24239833.906                    24239842.281
 123050760.154 6  95883909.18743  23415766.070                    23415773.816
 135599740.632 5                  25803766.227
 134331945.131 5 104674311.64242  25562537.516                    25562550.500
 129462429.637 6 100879934.48543  24635858.680                    24635867.398
 109691287.116 8  85473776.92046  20873515.891                    20873521.117
 113307275.622 7  88291466.32445  21561635.625                    21561643.379
 11  7 30  2 45  0.0000000  0 10G12G05G25G29G04G26G09G17G02G10
 109103683.479 8  85015903.76846  20761737.320                    20761744.270
 107948801.120 8  84116033.09646  20541954.078                    20541961.016
 116940931.651 8  91122762.71245  22253097.344                    22253107.070
 127299493.222 6  99194435.92144  24224283.969                    24224293.539
 123133474.420 6  95948361.86844  23431505.352                    23431513.496
 135516958.87915                  25788013.594
 134409385.13114 104734654.41352  25577273.063                    25577287.688
 129538043.214 6 100938854.13543  24650247.484                    24650256.586
 109717216.297 8  85493981.48446  20878450.523                    20878454.941
 113371560.235 7  88341558.21345  21573869.094                    21573876.508
 11  7 30  2 45 30.0000000  0 10G12G05G25G29G04G26G09G17G02G10
 109109370.323 8  85020335.08246  20762819.852                    20762826.340
 107908972.240 8  84084997.63846  20534375.055                    20534382.000
 116880966.117 8  91076036.35945  22241686.352                    22241696.371
 127217727.149 7  99130722.14344  24208724.641                    24208733.926
 123216172.366 6  96012801.79544  23447242.797                    23447250.801
 135433908.574 5                  25772209.273
 134486630.80514 104794845.81352  25591971.492                    25591986.645
 129613834.853 6 100997912.50042  24664670.000                    24664678.512
 109743313.811 8  85514317.21746  20883416.195                    20883421.703
 113436340.798 7  88392036.57645  21586196.297                    21586204.000
 11  7 30  2 46  0.0000000  0 11G12G05G25G29G04G26G27G09G17G02G10
 109115641.888 8  85025222.00646  20764012.742                    20764019.977
 107869695.411 8  84054392.33746  20526900.898                    20526908.121
 116821478.473 8  91029682.38645  22230365.992                    22230376.180
 127135908.298 6  99066967.19744  24193155.219                    24193164.078
 123298852.662 6  96077228.02243  23462975.578                    23462984.344
 135350590.360 5                  25756355.469
 133281685.87415                  25362675.273
 134563679.214 5 104854883.54042  25606635.305                    25606648.219
 129689803.365 6 101057108.77443  24679126.680                    24679134.824
 109769578.165 8  85534782.95346  20888414.148                    20888418.777
 113501614.055 7  88442898.83245  21598617.773                    21598624.828
 11  7 30  2 46 30.0000000  0 10G12G05G25G29G04G26G09G17G02G10
 109122498.922 8  85030565.14746  20765317.602                    20765324.813
 107830971.888 8  84024218.19146  20519531.523                    20519538.898
 116762470.909 8  90983702.50045  22219137.273                    22219147.359
 127054037.217 6  99003171.62344  24177575.391                    24177584.973
 123381514.410 6  96141639.74743  23478706.336                    23478714.871
 135267006.588 5 105402870.04452  25740449.188                    25740457.824
 134640527.976 6 104914765.62042  25621260.180                    25621271.641
 129765948.919 6 101116442.92742  24693616.328                    24693624.695
 109796008.715 8  85555378.19146  20893443.719                    20893449.109
 113567377.642 7  88494143.20545  21611131.758                    21611139.238
 11  7 30  2 47  0.0000000  0 10G12G05G25G29G04G26G09G17G02G10
 109129940.503 8  85036363.78646  20766733.977                    20766740.617
 107792802.549 8  83994475.87346  20512268.781                    20512275.145
 116703945.341 8  90938098.20045  22208000.523                    22208010.238
 126972115.327 6  98939336.44944  24161985.797                    24161995.051
 123464156.990 7  96206036.57443  23494433.164                    23494440.324
 135183158.901 5 105337534.21442  25724492.656                    25724503.559
 134717174.529 5 104974490.23142  25635845.000                    25635857.195
 129842270.964 6 101175914.64943  24708140.711                    24708148.566
 109822604.282 8  85576102.01046  20898504.758                    20898509.477
 113633629.057 7  88545767.67745  21623739.289                    21623746.352
 11  7 30  2 47 30.0000000  0 10G12G05G25G29G04G26G09G17G02G10
 109137966.119 8  85042617.50046  20768261.102                    20768268.004
 107755188.003 8  83965165.86146  20505110.758                    20505117.656
 116645903.473 7  90892870.78945  22196955.359                    22196964.695
 126890143.074 6  98875462.02743  24146386.531                    24146396.547
 123546779.078 7  96270417.42943  23510155.008                    23510163.660
 135099049.37715 105271994.44452  25708486.867                    25708498.563
 134793616.342 5 105034055.26542  25650391.367                    25650403.250
 129918769.201 6 101235523.64643  24722697.680                    24722705.570
 109849363.487 8  85596953.34746  20903597.039                    20903602.191
 113700365.312 7  88597769.96045  21636438.695                    21636446.008
 11  7 30  2 48  0.0000000  0 10G12G05G25G29G04G26G09G17G02G10
 109146576.376 8  85049326.79746  20769899.469                    20769906.328
 107718130.316 8  83936289.76646  20498059.008                    20498065.672
 116588347.918 8  90848022.33746  22186002.609                    22186012.805
 126808121.148 6  98811548.89843  24130778.672                    24130787.605
 123629380.451 6  96334782.10943  23525873.438                    23525881.219
 135014680.87214 105206252.82252  25692433.180                    25692444.148
 134869851.498 6 105093459.21243  25664898.266                    25664910.543
 129995443.527 6 101295269.89043  24737287.852                    24737296.273
 109876286.026 8  85617931.95046  20908720.164                    20908724.785
 113767584.886 7  88650148.84545  21649230.109                    21649237.063
 11  7 30  2 48 30.0000000  0 10G12G05G25G29G04G26G09G17G02G10
 109155770.770 8  85056491.25346  20771649.180                    20771656.000
 107681629.967 8  83907847.96146  20491112.656                    20491120.109
 116531280.586 8  90803554.32345  22175142.875                    22175153.258
 126726050.524 6  98747597.80143  24115161.680                    24115170.461
 123711960.209 6  96399130.00243  23541587.672                    23541596.145
 134930055.423 5 105140310.90542  25676329.102                    25676340.523
 134945877.462 6 105152700.19143  25679365.234                    25679377.414
 130072293.911 6 101355153.30543  24751913.063                    24751920.188
 109903371.088 8  85639037.19346  20913874.445                    20913879.414
 113835285.125 7  88702902.27945  21662113.031                    21662119.852
 11  7 30  2 49  0.0000000  0 10G12G05G25G29G04G26G09G17G02G10
 109165548.843 8  85064110.53646  20773510.000                    20773516.402
 107645687.885 8  83879841.16746  20484273.625                    20484280.047
 116474703.220 8  90759468.10245  22164377.063                    22164386.328
 126643931.846 6  98683609.30243  24099534.602                    24099543.715
 123794517.349 6  96463460.22543  23557298.555                    23557306.195
 134845175.120 5 105074170.46442  25660177.227                    25660188.387
 135021691.713 6 105211776.24442  25693792.414                    25693804.348
 130149319.837 6 101415173.54943  24766570.078                    24766577.938
 109930617.239 8  85660267.96446  20919059.242                    20919063.926
 113903463.007 7  88756027.91445  21675086.953                    21675094.410
 11  7 30  2 49 30.0000000  0 10G12G05G25G29G04G26G09G17G02G10
 109175910.647 8  85072184.66746  20775482.031                    20775488.570
 107610305.295 8  83852270.34746  20477540.180                    20477547.340
 116418617.917 8  90715765.29645  22153703.961                    22153714.176
 126561766.073 6  98619584.07143  24083898.781                    24083907.539
 123877051.248 6  96527772.34644  23573004.023                    23573012.316
 134760042.45815 105007833.29752  25643976.188                    25643988.016
 135097291.623 6 105270685.23243  25708178.977                    25708190.121
 130226520.990 6 101475330.31243  24781260.477                    24781269.016
 109958023.817 8  85681623.74446  20924274.141                    20924279.203
 113972116.479 7  88809524.10845  21688150.930                    21688158.129
 11  7 30  2 50  0.0000000  0 10G12G05G25G29G04G26G09G17G02G10
 109186855.614 8  85080713.21146  20777564.477                    20777571.270
 107575482.707 7  83825135.88846  20470914.055                    20470920.910
 116363026.588 8  90672447.41545  22143125.367                    22143135.496
 126479554.059 6  98555522.83143  24068254.102                    24068263.148
 123959561.054 6  96592065.67943  23588704.750                    23588713.066
 134674659.68115 104941301.35752  25627730.023                    25627740.449
 135172674.994 6 105329425.54143  25722523.898                    25722535.766
 130303897.027 6 101535623.32443  24795984.742                    24795992.805
 109985590.007 8  85703103.90046  20929519.930                    20929524.652
 114041242.867 7  88863388.83145  21701305.648                    21701312.617
 11  7 30  2 50 30.0000000  0 10G12G05G25G29G04G26G09G17G02G10
 109198383.430 8  85089695.92946  20779758.375                    20779765.094
 107541221.376 8  83798438.76546  20464394.164                    20464401.063
 116307931.229 8  90629516.01045  22132641.211                    22132650.984
 126397296.643 6  98491426.23043  24052601.320                    24052610.453
 124042045.909 6  96656339.58143  23604401.117                    23604409.105
 134589029.087 5 104874576.19742  25611433.273                    25611445.105
 135247839.577 6 105387995.32243  25736827.133                    25736838.641
 130381447.920 6 101596052.57943  24810742.250                    24810750.414
 110013314.714 8  85724707.57946  20934795.789                    20934800.691
 114110839.692 7  88917620.12545  21714549.195                    21714556.418
 11  7 30  2 51  0.0000000  0 10G12G05G25G29G04G26G09G17G02G10
 109210493.519 8  85099132.35446  20782062.633                    20782069.496
 107507522.127 8  83772179.63746  20457981.477                    20457988.188
 116253333.609 8  90586972.42845  22122251.594                    22122261.387
 126314994.707 6  98427294.94944  24036940.023                    24036949.086
 124124505.145 7  96720593.50644  23620092.969                    23620100.273
 134503152.779 5 104807659.71142  25595092.688                    25595103.621
 135322782.867 6 105446392.68142  25751088.602                    25751100.328
 130459172.928 6 101656617.51543  24825532.930                    24825540.891
 110041196.825 8  85746433.89246  20940101.617                    20940105.988
 114180904.014 7  88972215.68845  21727881.734                    21727889.746
 11  7 30  2 51 30.0000000  0 10G12G05G25G29G04G26G09G17G02G10
 109223185.762 8  85109022.41446  20784477.664                    20784484.492
 107474385.772 8  83746359.11746  20451675.516                    20451682.211
 116199235.729 8  90544818.25945  22111956.922                    22111966.863
 126232649.091 6  98363129.56244  24021270.047                    24021278.875
 124206937.989 6  96784826.89743  23635779.422                    23635787.230
 134417033.200 5 104740553.65642  25578703.117                    25578715.582
 135397502.780 6 105504615.96143  25765307.156                    25765319.445
 130537071.866 6 101717318.02243  24840357.023                    24840364.684
 110069235.772 8  85768282.43346  20945437.195                    20945441.973
 114251433.498 7  89027173.70945  21741303.781                    21741310.859
 11  7 30  2 52  0.0000000  0 10G12G05G25G29G04G26G09G17G02G10
 109236459.835 8  85119365.84146  20787003.672                    20787010.742
 107441813.383 8  83720978.05346  20445477.484                    20445484.211
 116145639.510 8  90503055.01345  22101758.219                    22101767.934
 126150260.664 6  98298930.87043  24005591.383                    24005600.691
 124289343.805 6  96849039.20943  23651459.945                    23651467.918
 134330672.786 6 104673259.86942  25562270.617                    25562280.820
 135471997.033 5 105562663.39342  25779483.633                    25779495.086
 130615144.567 6 101778153.88643  24855213.813                    24855221.090
 110097430.765 8  85790252.56546  20950802.625                    20950807.109
 114322426.001 7  89082492.55745  21754813.219                    21754819.953
 11  7 30  2 52 30.0000000  0 10G12G05G25G29G04G26G09G17G02G10
 109250314.648 8  85130161.80146  20789640.508                    20789647.023
 107409805.537 8  83696036.89546  20439386.523                    20439393.395
 116092546.674 8  90461684.00145  22091654.781                    22091664.418
 126067830.326 7  98234699.48043  23989906.250                    23989914.297
 124371721.728 6  96913229.76943  23667135.820                    23667144.316
 134244073.384 6 104605779.91642  25545791.664                    25545801.648
 135546262.905 6 105620532.84442  25793614.789                    25793627.270
 130693390.606 6 101839124.79442  24870102.664                    24870110.867
 110125780.511 8  85812343.28446  20956197.047                    20956202.570
 114393878.266 7  89138169.64445  21768410.250                    21768417.254
 11  7 30  2 53  0.0000000  0 10G12G05G25G29G04G26G09G17G02G10
 109264750.350 8  85141410.39946  20792387.383                    20792394.008
 107378363.015 8  83671536.26046  20433403.000                    20433409.938
 116039959.083 8  90420706.68545  22081647.445                    22081657.676
 125985358.862 7  98170436.05844  23974212.281                    23974220.141
 124454070.920 6  96977397.93843  23682806.898                    23682815.020
 134157237.938 6 104538115.96442  25529267.633                    25529277.004
 135620298.202 6 105678222.69942  25807703.430                    25807715.746
 130771809.672 6 101900230.58543  24885026.125                    24885034.098
 110154284.190 8  85834553.95046  20961621.242                    20961626.035
 114465787.695 7  89194202.97345  21782094.164                    21782100.676
 11  7 30  2 53 30.0000000  0 10G12G05G25G29G04G26G09G17G02G10
 109279766.469 8  85153111.27646  20795244.789                    20795251.184
 107347486.695 8  83647476.81746  20427527.469                    20427534.688
 115987878.606 8  90380124.53545  22071736.586                    22071746.902
 125902847.309 6  98106141.40844  23958510.203                    23958519.656
 124536390.840 6  97041543.33243  23698471.922                    23698480.055
 134070168.506 6 104470269.73642  25512698.188                    25512707.898
 135694100.821 6 105735731.20042  25821747.781                    25821759.965
 130850401.297 6 101961470.86442  24899980.258                    24899989.348
 110182941.100 8  85856884.01946  20967074.508                    20967079.449
 114538151.770 7  89250590.56345  21795864.297                    21795871.355
 11  7 30  2 54  0.0000000  0 10G12G05G25G29G04G26G09G17G02G10
 109295361.958 8  85165263.60046  20798212.828                    20798219.684
 107317177.475 8  83623859.26447  20421759.648                    20421766.613
 115936307.123 8  90339938.99445  22061922.930                    22061932.750
 125820296.620 6  98041816.27744  23942801.898                    23942810.492
 124618680.760 6  97105665.34543  23714130.906                    23714138.996
 133982867.699 6 104402243.18242  25496085.523                    25496095.488
 135767668.568 6 105793056.65942  25835747.563                    25835759.730
 130929165.286 6 102022845.35742  24914970.172                    24914977.523
 110211750.395 8  85879332.82346  20972556.844                    20972561.664
 114610968.055 7  89307330.53545  21809720.484                    21809727.617
 11  7 30  2 54 30.0000000  0 10G12G05G25G29G04G26G09G17G02G10
 109311536.410 8  85177867.06746  20801290.172                    20801297.211
 107287436.079 8  83600684.18246  20416100.141                    20416107.016
 115885246.458 8  90300151.47745  22052206.359                    22052216.566
 125737707.586 7  97977461.26044  23927085.617                    23927094.328
 124700940.199 6  97169763.54943  23729783.938                    23729792.309
 133895337.690 6 104334038.04642  25479428.578                    25479438.988
 135840999.429 5 105850197.50852  25849701.250                    25849714.828
 131008101.111 6 102084353.75143  24929990.625                    24929999.051
 110240711.295 8  85901899.77346  20978067.734                    20978073.016
 114684234.056 7  89364420.93445  21823662.563                    21823669.777
 11  7 30  2 55  0.0000000  0 10G12G05G25G29G04G26G09G17G02G10
 109328289.618 8  85190921.51146  20804478.445                    20804485.332
 107258262.741 8  83577951.73947  20410548.398                    20410555.512
 115834698.373 8  90260763.37945  22042587.813                    22042597.676
 125655081.307 7  97913077.23244  23911362.414                    23911371.074
 124783168.324 6  97233837.40543  23745432.523                    23745441.023
 133807580.903 6 104265656.16342  25462729.125                    25462739.793
 135914090.998 6                  25863610.430
 131087208.374 5 102145995.77342  24945043.867                    24945052.043
 110269822.827 8  85924584.09346  20983607.961                    20983612.332
 114757947.044 7  89421859.60445  21837690.039                    21837697.320
 11  7 30  2 55 30.0000000  0 10G12G05G25G29G04G26G09G17G02G10
 109345620.588 8  85204426.14946  20807776.664                    20807783.184
 107229658.531 8  83555662.76247  20405105.641                    20405112.602
 115784664.533 8  90221776.00645  22033066.406                    22033076.375
 125572418.680 7  97848664.88844  23895631.422                    23895640.770
 124865364.365 6  97297886.27143  23761072.922                    23761081.605
 133719599.614 6 104197099.34742  25445986.695                    25445997.215
 135986940.577 5                  25877474.242
 131166486.966 5 102207771.32542  24960129.852                    24960138.949
 110299084.100 8  85947385.08946  20989176.172                    20989180.750
 114832104.225 7  89479644.41045  21851801.328                    21851808.398
 11  7 30  2 56  0.0000000  0 10G12G05G25G29G04G26G09G17G02G10
 109363529.159 8  85218380.88146  20811184.258                    20811191.379
 107201624.300 8  83533817.93647  20399770.898                    20399777.398
 115735146.702 8  90183190.70046  22023643.375                    22023653.418
 125489720.693 7  97784224.96044  23879894.367                    23879903.730
 124947527.742 6  97361909.64543  23776709.313                    23776717.055
 133631396.508 6 104128369.73342  25429202.086                    25429212.859
 136059546.518 5                  25891290.516
 131245936.234 5 102269679.84842  24975249.430                    24975257.570
 110328494.155 8  85970302.02146  20994772.484                    20994777.082
 114906702.654 7  89537773.06045  21865997.664                    21866003.660
 11  7 30  2 56 30.0000000  0 10G12G05G25G29G04G26G09G17G02G10
 109382014.259 8  85232784.84546  20814701.844                    20814708.941
 107174160.362 8  83512417.49147  20394544.367                    20394551.418
 115686146.593 8  90145008.82546  22014319.242                    22014329.270
 125406988.252 7  97719758.22744  23864151.016                    23864160.129
 125029657.558 6  97425906.88443  23792337.313                    23792345.723
 133542974.012 6 104059469.13042  25412376.531                    25412387.145
 136131906.26015                  25905058.734
 131325555.70515 102331720.84252  24990400.008                    24990409.484
 110358051.884 8  85993334.01946  21000397.305                    21000402.215
 114981739.958 7  89596243.69945  21880276.422                    21880283.352
 11  7 30  2 57  0.0000000  0 10G12G05G25G29G04G26G09G17G02G10
 109401074.956 8  85247637.34046  20818329.328                    20818335.988
 107147266.927 8  83491461.59246  20389426.375                    20389433.684
 115637665.715 8  90107231.54646  22005093.617                    22005103.836
 125324222.485 7  97655265.49944  23848401.555                    23848410.680
 125111753.175 6  97489877.47643  23807959.500                    23807968.082
 133454334.281 5 103990399.19742  25395508.344                    25395519.648
 136204017.81115                  25918780.883
 131405345.056 5 102393894.39242  25005582.875                    25005592.512
 110387756.780 8  86016480.69546  21006049.508                    21006054.598
 115057213.410 7  89655054.17745  21894638.320                    21894645.441
 11  7 30  2 57 30.0000000  0 10G12G05G25G29G04G26G09G17G02G10
 109420710.708 8  85262937.92546  20822065.719                    20822072.766
 107120945.058 8  83470951.07846  20384417.656                    20384424.770
 115589705.900 8  90069860.28846  21995967.258                    21995976.727
 125241424.097 6  97590747.38644  23832646.000                    23832654.234
 125193814.098 7  97553821.03343  23823574.789                    23823583.980
 133365479.81215 103921162.03252  25378600.797                    25378611.004
 136275878.57515                  25932456.422
 131485304.241 5 102456200.29142  25020799.938                    25020807.816
 110417608.211 8  86039741.56346  21011729.836                    21011734.859
 115133120.366 7  89714202.45645  21909083.008                    21909090.422
 11  7 30  2 58  0.0000000  0 10G12G05G25G29G04G26G09G17G02G10
 109440921.590 8  85278686.66146  20825911.609                    20825918.539
 107095195.187 8  83450886.26547  20379517.938                    20379525.078
 115542268.751 8  90032896.30446  21986940.102                    21986949.469
 125158594.178 6  97526204.67144  23816883.469                    23816892.281
 125275839.592 6  97617736.95143  23839184.883                    23839192.480
 133276413.343 5 103851759.59742  25361651.422                    25361662.004
 136347486.87315                  25946083.539
 131565432.52915 102518637.91352  25036045.711                    25036055.832
 110447605.015 8  86063115.71046  21017438.391                    21017443.055
 115209457.815 7  89773686.18345  21923609.414                    21923616.703
 11  7 30  2 58 30.0000000  0 10G12G05G25G29G04G26G09G17G02G10
 109461705.364 8  85294881.80746  20829866.766                    20829873.578
 107070017.983 8  83431267.69146  20374726.477                    20374733.617
 115495355.967 8  89996340.90946  21978012.859                    21978022.688
 125075733.724 7  97461638.16944  23801114.773                    23801124.238
 125357829.226 6  97681624.99343  23854786.977                    23854794.977
 133187137.047 5 103782193.65642  25344661.844                    25344673.230
 136418840.169 4                  25959662.195
 131645729.342 5 102581206.78652  25051327.984                    25051335.574
 110477746.282 8  86086602.42846  21023174.188                    21023179.207
 115286223.178 7  89833503.34145  21938217.500                    21938224.922
 11  7 30  2 59  0.0000000  0 10G12G05G25G29G04G26G09G17G02G10
 109483062.089 8  85311523.39946  20833930.664                    20833937.559
 107045414.049 8  83412095.82347  20370044.930                    20370051.609
 115448969.409 8  89960195.56546  21969185.625                    21969195.133
 124992843.878 6  97397048.75444  23785342.055                    23785350.469
 125439782.558 6  97745484.66443  23870381.828                    23870389.887
 133097653.87915 103712466.60152  25327633.648                    25327645.309
 136489938.85615                  25973191.633
 131726194.178 5                  25066639.289
 110508031.688 8  86110201.44846  21028937.336                    21028941.945
 115363413.922 7  89893651.97345  21952906.648                    21952913.848
 11  7 30  2 59 30.0000000  0  9G12G05G25G29G04G26G17G02G10
 109504991.013 8  85328610.86746  20838103.742                    20838110.531
 107021383.768 8  83393370.95047  20365471.594                    20365478.945
 115403110.729 8  89924461.56246  21960459.063                    21960469.047
 124909925.854 6  97332437.37244  23769562.766                    23769571.332
 125521698.907 6  97809315.55143  23885970.367                    23885978.363
 133007966.290 5 103642580.16342  25310567.430                    25310577.738
 131806826.998 5                  25081980.617
 110538460.489 8  86133912.21546  21034727.336                    21034732.508
 115441027.731 7  89954130.26945  21967675.641                    21967682.969
 11  7 30  3  0  0.0000000  0 10G12G05G25G29G04G26G09G17G02G10
 109527491.057 8  85346143.36646  20842385.180                    20842392.223
 106997927.426 8  83375093.31447  20361008.391                    20361015.535
 115357781.045 8  89889139.75346  21951833.156                    21951842.938
 124826980.412 7  97267804.63744  23753778.617                    23753787.762
 125603577.377 6  97873116.92743  23901551.563                    23901559.023
 132918076.540 5 103572536.24842  25293461.922                    25293471.898
 136631348.18114                  26000101.078
 131887626.90215                  25097359.078
 110569031.213 8  86157733.56646  21040545.063                    21040549.637
 115519061.112 7  90014935.50145  21982525.016                    21982531.848
 11  7 30  3  0 30.0000000  0  9G12G05G25G29G04G26G17G02G10
 109550561.835 8  85364120.59546  20846775.383                    20846782.352
 106975045.529 8  83357263.28447  20356653.859                    20356660.590
 115312982.385 8  89854231.73546  21943308.156                    21943317.742
 124744008.712 7  97203151.45144  23737989.711                    23737998.586
 125685417.757 6  97936888.62443  23917124.977                    23917132.922
 132827987.33115 103502336.93252  25276317.805                    25276328.547
 131968593.95215                  25112766.555
 110599743.632 8  86181665.33846  21046389.391                    21046394.387
 115597511.609 7  90076065.75445  21997453.563                    21997460.996
 11  7 30  3  1  0.0000000  0  9G12G05G25G29G04G26G17G02G10
 109574202.292 8  85382541.72746  20851274.438                    20851280.836
 106952738.451 8  83339881.17346  20352408.734                    20352415.859
 115268716.135 8  89819738.58046  21934884.828                    21934894.500
 124661011.977 7  97138478.76244  23722196.195                    23722205.137
 125767219.443 6  98000630.16143  23932691.211                    23932699.164
 132737701.453 6 103431984.34643  25259137.336                    25259148.195
 132049727.165 4                  25128204.859
 110630596.820 8  86205706.79646  21052260.633                    21052265.309
 115676376.501 7  90137518.91545  22012461.211                    22012468.172
 11  7 30  3  1 30.0000000  0  9G12G05G25G29G04G26G17G02G10
 109598411.584 8  85401406.10646  20855881.117                    20855887.832
 106931006.981 8  83322947.57847  20348273.586                    20348280.379
 115224984.068 8  89785661.65846  21926562.375                    21926571.992
 124577991.073 7  97073787.20544  23706398.008                    23706406.082
 125848981.908 6  98064341.14643  23948250.102                    23948258.406
 132647221.326 5 103361480.37943  25241920.344                    25241929.773
 132131026.894 5                  25143676.461
 110661590.235 8  86229857.52246  21058158.695                    21058163.219
 115755653.465 7  90199293.17445  22027547.313                    22027554.348
 11  7 30  3  2  0.0000000  0  9G12G05G25G29G04G26G17G02G10
 109623188.216 8  85420712.56246  20860595.883                    20860602.695
 106909850.994 8  83306462.41447  20344247.797                    20344254.688
 115181787.162 8  89752001.76346  21918342.602                    21918352.262
 124494947.046 7  97009077.64844  23690594.789                    23690603.395
 125930704.149 6  98128020.78443  23963801.078                    23963809.484
 132556549.413 5 103290826.99743  25224665.430                    25224675.906
 132212491.758 5                  25159180.180
 110692722.766 8  86254116.64346  21064082.922                    21064087.691
 115835339.051 7  90261385.84045  22042710.250                    22042718.094
 11  7 30  3  2 30.0000000  0  9G12G05G25G29G04G26G17G02G10
 109648531.116 8  85440460.27146  20865418.500                    20865425.375
 106889270.540 8  83290425.71746  20340331.234                    20340338.066
 115139126.805 8  89718759.94346  21910224.461                    21910234.078
 124411880.549 7  96944350.54444  23674787.445                    23674796.500
 126012385.542 6  98191668.58643  23979345.180                    23979353.129
 132465687.846 6 103220025.83342  25207374.586                    25207384.551
 132294121.444 5                  25174712.125
 110723993.249 8  86278483.26046  21070033.133                    21070038.063
 115915430.270 7  90323794.56345  22057951.461                    22057958.398
 11  7 30  3  3  0.0000000  0  9G12G05G25G29G04G26G17G02G10
 109674439.619 7  85460648.70446  20870348.664                    20870355.398
 106869265.961 8  83274837.76146  20336525.031                    20336531.613
 115097004.535 8  89685937.41846  21902208.797                    21902219.109
 124328792.975 7  96879607.09144  23658976.547                    23658984.859
 126094025.712 7  98255284.27343  23994880.867                    23994889.035
 132374639.552 6 103149079.17343  25190049.172                    25190058.383
 132375915.198 5                  25190275.867
 110755401.195 8  86302956.98846  21076009.852                    21076014.895
 115995924.582 7  90386517.40945  22073269.258                    22073276.004
 11  7 30  3  3 30.0000000  0  9G12G05G25G29G04G26G17G02G10
 109700912.453 8  85481276.87646  20875386.445                    20875393.352
 106849837.629 8  83259698.82147  20332827.656                    20332834.270
 115055421.923 8  89653535.41146  21894295.945                    21894306.059
 124245685.785 7  96814848.28244  23643161.867                    23643170.441
 126175624.130 7  98318867.44043  24010408.594                    24010416.520
 132283407.104 6 103077988.94342  25172688.125                    25172697.898
 132457873.022 5                  25205873.469
 110786945.963 8  86327537.33946  21082012.469                    21082017.477
 116076819.086 7  90449552.07145  22088662.805                    22088670.109
 11  7 30  3  4  0.0000000  0  9G12G05G25G29G04G26G17G02G10
 109727948.866 8  85502344.20846  20880530.734                    20880538.137
 106830985.482 8  83245008.86147  20329239.742                    20329246.371
 115014380.075 8  89621554.76846  21886486.211                    21886495.691
 124162559.308 7  96750074.48544  23627342.766                    23627352.074
 126257180.025 6  98382417.47243  24025927.555                    24025935.758
 132191993.093 6 103006757.36343  25155292.680                    25155301.688
 132539993.554 5                  25221499.867
 110818626.136 8  86352223.19146  21088041.266                    21088045.934
 116158110.781 7  90512896.24145  22104131.633                    22104139.570
 11  7 30  3  4 30.0000000  0  9G12G05G25G29G04G26G17G02G10
 109755547.450 7  85523849.59246  20885783.125                    20885790.191
 106812710.370 8  83230768.53147  20325762.180                    20325769.016
 114973880.678 8  89589996.80446  21878779.203                    21878788.629
 124079415.201 7  96685286.93044  23611521.117                    23611530.520
 126338693.198 6  98445934.25243  24041439.648                    24041446.781
 132100400.049 6 102935386.24842  25137862.719                    25137872.570
 132622276.878 5                  25237159.805
 110850441.344 7  86377014.27046  21094095.625                    21094100.164
 116239797.139 7  90576547.93845  22119676.797                    22119683.707
 11  7 30  3  5  0.0000000  0  8G12G05G25G29G04G26G02G10
 109783707.551 8  85545792.51946  20891141.836                    20891148.512
 106795012.743 8  83216978.19646  20322395.047                    20322402.012
 114933925.430 8  89558862.86846  21871176.047                    21871185.684
 123996254.878 7  96620486.74144  23595696.945                    23595705.441
 126420163.363 6  98509417.47043  24056942.883                    24056951.016
 132008631.170 6 102863878.05442  25120400.531                    25120408.859
 110882391.665 8  86401910.62846  21100175.656                    21100180.543
 116321875.985 7  90640505.46345  22135295.375                    22135303.449
 11  7 30  3  5 30.0000000  0  8G12G05G25G29G04G26G02G10
 109812428.318 8  85568172.32146  20896607.406                    20896613.785
 106777892.285 8  83203637.60147  20319136.570                    20319143.313
 114894515.657 8  89528153.98246  21863676.531                    21863686.277
 123913079.460 7  96555674.77744  23579868.930                    23579877.434
 126501590.063 6  98572866.83143  24072437.813                    24072445.375
 131916688.932 6 102792234.81742  25102903.805                    25102913.262
 110914476.338 8  86426911.66746  21106281.102                    21106285.660
 116404344.146 7  90704766.35644  22150988.891                    22150996.246
